[[{"header":{"parameterUnit":"m.s-1","parameterCategory":1,"la1":30.6,"la2":28.766,"lo1":-90.7593,"lo2":-88.6598,"dx":0.0162,"dy":0.0183,"nx":116,"ny":114,"refTime":"2022-12-01T06:00:00:Z","depth":0,"parameterNumber":2,"parameterNumberName":"U-component_of_WINDS"},"data":[0.0,0.0,0.0,0.0,0.0,0.0,0.0,0.0,0.0,0.0,0.0,0.0,0.0,0.0,0.0,0.0,0.0,0.0,0.0,0.0,0.0,0.0,0.0,0.0,0.0,0.0,0.0,0.0,0.0,0.0,0.0,0.0,0.0,0.0,0.0,0.0,0.0,0.0,0.0,0.0,0.0,0.0,0.0,0.0,0.0,0.0,0.0,0.0,0.0,0.0,0.0,0.0,0.0,0.0,0.0,0.0,0.0,0.0,0.0,0.0,0.0,0.0,0.0,0.0,0.0,0.0,0.0,0.0,0.0,0.0,0.0,0.0,0.0,0.0,0.0,0.0,0.0,0.0,0.0,0.0,0.0,0.0,0.0,0.0,0.0,0.0,0.0,0.0,0.0,0.0,0.0,0.0,0.0,0.0,0.0,0.0,0.0,0.0,0.0,0.0,0.0,0.0,0.0,0.0,0.0,0.0,0.0,0.0,0.0,0.0,0.0,0.0,0.0,0.0,0.0,0.0,0.0,0.0,0.0,0.0,0.0,0.0,0.0,0.0,0.0,0.0,0.0,0.0,0.0,0.0,0.0,0.0,0.0,0.0,0.0,0.0,0.0,0.0,0.0,0.0,0.0,0.0,0.0,0.0,0.0,0.0,0.0,0.0,0.0,0.0,0.0,0.0,0.0,0.0,0.0,0.0,0.0,0.0,0.0,0.0,0.0,0.0,0.0,0.0,0.0,0.0,0.0,0.0,0.0,0.0,0.0,0.0,0.0,0.0,0.0,0.0,0.0,0.0,0.0,0.0,0.0,0.0,0.0,0.0,0.0,0.0,0.0,0.0,0.0,0.0,0.0,0.0,0.0,0.0,0.0,0.0,0.0,0.0,0.0,0.0,0.0,0.0,0.0,0.0,0.0,0.0,0.0,0.0,0.0,0.0,0.0,0.0,0.0,0.0,0.0,0.0,0.0,0.0,0.0,0.0,0.0,0.0,0.0,0.0,0.0,0.0,0.0,0.0,0.0,0.0,0.0,0.0,0.0,0.0,0.0,0.0,0.0,0.0,0.0,0.0,0.0,0.0,0.0,0.0,0.0,0.0,0.0,0.0,0.0,0.0,0.0,0.0,0.0,0.0,0.0,0.0,0.0,0.0,0.0,0.0,0.0,0.0,0.0,0.0,0.0,0.0,0.0,0.0,0.0,0.0,0.0,0.0,0.0,0.0,0.0,0.0,0.0,0.0,0.0,0.0,0.0,0.0,0.0,0.0,0.0,0.0,0.0,0.0,0.0,0.0,0.0,0.0,0.0,0.0,0.0,0.0,0.0,0.0,0.0,0.0,0.0,0.0,0.0,0.0,0.0,0.0,0.0,0.0,0.0,0.0,0.0,0.0,0.0,0.0,0.0,0.0,0.0,0.0,0.0,0.0,0.0,0.0,0.0,0.0,0.0,0.0,0.0,0.0,0.0,0.0,0.0,0.0,0.0,0.0,0.0,0.0,0.0,0.0,0.0,0.0,0.0,0.0,0.0,0.0,0.0,0.0,0.0,0.0,0.0,0.0,0.0,0.0,0.0,0.0,0.0,0.0,0.0,0.0,0.0,0.0,0.0,0.0,0.0,0.0,0.0,0.0,0.0,0.0,0.0,0.0,0.0,0.0,0.0,0.0,0.0,0.0,0.0,0.0,0.0,0.0,0.0,0.0,0.0,0.0,0.0,0.0,0.0,0.0,0.0,0.0,0.0,0.0,0.0,0.0,0.0,0.0,0.0,0.0,0.0,0.0,0.0,0.0,0.0,0.0,0.0,0.0,0.0,0.0,0.0,0.0,0.0,0.0,0.0,0.0,0.0,0.0,0.0,0.0,0.0,0.0,0.0,0.0,0.0,0.0,0.0,0.0,0.0,0.0,0.0,0.0,0.0,0.0,0.0,0.0,0.0,0.0,0.0,0.0,0.0,0.0,0.0,0.0,0.0,0.0,0.0,0.0,0.0,0.0,0.0,0.0,0.0,0.0,0.0,0.0,0.0,0.0,0.0,0.0,0.0,0.0,0.0,0.0,0.0,0.0,0.0,0.0,0.0,0.0,0.0,0.0,0.0,0.0,0.0,0.0,0.0,0.0,0.0,0.0,0.0,0.0,0.0,0.0,0.0,0.0,0.0,0.0,0.0,0.0,0.0,0.0,0.0,0.0,0.0,0.0,0.0,0.0,0.0,0.0,0.0,0.0,0.0,0.0,0.0,0.0,0.0,0.0,0.0,0.0,0.0,0.0,0.0,0.0,0.0,0.0,0.0,0.0,0.0,0.0,0.0,0.0,0.0,0.0,0.0,0.0,0.0,0.0,0.0,0.0,0.0,0.0,0.0,0.0,0.0,0.0,0.0,0.0,0.0,0.0,0.0,0.0,0.0,0.0,0.0,0.0,0.0,0.0,0.0,0.0,0.0,0.0,0.0,0.0,0.0,0.0,0.0,0.0,0.0,0.0,0.0,0.0,0.0,0.0,0.0,0.0,0.0,0.0,0.0,0.0,0.0,0.0,0.0,0.0,0.0,0.0,0.0,0.0,0.0,0.0,0.0,0.0,0.0,0.0,0.0,0.0,0.0,0.0,0.0,0.0,0.0,0.0,0.0,0.0,0.0,0.0,0.0,0.0,0.0,0.0,0.0,0.0,0.0,0.0,0.0,0.0,0.0,0.0,0.0,0.0,0.0,0.0,0.0,0.0,0.0,0.0,0.0,0.0,0.0,0.0,0.0,0.0,0.0,0.0,0.0,0.0,0.0,0.0,0.0,0.0,0.0,0.0,0.0,0.0,0.0,0.0,0.0,0.0,0.0,0.0,0.0,0.0,0.0,0.0,0.0,0.0,0.0,0.0,0.0,0.0,0.0,0.0,0.0,0.0,0.0,0.0,0.0,0.0,0.0,0.0,0.0,0.0,0.0,0.0,0.0,0.0,0.0,0.0,0.0,0.0,0.0,0.0,0.0,0.0,0.0,0.0,0.0,0.0,0.0,0.0,0.0,0.0,0.0,0.0,0.0,0.0,0.0,0.0,0.0,0.0,0.0,0.0,0.0,0.0,0.0,0.0,0.0,0.0,0.0,0.0,0.0,0.0,0.0,0.0,0.0,0.0,0.0,0.0,0.0,0.0,0.0,0.0,0.0,0.0,0.0,0.0,0.0,0.0,0.0,0.0,0.0,0.0,0.0,0.0,0.0,0.0,0.0,0.0,0.0,0.0,0.0,0.0,0.0,0.0,0.0,0.0,0.0,0.0,0.0,0.0,0.0,0.0,0.0,0.0,0.0,0.0,0.0,0.0,0.0,0.0,0.0,0.0,0.0,0.0,0.0,0.0,0.0,0.0,0.0,0.0,0.0,0.0,0.0,0.0,0.0,0.0,0.0,0.0,0.0,0.0,0.0,0.0,0.0,0.0,0.0,0.0,0.0,0.0,0.0,0.0,0.0,0.0,0.0,0.0,0.0,0.0,0.0,0.0,0.0,0.0,0.0,0.0,0.0,0.0,0.0,0.0,0.0,0.0,0.0,0.0,0.0,0.0,0.0,0.0,0.0,0.0,0.0,0.0,0.0,0.0,0.0,0.0,0.0,0.0,0.0,0.0,0.0,0.0,0.0,0.0,0.0,0.0,0.0,0.0,0.0,0.0,0.0,0.0,0.0,0.0,0.0,0.0,0.0,0.0,0.0,0.0,0.0,0.0,0.0,0.0,0.0,0.0,0.0,0.0,0.0,0.0,0.0,0.0,0.0,0.0,0.0,0.0,0.0,0.0,0.0,0.0,0.0,0.0,0.0,0.0,0.0,0.0,0.0,0.0,0.0,0.0,0.0,0.0,0.0,0.0,0.0,0.0,0.0,0.0,0.0,0.0,0.0,0.0,0.0,0.0,0.0,0.0,0.0,0.0,0.0,0.0,0.0,0.0,0.0,0.0,0.0,0.0,0.0,0.0,0.0,0.0,0.0,0.0,0.0,0.0,0.0,0.0,0.0,0.0,0.0,0.0,0.0,0.0,0.0,0.0,0.0,0.0,0.0,0.0,0.0,0.0,0.0,0.0,0.0,0.0,0.0,0.0,0.0,0.0,0.0,0.0,0.0,0.0,0.0,0.0,0.0,0.0,0.0,0.0,0.0,0.0,0.0,0.0,0.0,0.0,0.0,0.0,0.0,0.0,0.0,0.0,0.0,0.0,0.0,0.0,0.0,0.0,0.0,0.0,0.0,0.0,0.0,0.0,0.0,0.0,0.0,0.0,0.0,0.0,0.0,0.0,0.0,0.0,0.0,0.0,0.0,0.0,0.0,0.0,0.0,0.0,0.0,0.0,0.0,0.0,0.0,0.0,0.0,0.0,0.0,0.0,0.0,0.0,0.0,0.0,0.0,0.0,0.0,0.0,0.0,0.0,0.0,0.0,0.0,0.0,0.0,0.0,0.0,0.0,0.0,0.0,0.0,0.0,0.0,0.0,0.0,0.0,0.0,0.0,0.0,0.0,0.0,0.0,0.0,0.0,0.0,0.0,0.0,0.0,0.0,0.0,0.0,0.0,0.0,0.0,0.0,0.0,0.0,0.0,0.0,0.0,0.0,0.0,0.0,0.0,0.0,0.0,0.0,0.0,0.0,0.0,0.0,0.0,0.0,0.0,0.0,0.0,0.0,0.0,0.0,0.0,0.0,0.0,0.0,0.0,0.0,0.0,0.0,0.0,0.0,0.0,0.0,0.0,0.0,0.0,0.0,0.0,0.0,0.0,0.0,0.0,0.0,0.0,0.0,0.0,0.0,0.0,0.0,0.0,0.0,0.0,0.0,0.0,0.0,0.0,0.0,0.0,0.0,0.0,0.0,0.0,0.0,0.0,0.0,0.0,0.0,0.0,0.0,0.0,0.0,0.0,0.0,0.0,0.0,0.0,0.0,0.0,0.0,0.0,0.0,0.0,0.0,0.0,0.0,0.0,0.0,0.0,0.0,0.0,0.0,0.0,0.0,0.0,0.0,0.0,0.0,0.0,0.0,0.0,0.0,0.0,0.0,0.0,0.0,0.0,0.0,0.0,0.0,0.0,0.0,0.0,0.0,0.0,0.0,0.0,0.0,0.0,0.0,0.0,0.0,0.0,0.0,0.0,0.0,0.0,0.0,0.0,0.0,0.0,0.0,0.0,0.0,0.0,0.0,0.0,0.0,0.0,0.0,0.0,0.0,0.0,0.0,0.0,0.0,0.0,0.0,0.0,0.0,0.0,0.0,0.0,0.0,0.0,0.0,0.0,0.0,0.0,0.0,0.0,0.0,0.0,0.0,0.0,0.0,0.0,0.0,0.0,0.0,0.0,0.0,0.0,0.0,0.0,0.0,0.0,0.0,0.0,0.0,0.0,0.0,0.0,0.0,0.0,0.0,0.0,0.0,0.0,0.0,0.0,0.0,0.0,0.0,0.0,0.0,0.0,0.0,0.0,0.0,0.0,0.0,0.0,0.0,0.0,0.0,0.0,0.0,0.0,0.0,0.0,0.0,0.0,0.0,0.0,0.0,0.0,0.0,0.0,0.0,0.0,0.0,0.0,0.0,0.0,0.0,0.0,0.0,0.0,0.0,0.0,0.0,0.0,0.0,0.0,0.0,0.0,0.0,0.0,0.0,0.0,0.0,0.0,0.0,0.0,0.0,0.0,0.0,0.0,0.0,0.0,0.0,0.0,0.0,0.0,0.0,0.0,0.0,0.0,0.0,0.0,0.0,0.0,0.0,0.0,0.0,0.0,0.0,0.0,0.0,0.0,0.0,0.0,0.0,0.0,0.0,0.0,0.0,0.0,0.0,0.0,0.0,0.0,0.0,0.0,0.0,0.0,0.0,0.0,0.0,0.0,0.0,0.0,0.0,0.0,0.0,0.0,0.0,0.0,0.0,0.0,0.0,0.0,0.0,0.0,0.0,0.0,0.0,0.0,0.0,0.0,0.0,0.0,0.0,0.0,0.0,0.0,0.0,0.0,0.0,0.0,0.0,0.0,0.0,0.0,0.0,0.0,0.0,0.0,0.0,0.0,0.0,0.0,0.0,0.0,0.0,0.0,0.0,0.0,0.0,0.0,0.0,0.0,0.0,0.0,0.0,0.0,0.0,0.0,-4.3983,-4.2877,0.0,0.0,0.0,0.0,0.0,0.0,0.0,0.0,0.0,0.0,0.0,0.0,0.0,0.0,0.0,0.0,0.0,0.0,0.0,0.0,0.0,0.0,0.0,-2.9556,-2.9494,-2.9833,-2.9556,0.0,0.0,0.0,0.0,0.0,0.0,0.0,0.0,0.0,-3.2855,-3.2917,-3.3366,-3.4027,-3.4869,-3.524,-3.485,-3.3836,0.0,0.0,0.0,0.0,0.0,0.0,0.0,0.0,0.0,0.0,0.0,0.0,0.0,0.0,0.0,0.0,0.0,0.0,0.0,0.0,0.0,0.0,0.0,0.0,0.0,0.0,0.0,0.0,0.0,0.0,0.0,0.0,0.0,0.0,0.0,0.0,0.0,0.0,0.0,0.0,0.0,0.0,0.0,0.0,0.0,0.0,0.0,0.0,0.0,0.0,0.0,0.0,0.0,0.0,0.0,0.0,0.0,0.0,0.0,0.0,0.0,0.0,0.0,0.0,0.0,0.0,0.0,0.0,0.0,0.0,-4.5256,-4.4198,0.0,0.0,0.0,0.0,0.0,0.0,0.0,0.0,0.0,0.0,0.0,0.0,0.0,0.0,0.0,0.0,0.0,0.0,0.0,0.0,0.0,-3.0448,-3.054,-3.0479,-3.0448,-3.054,-3.0479,-3.0644,-3.116,-3.1184,0.0,0.0,0.0,0.0,0.0,-3.3681,-3.388,-3.3964,-3.4278,-3.5211,-3.6659,-3.7986,-3.7206,-3.4713,-3.4528,0.0,0.0,0.0,0.0,0.0,0.0,0.0,0.0,0.0,0.0,0.0,0.0,0.0,0.0,0.0,0.0,0.0,0.0,0.0,0.0,0.0,0.0,0.0,0.0,0.0,0.0,0.0,0.0,0.0,0.0,0.0,0.0,0.0,0.0,0.0,0.0,0.0,0.0,0.0,0.0,0.0,0.0,0.0,0.0,0.0,0.0,0.0,0.0,0.0,0.0,0.0,0.0,0.0,0.0,0.0,0.0,0.0,0.0,0.0,0.0,0.0,0.0,0.0,-4.7935,-4.8168,-4.8052,-4.8334,-4.817,-4.7688,-4.6838,-4.6044,-4.5433,-4.523,0.0,0.0,0.0,0.0,0.0,0.0,0.0,0.0,0.0,0.0,0.0,0.0,0.0,0.0,0.0,0.0,0.0,0.0,0.0,-3.0602,-3.1182,-3.0751,-3.0632,-3.1213,-3.0751,-3.0644,-3.116,-3.1184,0.0,0.0,0.0,0.0,-3.3368,-3.475,-3.5494,-3.5516,-3.7033,-3.7944,-3.8284,-3.8491,-3.8387,-3.7952,-3.7297,-3.6599,-3.586,0.0,0.0,0.0,0.0,0.0,0.0,0.0,0.0,0.0,0.0,0.0,0.0,0.0,0.0,0.0,0.0,0.0,0.0,0.0,0.0,0.0,0.0,0.0,0.0,0.0,0.0,0.0,0.0,0.0,0.0,0.0,0.0,0.0,0.0,0.0,0.0,0.0,0.0,0.0,0.0,0.0,-3.9454,-4.1407,0.0,0.0,0.0,0.0,0.0,0.0,0.0,0.0,0.0,0.0,0.0,0.0,0.0,-4.878,-4.8701,-4.896,-4.8786,-4.8153,-4.8248,-4.8267,-4.8304,-4.9057,-4.9131,-4.8656,-4.9197,0.0,-4.6495,-4.6472,0.0,0.0,0.0,0.0,0.0,0.0,0.0,0.0,0.0,0.0,0.0,0.0,0.0,0.0,0.0,0.0,0.0,0.0,0.0,0.0,0.0,-3.1705,-3.1747,-3.2373,-3.2524,-3.295,-3.3835,-3.4275,0.0,0.0,0.0,-3.5744,-3.5904,-3.6707,-3.6945,-3.6635,-3.7909,-3.855,-3.8617,-3.9008,-3.9215,-3.9181,-3.887,-3.8296,-3.7529,-3.7249,0.0,0.0,0.0,0.0,0.0,0.0,0.0,0.0,0.0,0.0,0.0,0.0,0.0,0.0,0.0,0.0,0.0,0.0,0.0,0.0,0.0,0.0,0.0,0.0,0.0,0.0,0.0,0.0,0.0,0.0,0.0,0.0,0.0,0.0,0.0,0.0,0.0,0.0,0.0,-3.8537,-4.0558,-4.1936,-4.2674,-4.3691,0.0,0.0,0.0,0.0,0.0,0.0,0.0,0.0,0.0,-4.9415,-4.8939,-4.8959,-4.9531,-4.9531,-4.9588,-4.9701,-4.9701,-4.9701,-4.9738,-5.0105,-5.0151,-4.993,-5.0316,-4.9913,-4.8909,-4.7839,-4.718,-4.6794,0.0,0.0,0.0,0.0,-4.5169,-4.5028,0.0,0.0,0.0,0.0,0.0,0.0,0.0,0.0,0.0,0.0,0.0,0.0,-3.2628,-3.2659,-3.2915,-3.3482,-3.4171,-3.4904,-3.5695,-3.6423,-3.6952,-3.7324,-3.729,-3.729,-3.729,-3.7851,-3.8162,-3.8207,-3.8882,-3.9203,-3.9203,-3.9733,-4.0008,-4.0008,-4.0008,-3.9457,-3.8594,-3.8594,-3.7939,-3.687,0.0,0.0,0.0,0.0,0.0,0.0,0.0,0.0,0.0,0.0,0.0,0.0,0.0,0.0,0.0,0.0,0.0,0.0,0.0,0.0,0.0,0.0,0.0,0.0,0.0,0.0,0.0,0.0,0.0,0.0,0.0,0.0,0.0,0.0,0.0,0.0,0.0,-4.033,-4.2065,-4.3568,-4.4396,-4.5414,0.0,0.0,0.0,0.0,0.0,0.0,-4.9122,-4.9142,-4.9365,-4.9884,-4.926,-4.9334,-5.0198,-5.0198,-5.0398,-5.0802,-5.0802,-5.0802,-5.0802,-5.1022,-5.1096,-5.1132,-5.1316,-5.1426,-5.1255,-4.94,-4.854,-4.8306,-4.7406,-4.6943,-4.6783,-4.6248,-4.5959,-4.5826,0.0,0.0,0.0,0.0,0.0,0.0,0.0,0.0,0.0,0.0,0.0,-3.2628,-3.3275,-3.3367,-3.3642,-3.4349,-3.4986,-3.5259,-3.5059,-3.5703,-3.5952,-3.5712,-3.5701,-3.5701,-3.5701,-3.7433,-3.9088,-4.0722,-4.0756,-4.0791,-4.0791,-4.0825,-4.086,-4.086,-4.086,-4.0032,-3.8594,-3.8594,-3.856,-3.8422,-3.7719,0.0,0.0,0.0,0.0,0.0,0.0,0.0,0.0,0.0,0.0,0.0,0.0,0.0,0.0,0.0,0.0,0.0,0.0,0.0,0.0,0.0,0.0,0.0,0.0,0.0,0.0,0.0,0.0,0.0,0.0,0.0,0.0,0.0,0.0,0.0,0.0,0.0,0.0,-4.7534,-4.7288,0.0,0.0,0.0,0.0,-4.9245,-4.9475,-4.9224,-4.8397,-4.836,-4.9094,-5.0692,-5.0692,-5.1059,-5.1867,-5.1887,-5.1499,-5.0802,-5.0802,-5.0802,-5.0839,-5.1573,-5.194,-5.1977,-5.2747,-5.3078,-5.2947,-5.1328,-5.0283,-4.9649,-4.9091,-4.8504,-4.7945,-4.7534,-4.7204,-4.697,0.0,0.0,0.0,-3.2382,-3.2382,-3.2382,-3.2382,-3.2382,-3.2536,-3.2998,-3.3029,-3.3306,-3.4014,-3.4135,-3.4156,-3.4307,-3.5295,-3.5829,-3.5653,-3.7086,-3.7889,-3.7787,-3.8227,-3.8594,-3.8761,-3.9474,-3.9948,-4.0112,-4.0112,-4.0112,-4.0112,-4.0112,-4.0112,-4.0146,-4.0687,-4.0308,-3.9319,-3.9319,-3.9319,-3.925,-3.8491,-3.8043,0.0,0.0,0.0,0.0,0.0,0.0,0.0,0.0,0.0,0.0,0.0,0.0,0.0,0.0,0.0,0.0,0.0,0.0,0.0,0.0,0.0,0.0,0.0,0.0,0.0,0.0,0.0,0.0,0.0,0.0,0.0,0.0,0.0,0.0,0.0,0.0,0.0,-4.7446,-4.7302,0.0,-4.9248,-4.8722,-4.8395,-4.8688,-4.9754,-5.0251,-4.9921,-5.0398,-5.0949,-5.1536,-5.1059,-5.1206,-5.1977,-5.1977,-5.2123,-5.2344,-5.2344,-5.2344,-5.2344,-5.2637,-5.2784,-5.2784,-5.3078,-5.3203,-5.3188,-5.2601,-5.1909,-5.1134,-5.0453,-4.9803,-4.927,-4.867,-4.819,-4.7706,0.0,-3.2382,0.0,-3.2382,-3.2382,-3.2382,-3.2382,-3.2598,-3.2906,-3.3336,-3.3614,-3.3952,-3.4443,-3.4649,-3.4722,-3.4581,-3.5975,-3.6783,-3.6704,-3.8362,-3.9377,-3.9377,-3.963,-4.005,-4.0558,-4.0631,-4.0752,-4.0871,-4.0871,-4.0871,-4.0871,-4.0871,-4.0871,-4.0905,-4.1447,-4.124,-4.0457,-4.0215,-4.0077,-4.0043,-3.9583,-3.9238,-3.8905,0.0,0.0,0.0,0.0,0.0,0.0,0.0,0.0,0.0,0.0,0.0,0.0,0.0,0.0,0.0,0.0,0.0,0.0,0.0,0.0,0.0,0.0,0.0,0.0,0.0,0.0,0.0,0.0,0.0,0.0,0.0,0.0,0.0,0.0,0.0,-4.6871,-4.7518,-4.7796,-4.8341,-4.9382,-4.9258,-4.915,-4.915,-5.0435,-5.1096,-5.0802,-5.1316,-5.172,-5.1977,-5.1463,-5.1573,-5.2417,-5.2674,-5.3078,-5.3628,-5.3885,-5.3995,-5.3995,-5.3995,-5.3995,-5.3995,-5.3995,-5.3849,-5.3592,-5.3592,-5.3151,-5.2323,-5.1627,-5.1006,-5.0471,-4.9859,-4.9214,-4.864,-3.2382,-3.2382,-3.2382,-3.2382,-3.2382,-3.2413,-3.2413,-3.2967,-3.3429,-3.346,-3.4044,-3.4505,-3.4536,-3.4995,-3.5275,-3.5303,-3.6977,-3.8063,-3.8096,-3.937,-4.0121,-4.0189,-3.9636,-3.9764,-4.0748,-4.0783,-4.1577,-4.3207,-4.3207,-4.3207,-4.3207,-4.3207,-4.3207,-4.3207,-4.3207,-4.2758,-4.1999,-4.1274,-4.0963,-4.0963,-4.0894,-4.0388,-3.9733,0.0,0.0,0.0,0.0,0.0,0.0,0.0,0.0,0.0,0.0,0.0,0.0,0.0,0.0,0.0,0.0,0.0,0.0,0.0,0.0,0.0,0.0,0.0,0.0,0.0,0.0,0.0,0.0,0.0,0.0,0.0,0.0,0.0,-4.7183,-4.7406,-4.771,-4.8184,-4.9038,-4.961,-4.9647,-5.0325,-5.0802,-5.0802,-5.1536,-5.1646,-5.0875,-5.0875,-5.1242,-5.205,-5.205,-5.2454,-5.3298,-5.4069,-5.4436,-5.4436,-5.5207,-5.5596,-5.5596,-5.5596,-5.5596,-5.5596,-5.5596,-5.5133,-5.4436,-5.4436,-5.3995,-5.3198,-5.2627,-5.2042,-5.1525,-5.1017,-5.0335,-4.9649,-3.2382,-3.2382,-3.2382,-3.2382,-3.2382,-3.2567,-3.3059,-3.3275,-3.3767,-3.4783,-3.469,-3.469,-3.5183,-3.4929,-3.4909,-3.5331,-3.6206,-3.7144,-3.8122,-3.9396,-4.0637,-4.18,-4.1895,-4.2106,-4.2362,-4.2486,-4.2733,-4.3207,-4.3207,-4.3207,-4.3207,-4.3207,-4.3207,-4.3207,-4.3207,-4.3069,-4.2861,-4.2654,-4.2551,-4.2413,-4.0698,-4.0273,-4.0584,0.0,0.0,0.0,0.0,0.0,0.0,0.0,0.0,0.0,0.0,0.0,0.0,0.0,0.0,0.0,0.0,0.0,0.0,0.0,0.0,0.0,0.0,0.0,0.0,0.0,0.0,0.0,0.0,0.0,0.0,0.0,0.0,-4.7117,-4.7077,-4.765,-4.837,-4.9111,-4.9407,-4.9774,-5.0398,-5.0655,-5.0802,-5.0802,-5.1536,-5.1903,-5.1683,-5.2234,-5.2931,-5.3702,-5.3739,-5.4142,-5.4913,-5.5133,-5.5244,-5.5244,-5.5486,-5.5596,-5.5596,-5.5596,-5.5596,-5.5596,-5.5596,-5.5464,-5.5244,-5.5244,-5.5133,-5.4759,-5.3063,-5.2042,-5.1525,-5.1017,-5.0335,-4.9679,-3.2382,-3.2382,-3.2382,-3.2382,-3.2382,-3.2628,-3.3306,-3.3644,-3.426,-3.5367,-3.5183,-3.4967,-3.509,-3.4926,-3.5077,-3.5715,-3.6805,-3.815,-3.9792,-4.1261,-4.2396,-4.3124,-4.3348,-4.3477,-4.3528,-4.3605,-4.3828,-4.4113,-4.4113,-4.4113,-4.4113,-4.4113,-4.4113,-4.4113,-4.4113,-4.394,-4.3655,-4.3655,-4.3483,-4.3069,-4.1723,-4.124,-4.1343,-4.1032,-4.0342,-3.9583,-3.9583,-3.8996,-3.818,-3.7804,0.0,0.0,0.0,0.0,0.0,0.0,0.0,0.0,0.0,0.0,0.0,0.0,0.0,0.0,0.0,0.0,0.0,0.0,0.0,0.0,0.0,0.0,0.0,0.0,-4.8015,-4.8102,-4.8102,-4.8818,-4.9407,-4.9574,-5.0161,-5.0618,-5.0765,-5.1096,-5.1316,-5.1316,-5.2344,-5.3004,-5.3004,-5.3775,-5.4436,-5.4876,-5.4913,-5.5133,-5.5596,-5.5941,-5.6088,-5.6088,-5.6418,-5.6602,-5.6602,-5.6602,-5.6602,-5.6602,-5.6602,-5.6418,-5.6088,-5.6088,-5.5904,-5.5456,0.0,0.0,0.0,0.0,-5.042,-4.9679,-3.2413,-3.2382,-3.2382,-3.2382,-3.2444,-3.2721,-3.3429,-3.4137,-3.4844,-3.5429,-3.543,-3.5152,-3.4443,-3.4932,-3.5609,-3.635,-3.8196,-4.0221,-4.232,-4.3966,-4.466,-4.4215,-4.4242,-4.432,-4.4414,-4.4414,-4.4734,-4.5397,-4.5397,-4.5397,-4.5397,-4.5397,-4.5397,-4.5397,-4.5397,-4.5044,-4.4414,-4.4414,-4.4069,-4.3448,-4.3345,-4.2861,-4.2068,-4.1309,-4.0963,-4.0894,-4.0791,-4.0722,-4.0549,-3.9802,0.0,0.0,0.0,0.0,0.0,0.0,0.0,0.0,0.0,0.0,0.0,0.0,0.0,0.0,0.0,0.0,0.0,0.0,0.0,0.0,0.0,0.0,0.0,0.0,-4.8598,-4.9647,-4.9721,-5.0435,-5.0618,-4.9831,-5.1079,-5.172,-5.0986,-5.1756,-5.227,-5.227,-5.3665,-5.4546,-5.4546,0.0,0.0,0.0,0.0,-5.5757,-5.589,-5.6565,-5.6932,-5.6932,-5.7666,-5.7997,-5.7997,-5.7997,-5.7997,-5.7997,-5.7997,-5.7593,-5.6932,-5.6932,-5.6447,-5.5697,-5.4894,-5.4306,-5.3602,-5.1865,-5.0686,-4.9983,-3.2505,-3.2382,-3.2382,-3.2382,-3.2844,-3.346,-3.4197,-3.4874,-3.5367,-3.546,-3.5028,-3.4443,-3.3675,-3.4704,-3.5943,-3.7091,-3.9007,-4.1097,-4.3267,-4.4483,-4.5081,-4.4997,-4.5077,-4.5164,-4.519,-4.519,-4.5259,-4.5397,-4.5397,-4.5397,-4.5397,-4.5397,-4.5397,-4.5397,-4.5397,-4.5328,-4.519,-4.519,-4.5087,-4.4914,-4.432,-4.3655,-4.2896,-4.2102,-4.1412,-4.0825,-4.017,-3.9526,-3.9008,-3.8893,-3.8698,-3.8537,-3.84,-3.8239,0.0,0.0,0.0,0.0,0.0,0.0,0.0,0.0,0.0,0.0,0.0,0.0,0.0,0.0,0.0,0.0,0.0,0.0,0.0,-4.9131,-4.937,-4.9831,-5.0472,-5.1242,-5.1463,-5.0655,-5.1426,-5.194,-5.1756,-5.3078,-5.3922,-5.3922,-5.4803,-5.5354,-5.5354,-5.5522,-5.5904,-5.6565,-5.6565,-5.6895,-5.7519,-5.7703,-5.7776,-5.7776,0.0,0.0,-5.7997,-5.7997,-5.7997,-5.7997,-5.7997,-5.7923,-5.7776,-5.7776,-5.7397,-5.6635,-5.4784,-5.3736,-5.3162,-5.228,-5.1787,-5.1562,-3.3583,-3.2875,-3.2505,-3.2844,-3.3183,-3.3767,-3.4844,-3.5306,-3.5521,-3.5521,-3.4936,-3.4382,-3.3983,-3.4887,-3.6276,-3.8298,-4.0934,-4.3002,-4.4272,-4.4844,-4.515,-4.5283,-4.5371,-4.5397,-4.5397,-4.5397,-4.5397,-4.5397,-4.5397,-4.5397,-4.5397,-4.5397,-4.5397,-4.5397,-4.5397,-4.5397,-4.5397,-4.5397,-4.5397,-4.5363,-4.501,-4.463,-4.4182,-4.3034,-4.2378,-4.1999,-4.1619,-4.0963,-4.0273,-3.9894,-3.9457,-3.9077,-3.872,-3.8594,-3.8663,0.0,0.0,0.0,0.0,0.0,0.0,0.0,0.0,0.0,0.0,0.0,0.0,0.0,0.0,-4.7789,0.0,0.0,-5.0068,-4.9684,-5.0271,-5.0912,-5.1353,-5.1756,-5.183,-5.1463,-5.2454,-5.3188,-5.3188,-5.4289,-5.4987,-5.4987,-5.5757,-5.6198,-5.6198,-5.6565,-5.6969,-5.7373,-5.7409,-5.7593,-5.7997,-5.7997,-5.7997,-5.7997,-5.7997,-5.7997,-5.7997,-5.7997,-5.7997,-5.7997,-5.7997,-5.7997,-5.7997,-5.7997,-5.7821,-5.7425,-5.6035,-5.4732,-5.3612,-5.33,-5.2735,-5.2096,-3.4813,-3.3704,-3.2967,-3.3521,-3.3706,-3.4198,-3.5337,-3.5614,-3.5675,-3.5521,-3.4936,-3.4443,-3.432,-3.524,-3.7079,-4.0004,-4.2822,-4.4609,-4.4995,-4.5015,-4.5157,-4.5397,-4.5397,-4.5397,-4.5397,-4.5397,-4.5397,-4.5397,-4.5397,-4.5397,-4.5397,-4.5397,-4.5397,-4.5397,-4.5397,-4.5397,-4.5397,-4.5397,-4.5397,-4.5397,-4.5397,-4.5397,-4.5259,-4.4078,-4.3552,-4.3379,-4.3241,-4.2792,-4.2137,-4.155,-4.0929,-4.0284,-3.9687,-3.9491,-3.9618,-4.0204,-4.0341,0.0,0.0,0.0,0.0,0.0,0.0,0.0,0.0,0.0,-4.6908,-4.8976,-4.8468,-4.8012,-4.9353,-5.0251,-5.0582,-4.9941,-5.1022,-5.1977,-5.1977,-5.227,-5.2454,-5.2454,-5.3592,-5.4473,-5.462,-5.5354,-5.5831,-5.5831,-5.6565,-5.7042,-5.7042,-5.7666,-5.7997,-5.7997,-5.7997,-5.7997,-5.7997,-5.7997,-5.7997,-5.7997,-5.7997,-5.7997,-5.7997,-5.7997,-5.7997,-5.7997,-5.7997,-5.7997,-5.7997,-5.7997,-5.7997,-5.795,-5.7474,-5.6247,-5.4726,-5.4506,-5.3748,-5.2753,-3.5398,-3.4782,-3.4289,-3.4382,-3.4874,-3.5337,-3.5491,-3.6014,-3.6168,-3.5583,-3.4936,-3.4258,-3.3583,-3.5775,-3.8841,-4.2723,-4.3573,-4.4202,-4.4934,-4.5096,-4.523,-4.5397,-4.5397,-4.5397,-4.5397,-4.5397,-4.5397,-4.5397,-4.5397,-4.5397,-4.5397,-4.5397,-4.5397,-4.5397,-4.5397,-4.5397,-4.5397,-4.5397,-4.5397,-4.5397,-4.5397,-4.5397,-4.5363,-4.5225,-4.4768,-4.4104,-4.3448,-4.3138,-4.3034,-4.2965,-4.2896,-4.2792,-4.2723,-4.2689,-4.2689,-4.2792,-4.2792,-4.2901,-4.3336,-4.4631,-4.5807,-4.558,-4.6649,-4.7948,0.0,0.0,-4.8323,-4.937,-4.9444,-4.939,-4.9574,-5.0251,-5.0765,-5.0692,-5.1426,-5.1977,-5.1977,-5.3225,-5.4142,-5.4142,-5.4289,-5.4693,-5.539,-5.6198,-5.6675,-5.6675,-5.7409,-5.7886,-5.7886,-5.796,-5.7997,-5.7997,-5.7997,-5.7997,-5.7997,-5.7997,-5.7997,-5.7997,-5.7997,-5.7997,-5.7997,-5.7997,-5.7997,-5.7997,-5.7997,-5.7997,-5.7997,-5.7997,-5.7997,-5.7997,-5.7927,-5.7425,-5.6665,-5.5631,-5.5044,-5.4704,-3.6076,-3.5861,-3.5645,-3.5645,-3.5553,-3.5614,-3.6014,-3.6322,-3.6261,-3.5614,-3.5275,-3.4813,-3.4135,-3.646,-3.923,-4.2108,-4.3116,-4.3968,-4.4831,-4.5022,-4.5123,-4.5291,-4.5371,-4.5397,-4.5397,-4.5397,-4.5397,-4.5397,-4.5397,-4.5397,-4.5397,-4.5397,-4.5397,-4.5397,-4.5397,-4.5397,-4.5397,-4.5397,-4.5397,-4.5397,-4.5397,-4.5397,-4.5397,-4.5397,-4.519,-4.4906,-4.4596,-4.4182,0.0,-4.3828,-4.3552,-4.3207,-4.3207,-4.3207,-4.3276,-4.3724,-4.4019,-4.4504,-4.5717,-4.6917,0.0,0.0,-4.851,-4.9074,-4.9224,-4.8776,-4.8563,-4.9427,-4.9574,-4.9701,-5.0178,-5.0949,-5.1499,0.0,-5.216,-5.2858,-5.3335,-5.3995,-5.4766,-5.5684,-5.5794,-5.5941,-5.6271,-5.7042,-5.7483,-5.7483,-5.7813,-5.7997,-5.7997,-5.7997,-5.7997,-5.7997,-5.7997,-5.7997,-5.7997,-5.7997,-5.7997,-5.7997,-5.7997,-5.7997,-5.7997,-5.7997,-5.7997,-5.7997,-5.7997,-5.7997,-5.7997,-5.7997,-5.7997,-5.7997,-5.7997,-5.7844,-5.7474,-5.6357,-5.5601,-5.5009,-3.6538,-3.6507,-3.6507,-3.6507,-3.6076,-3.5922,-3.6415,-3.6507,-3.6322,-3.583,-3.5614,-3.5337,-3.4844,-3.6843,-3.8964,-4.0789,-4.2339,-4.3617,-4.4519,-4.4824,-4.5103,-4.523,-4.5344,-4.5397,-4.5397,-4.5397,-4.5397,-4.5397,-4.5397,-4.5397,-4.5397,-4.5397,-4.5397,-4.5397,-4.5397,-4.5397,-4.5397,-4.5397,-4.5397,-4.5397,-4.5397,-4.5397,-4.5397,-4.5397,-4.5397,-4.5397,-4.5397,-4.5079,-4.4596,-4.4596,-4.4251,-4.3828,-4.3828,-4.3894,-4.4193,-4.4921,-4.547,-4.6212,-4.7832,0.0,0.0,-4.9418,-4.961,-4.961,-4.961,-4.9114,-4.8893,-4.9757,-4.9721,-4.9848,-5.0912,-5.161,-5.205,-5.227,-5.3004,-5.3739,-5.4326,-5.4766,-5.55,-5.6675,-5.7005,-5.7152,-5.7152,-5.7666,-5.7997,-5.7997,-5.7997,-5.7997,-5.7997,-5.7997,-5.7997,-5.7997,-5.7997,-5.7997,-5.7997,-5.7997,-5.7997,-5.7997,-5.7997,-5.7997,-5.7997,-5.7997,-5.7997,-5.7997,-5.7997,-5.7997,-5.7997,-5.7997,-5.7997,-5.7997,-5.7997,-5.7997,-5.7867,-5.6887,-5.6019,-5.5243,-3.663,-3.6507,-3.6507,-3.6507,-3.6476,-3.6476,-3.6507,-3.6507,-3.6476,-3.6476,-3.5891,-3.5491,-3.5491,-3.6692,-3.8058,-3.9439,-4.137,-4.2953,-4.3968,-4.4625,-4.513,-4.5371,-4.5397,-4.5397,-4.5397,-4.5397,-4.5397,-4.5397,-4.5397,-4.5397,-4.5397,-4.5397,-4.5397,-4.5397,-4.5397,-4.5397,-4.5397,-4.5397,-4.5397,-4.5397,-4.5397,-4.5397,-4.5397,-4.5397,-4.5397,-4.5397,-4.5397,-4.5397,-4.5363,-4.5363,-4.5363,-4.5328,-4.5328,-4.5683,-4.6274,-4.7071,-4.7652,-4.8279,-4.9603,0.0,-4.797,-4.9292,-4.961,-4.961,-4.961,-4.9574,-4.9794,-5.0618,-5.0141,-5.0088,-5.1646,-5.1977,-5.227,-5.3041,-5.3849,-5.4363,-5.4399,-5.5757,-5.6748,-5.6785,-5.7483,-5.796,0.0,-5.7997,-5.7997,-5.7997,-5.7997,-5.7997,-5.7997,-5.7997,-5.7997,-5.7997,-5.7997,-5.7997,-5.7997,-5.7997,-5.7997,-5.7997,-5.7997,-5.7997,-5.7997,-5.7997,-5.7997,-5.7997,-5.7997,-5.7997,-5.7997,-5.7997,-5.7997,-5.7997,-5.7997,-5.7997,-5.7927,-5.729,-5.6616,-5.5844,-3.7307,-3.7153,-3.703,-3.6569,-3.6507,-3.6507,-3.6507,-3.6507,-3.6507,-3.6507,-3.5922,0.0,0.0,0.0,0.0,0.0,-4.0607,-4.2067,-4.2941,-4.4242,-4.5049,-4.513,-4.5318,-4.5397,-4.5397,-4.5397,-4.5397,-4.5397,-4.5397,-4.5397,-4.5397,-4.5397,-4.5397,-4.5397,-4.5397,-4.5397,-4.5397,-4.5397,-4.5397,-4.5397,-4.5397,-4.5397,-4.5397,-4.5397,-4.5397,-4.5397,0.0,-4.5397,-4.5397,-4.5397,-4.5397,-4.5397,-4.5397,-4.5874,-4.6561,-4.7156,-4.7477,-4.7689,-4.8265,-4.8409,-4.8587,-4.9382,-4.961,-4.9757,-5.0251,-4.9978,-4.9831,-5.0618,-5.1022,-5.1373,-5.1903,-5.2454,-5.2894,-5.3188,-5.3885,-5.4583,-5.5097,-5.6124,-5.7005,-5.7519,-5.785,0.0,0.0,0.0,0.0,-5.7997,-5.7997,-5.7997,-5.7997,-5.7997,-5.7997,-5.7997,-5.7997,-5.7997,-5.7997,-5.7997,-5.7997,-5.7997,-5.7997,-5.7997,-5.7997,-5.7997,-5.7997,-5.7997,-5.7997,-5.7997,-5.7997,-5.7997,-5.7997,-5.7997,-5.7997,-5.7997,-5.7973,-5.7774,-5.7266,-5.6563,-3.7984,-3.7861,-3.7646,-3.6969,-3.6846,0.0,0.0,0.0,0.0,0.0,0.0,0.0,0.0,0.0,0.0,0.0,0.0,-4.1573,-4.2854,-4.3962,-4.4714,-4.4995,-4.5184,-4.5291,-4.5344,-4.5344,-4.5371,-4.5397,-4.5397,-4.5397,-4.5397,-4.5397,-4.5397,-4.5397,-4.5397,-4.5397,-4.5397,-4.5397,-4.5707,-4.6155,-4.5604,-4.5742,-4.6155,-4.5604,-4.5397,0.0,-4.5344,-4.5371,-4.5397,-4.5397,-4.5397,-4.5397,-4.5397,-4.6073,-4.7047,-4.7992,-4.8045,-4.795,-4.8575,-4.8675,-4.8774,-4.9421,-4.961,-4.9757,-5.0251,-5.0178,-5.0251,-5.1059,-5.1646,-5.2087,-5.238,-5.2858,-5.3277,-5.3592,-5.4289,-5.5097,-5.5904,-5.6712,-5.7409,-5.7923,-5.7997,-5.7997,0.0,0.0,0.0,-5.7997,-5.7997,-5.7997,-5.7997,-5.7997,-5.7997,-5.7997,-5.7997,-5.7997,-5.7997,-5.7997,-5.7997,-5.7997,-5.7997,-5.7997,-5.7997,-5.7997,-5.7997,-5.7997,-5.7997,-5.7997,-5.7997,-5.7997,-5.7997,-5.7997,-5.7997,-5.7997,-5.7997,-5.7997,-5.775,-5.7216,-3.8692,-3.8569,-3.8354,0.0,0.0,0.0,0.0,0.0,0.0,0.0,0.0,0.0,0.0,0.0,0.0,0.0,0.0,0.0,-4.3606,-4.3823,-4.4202,-4.4968,-4.5022,-4.5042,-4.5177,-4.5203,-4.5291,-4.5397,-4.5397,-4.5397,-4.5397,-4.5397,-4.5397,-4.5397,-4.5397,-4.5397,-4.5397,-4.5397,-4.6224,-4.7431,-4.5983,-4.6259,-4.7396,-4.5949,-4.5397,-4.5397,-4.5264,-4.5283,-4.5397,-4.5397,-4.5432,-4.5466,-4.55,0.0,0.0,0.0,0.0,-4.901,-5.0273,-4.9478,-4.847,-4.937,-4.961,-4.961,-4.9721,-5.0288,-5.1096,-5.1903,-5.205,-5.227,0.0,0.0,-5.3445,-5.4216,-5.506,-5.5868,-5.6638,-5.7483,-5.7997,0.0,0.0,0.0,0.0,0.0,0.0,-5.7997,0.0,-5.7997,-5.7997,-5.7997,-5.7997,-5.7997,-5.7997,-5.7997,-5.7997,-5.7997,-5.7997,-5.7997,-5.7997,-5.7997,-5.7997,-5.7997,-5.7997,-5.7997,-5.7997,-5.7997,-5.7997,-5.7997,-5.7997,-5.7997,-5.7997,-5.7997,-5.7997,-5.7997,-5.7997,-5.7797,0.0,0.0,0.0,0.0,0.0,0.0,0.0,0.0,0.0,0.0,0.0,0.0,0.0,0.0,0.0,0.0,0.0,0.0,-4.2783,-4.39,-4.4665,-4.4831,-4.4968,-4.5042,-4.5177,-4.5203,-4.5291,-4.5397,-4.5397,-4.5397,-4.5397,-4.5397,-4.5397,-4.5397,-4.5397,-4.5397,-4.5397,-4.5397,-4.5638,-4.5949,-4.5569,-4.5638,-4.5949,-4.5535,-4.5397,-4.5397,-4.5371,-4.5371,-4.5397,-4.5257,0.0,0.0,0.0,0.0,-4.7777,0.0,0.0,-4.7773,-4.8272,-4.8104,-4.8077,-4.9275,-4.961,-4.9904,-5.1116,-5.1536,-5.1903,-5.2747,-5.2894,-5.2968,0.0,0.0,0.0,-5.3482,-5.4693,0.0,-5.5868,-5.7116,0.0,-5.7997,0.0,-5.7997,-5.7997,-5.7997,0.0,0.0,-5.7997,-5.7997,-5.7997,-5.7997,-5.7997,-5.7997,-5.7997,-5.7997,-5.7997,-5.7997,-5.7997,-5.7997,-5.7997,-5.7997,-5.7997,-5.7997,-5.7997,-5.7997,-5.7997,-5.7997,-5.7997,-5.7997,-5.7997,-5.7997,-5.7997,-5.7997,-5.7997,-5.7997,-5.7997,-5.7881,0.0,0.0,0.0,0.0,0.0,0.0,0.0,0.0,0.0,0.0,0.0,0.0,0.0,0.0,0.0,0.0,0.0,0.0,0.0,-4.391,-4.4378,-4.4692,-4.4776,-4.4886,-4.5022,-4.5069,-4.5177,-4.5318,-4.5318,-4.5344,-4.5397,-4.5344,-4.5344,-4.5397,-4.5397,-4.5397,-4.5397,-4.5397,-4.5776,0.0,0.0,-4.5811,-4.6328,-4.5638,-4.5397,-4.5397,-4.5344,-4.5318,-4.5352,0.0,0.0,-4.6734,-4.7493,-4.7465,-4.7395,-4.8199,0.0,-4.6916,-4.7464,-4.7844,-4.8369,-4.9345,-5.0124,-5.0896,-5.1793,-5.227,-5.2637,-5.3115,-5.3203,0.0,0.0,0.0,0.0,0.0,0.0,0.0,-5.6088,-5.7189,-5.7997,0.0,-5.7997,0.0,-5.7997,-5.7997,-5.7997,0.0,-5.7997,-5.7997,-5.7997,-5.7997,-5.7997,-5.7997,-5.7997,-5.7997,-5.7997,-5.7997,-5.7997,-5.7997,-5.7997,-5.7997,-5.7997,-5.7997,-5.7997,-5.7997,-5.7997,-5.7997,-5.7997,-5.7997,-5.7997,-5.7997,-5.7997,-5.7997,-5.7997,-5.7997,-5.7997,-5.795,0.0,0.0,0.0,0.0,0.0,0.0,0.0,0.0,0.0,-3.8785,-3.8631,-3.8508,-3.8508,-3.9282,0.0,0.0,0.0,0.0,0.0,0.0,-4.3943,-4.4587,-4.4615,-4.4637,-4.4803,-4.4913,-4.5049,-4.5177,-4.5177,-4.523,-4.5371,-4.523,-4.5257,-4.5397,-4.5397,-4.5397,-4.5397,-4.5397,-4.6155,-4.7258,-4.5949,-4.619,-4.7224,0.0,-4.5397,-4.5397,-4.5291,-4.523,-4.5367,-4.6266,-4.6665,-4.6872,-4.75,-4.7286,-4.6946,-4.7954,-4.7292,-4.6387,-4.727,-4.8012,-4.8735,-4.9366,-5.0602,-5.1721,-5.1983,-5.2517,-5.2956,-5.302,0.0,-5.2931,-5.3041,-5.3041,-5.3298,-5.4106,0.0,-5.5721,-5.6528,-5.7336,-5.7886,-5.7997,-5.7997,-5.7997,-5.7997,-5.7997,-5.7997,-5.7997,-5.7997,-5.7997,-5.7997,-5.7997,-5.7997,-5.7997,-5.7997,-5.7997,-5.7997,-5.7997,-5.7997,-5.7997,-5.7997,-5.7997,-5.7997,-5.7997,-5.7997,-5.7997,-5.7997,-5.7997,-5.7997,-5.7997,-5.7997,-5.7997,-5.7997,-5.7997,-5.7997,-5.7997,-5.7997,-5.7997,0.0,0.0,0.0,0.0,0.0,0.0,0.0,0.0,0.0,0.0,-3.9216,-3.8508,0.0,0.0,0.0,0.0,0.0,0.0,0.0,0.0,0.0,-4.4615,-4.4615,-4.4637,-4.4803,-4.4831,-4.4913,-4.5015,-4.5015,-4.5096,-4.523,-4.5203,-4.5257,-4.5397,-4.5397,-4.5397,-4.5397,-4.5397,-4.5535,-4.5776,-4.55,-4.5569,-4.5776,-4.55,0.0,0.0,-4.5371,-4.5371,-4.5474,-4.6328,-4.701,-4.7534,-4.7638,-4.7603,-4.7533,-4.7499,-4.6871,-4.6315,-4.6868,-4.7111,-4.7563,-4.8908,-4.9469,-5.016,-5.1923,-5.1905,0.0,0.0,-5.1683,-5.1426,-5.2087,-5.2197,-5.2454,-5.3298,0.0,0.0,0.0,0.0,-5.7262,0.0,0.0,0.0,0.0,0.0,0.0,0.0,-5.7997,-5.7997,-5.7997,-5.7997,-5.7997,-5.7997,-5.7997,-5.7997,-5.7997,-5.7997,-5.7997,-5.7997,-5.7997,-5.7997,-5.7997,-5.7997,-5.7997,-5.7997,-5.7997,0.0,-5.7997,-5.7997,-5.7997,-5.7997,-5.7997,-5.7997,-5.7997,-5.7997,-5.7997,-5.7997,0.0,0.0,0.0,0.0,0.0,0.0,0.0,-4.0505,-4.0505,-4.0505,-4.0228,-4.0089,-4.0089,-4.1529,-4.252,0.0,0.0,0.0,0.0,0.0,0.0,-4.3978,-4.3606,-4.3423,-4.3505,-4.3559,-4.3639,-4.372,0.0,-4.3826,-4.407,-4.3931,-4.4009,-4.4251,-4.4251,-4.4251,-4.4251,-4.4251,-4.4492,-4.4837,-4.4759,-4.5,-4.5397,0.0,0.0,0.0,-4.5318,-4.5585,-4.6121,-4.6832,-4.7341,-4.7672,-4.7672,-4.7672,-4.7589,-4.709,-4.6404,-4.5905,-4.6411,-4.6838,-4.7405,-4.8378,-4.8948,-4.9591,-5.0868,0.0,0.0,0.0,-5.1059,-5.0912,-5.1316,-5.172,0.0,-5.2527,0.0,0.0,0.0,0.0,0.0,0.0,0.0,0.0,0.0,0.0,0.0,-5.7997,-5.7997,-5.7997,-5.7997,-5.7997,-5.7997,-5.7997,-5.7997,-5.7997,-5.7997,-5.7997,-5.7997,-5.7997,-5.7997,-5.7997,-5.7997,-5.7997,-5.7997,-5.7997,-5.7997,-5.7997,-5.7997,-5.7997,-5.7997,-5.7997,-5.7997,-5.7997,-5.7997,-5.7997,-5.7997,-5.7997,0.0,0.0,0.0,0.0,0.0,0.0,0.0,-4.0715,-4.0783,-4.0888,-4.1525,-4.1917,-4.1917,-4.2862,-4.3495,0.0,0.0,0.0,0.0,0.0,0.0,0.0,0.0,0.0,0.0,0.0,0.0,-4.3,-4.2856,0.0,0.0,0.0,0.0,0.0,-4.3034,-4.293,-4.293,-4.2758,-4.3241,0.0,0.0,-4.4492,0.0,0.0,0.0,0.0,0.0,-4.5799,-4.6645,-4.732,-4.7589,-4.7672,-4.7672,-4.7569,-4.732,-4.6535,-4.588,-4.5502,-4.5905,-4.651,-4.7126,-4.7628,-4.8318,-4.9055,-4.9686,-4.9792,0.0,0.0,-5.0398,-5.0325,-5.0508,-5.1059,-5.1573,0.0,-5.3041,-5.4216,0.0,0.0,0.0,0.0,0.0,0.0,0.0,0.0,0.0,-5.7997,-5.7997,-5.7997,-5.7997,-5.7997,-5.7997,-5.7997,-5.7997,-5.7997,-5.7997,-5.7997,-5.7997,-5.7997,-5.7997,-5.7997,-5.7997,-5.7997,-5.7997,-5.7997,-5.7997,-5.7997,-5.7997,-5.7997,-5.7997,-5.7997,-5.7997,-5.7997,-5.7997,-5.7997,-5.7997,-5.7997,0.0,0.0,0.0,0.0,0.0,0.0,0.0,-4.1393,-4.1624,-4.2237,-4.2892,-4.3317,-4.3317,-4.3406,-4.3495,0.0,0.0,0.0,0.0,0.0,0.0,0.0,0.0,0.0,0.0,0.0,0.0,-4.4599,-4.4026,0.0,0.0,0.0,0.0,0.0,0.0,-4.2137,-4.2068,-4.1412,0.0,0.0,0.0,0.0,0.0,0.0,0.0,0.0,0.0,-4.5799,-4.6467,0.0,0.0,-4.7672,-4.7672,-4.7251,-4.6535,-4.5742,0.0,0.0,-4.5476,-4.5511,-4.5779,-4.6523,-4.7091,-4.7798,-4.8984,0.0,0.0,-4.9585,-4.9077,-4.8783,-4.9574,-4.9757,-5.0308,-5.1756,-5.2123,-5.2747,-5.4289,0.0,0.0,0.0,0.0,0.0,0.0,0.0,0.0,-5.7997,-5.7997,-5.7997,-5.7997,-5.7997,-5.7997,-5.7997,-5.7997,-5.7997,-5.7997,-5.7997,-5.7997,-5.7997,-5.7997,-5.7997,-5.7997,-5.7997,-5.7997,-5.7997,-5.7997,-5.7997,0.0,-5.7997,-5.7997,-5.7997,-5.7997,-5.7997,-5.7997,-5.7997,-5.7997,-5.7997,0.0,0.0,0.0,0.0,0.0,0.0,-4.1459,-4.1492,-4.1754,-4.2426,-4.3075,-4.3495,-4.3495,-4.3914,-4.4179,-4.4179,0.0,0.0,0.0,0.0,0.0,0.0,0.0,0.0,0.0,0.0,-4.3583,-4.3583,-4.3363,0.0,0.0,0.0,0.0,0.0,0.0,-4.2723,-4.2689,-4.2413,0.0,0.0,0.0,0.0,0.0,0.0,0.0,0.0,0.0,0.0,-4.7065,0.0,0.0,0.0,-4.7672,-4.6845,0.0,0.0,-4.5397,-4.5476,-4.5803,-4.5879,-4.6025,-4.6629,-4.6918,-4.7299,-4.8066,0.0,-4.8187,-4.8705,-4.8526,-4.8416,-4.8746,-4.9243,-4.9978,-5.1096,-5.1683,-5.2564,-5.4179,-5.5097,0.0,0.0,0.0,0.0,0.0,0.0,0.0,-5.7997,-5.7997,-5.7997,-5.7997,-5.7997,-5.7997,-5.7997,-5.7997,-5.7997,-5.7997,-5.7997,-5.7997,-5.7997,-5.7997,-5.7997,-5.7997,-5.7997,-5.7997,-5.7997,-5.7997,-5.7997,0.0,-5.7997,-5.7997,-5.7997,-5.7997,-5.7997,-5.7997,-5.7997,-5.7997,-5.7997,0.0,0.0,0.0,0.0,0.0,-4.2299,-4.2719,-4.2591,-4.2686,-4.3342,-4.3661,-4.3856,-4.3856,-4.4293,-4.4615,-4.4671,-4.4643,0.0,0.0,0.0,0.0,0.0,0.0,0.0,0.0,0.0,-4.3502,-4.3502,-4.3348,-4.3263,0.0,0.0,-4.3106,-4.3172,0.0,0.0,0.0,0.0,0.0,0.0,0.0,0.0,0.0,0.0,0.0,0.0,0.0,0.0,0.0,0.0,0.0,0.0,-4.7644,-4.6611,-4.5397,-4.5397,-4.5397,-4.5502,-4.5854,-4.598,-4.607,-4.6578,-4.6812,-4.7004,0.0,0.0,-4.7915,-4.8248,-4.8306,-4.8306,-4.8306,-4.8783,-4.9554,-5.0618,-5.1279,-5.2197,-5.3812,-5.495,-5.5794,0.0,0.0,0.0,0.0,0.0,-5.7997,-5.7997,-5.7997,-5.7997,-5.7997,-5.7997,-5.7997,-5.7997,-5.7997,-5.7997,-5.7997,-5.7997,-5.7997,-5.7997,-5.7997,-5.7997,-5.7997,-5.7997,-5.7997,-5.7997,-5.7997,-5.7997,0.0,-5.7997,-5.7997,-5.7997,-5.7997,-5.7997,-5.7997,-5.7997,-5.7997,-5.7997,0.0,0.0,0.0,0.0,0.0,0.0,-4.5553,-4.5119,-4.49,-4.5554,-4.5026,-4.4587,-4.4587,-4.4615,-4.4637,-4.4776,-4.4699,0.0,0.0,0.0,0.0,0.0,0.0,0.0,0.0,0.0,-4.5203,-4.5203,-4.4578,-4.4311,-4.4276,-4.3552,-4.3207,-4.3172,0.0,0.0,0.0,0.0,0.0,0.0,0.0,0.0,0.0,0.0,0.0,0.0,0.0,0.0,0.0,0.0,0.0,0.0,0.0,-4.6529,-4.5397,-4.5397,-4.5397,-4.5397,-4.5397,-4.5397,-4.5554,-4.608,-4.6554,-4.7004,0.0,0.0,-4.8287,-4.8306,-4.8306,-4.8306,-4.8306,-4.8306,-4.8857,-5.0545,-5.0802,-5.1389,-5.2983,-5.4583,0.0,0.0,0.0,0.0,0.0,0.0,-5.7997,-5.7997,-5.7997,0.0,-5.7997,-5.7997,-5.7997,-5.7997,-5.7997,-5.7997,-5.7997,-5.7997,-5.7997,-5.7997,-5.7997,-5.7997,-5.7997,-5.7997,-5.7997,-5.7997,-5.7997,-5.7997,0.0,-5.7997,-5.7997,-5.7997,-5.7997,-5.7997,-5.7997,-5.7997,-5.7997,-5.7997,0.0,0.0,0.0,0.0,0.0,0.0,0.0,-4.5611,-4.5693,-4.6359,-4.6244,-4.5964,-4.5541,-4.5473,-4.5354,-4.4975,-4.4803,0.0,0.0,0.0,0.0,0.0,0.0,0.0,0.0,-4.5291,-4.5344,-4.5344,-4.5156,-4.5044,-4.5044,-4.4837,-4.4699,-4.4699,-4.4458,-4.4294,0.0,0.0,0.0,0.0,0.0,0.0,0.0,0.0,0.0,0.0,0.0,0.0,0.0,0.0,0.0,0.0,0.0,0.0,0.0,-4.6069,-4.5955,-4.607,-4.6753,-4.69,-4.7013,-4.7506,-4.7752,-4.7895,-4.8035,-4.8173,-4.8306,-4.8306,-4.8306,-4.8306,-4.8306,-4.8306,-4.8857,-5.0545,-5.0802,-5.1353,-5.2947,0.0,0.0,0.0,0.0,0.0,0.0,0.0,-5.7997,-5.7997,-5.7997,-5.7997,-5.7997,-5.7997,-5.7997,-5.7997,-5.7997,-5.7997,-5.7997,-5.7997,-5.7997,-5.7997,-5.7997,-5.7997,-5.7997,-5.7997,-5.7997,-5.7997,-5.7997,-5.7997,-5.7997,-5.7997,-5.7997,-5.7997,-5.7997,-5.7997,-5.7997,-5.7997,-5.7997,-5.7997,0.0,0.0,0.0,0.0,0.0,0.0,0.0,-4.675,-4.6636,-4.6849,-4.6636,-4.622,-4.5614,-4.5574,-4.5425,-4.5111,-4.5022,0.0,0.0,0.0,0.0,0.0,0.0,0.0,-4.5291,-4.5371,-4.5397,-4.5397,-4.5397,-4.5259,-4.4975,-4.4975,-4.4975,-4.4975,-4.4975,-4.5147,0.0,0.0,0.0,0.0,0.0,0.0,-4.5344,0.0,0.0,0.0,0.0,0.0,0.0,0.0,0.0,0.0,0.0,0.0,0.0,0.0,-4.6814,-4.6822,-4.7226,-4.7335,-4.7442,-4.7935,-4.8035,-4.8075,-4.8267,-4.8306,-4.8306,-4.8306,-4.8306,-4.8306,-4.8306,-4.8563,-4.9224,-5.0582,-5.1059,-5.1793,-5.3445,0.0,0.0,-5.6418,0.0,0.0,0.0,-5.7997,-5.7997,-5.7997,-5.7997,-5.7997,-5.7997,-5.7997,-5.7997,-5.7997,-5.7997,-5.7997,-5.7997,-5.7997,-5.7997,-5.7997,-5.7997,-5.7997,-5.7997,-5.7997,-5.7997,-5.7997,-5.7997,-5.7997,0.0,-5.7997,-5.7997,-5.7997,-5.7997,-5.7997,-5.7997,-5.7997,-5.7997,-5.7997,0.0,0.0,0.0,0.0,0.0,0.0,0.0,-4.8443,-4.7763,-4.716,-4.6481,-4.5818,-4.5166,-4.5091,-4.5111,-4.5203,0.0,0.0,0.0,0.0,0.0,0.0,0.0,0.0,-4.5466,-4.55,-4.55,-4.5569,-4.5569,-4.5216,-4.4552,-4.4552,-4.4552,-4.4552,-4.4483,-4.4803,0.0,0.0,0.0,0.0,-4.619,-4.5998,0.0,0.0,0.0,0.0,0.0,0.0,0.0,0.0,0.0,0.0,0.0,0.0,0.0,0.0,0.0,0.0,0.0,-4.6981,-4.7093,-4.7548,-4.7653,-4.7756,-4.8209,-4.8306,0.0,-4.8306,-4.8306,-4.8306,-4.8306,-4.9003,-4.9867,-5.0655,-5.1463,-5.2564,0.0,-5.5133,0.0,0.0,-5.7997,0.0,-5.7997,-5.7997,-5.7997,-5.7997,-5.7997,-5.7997,-5.7997,-5.7997,-5.7997,-5.7997,-5.7997,-5.7997,-5.7997,-5.7997,-5.7997,-5.7997,-5.7997,-5.7997,-5.7997,-5.7997,-5.7997,0.0,-5.7997,-5.7997,-5.7997,-5.7997,-5.7997,-5.7997,-5.7997,-5.7997,-5.7997,-5.7997,-5.7997,-5.7997,0.0,0.0,0.0,0.0,0.0,0.0,0.0,0.0,0.0,0.0,-4.7645,-4.7151,-4.5958,-4.5932,-4.5829,0.0,0.0,0.0,0.0,0.0,0.0,0.0,0.0,0.0,-4.632,-4.632,-4.6569,-4.7155,-4.7155,-4.7079,-4.6906,-4.6906,-4.6906,-4.6872,-4.632,-4.5803,0.0,0.0,0.0,0.0,-4.5604,-4.5569,0.0,0.0,0.0,0.0,-4.523,-4.5421,0.0,0.0,0.0,0.0,0.0,0.0,0.0,0.0,-4.7876,-4.8032,-4.7975,0.0,-4.7995,-4.8094,-4.8151,-4.8153,0.0,-4.8306,-4.8306,-4.8306,-4.8306,-4.8306,-4.8306,-4.9003,-4.9867,-5.0655,-5.1463,-5.2564,-5.4179,0.0,0.0,-5.7886,-5.7997,-5.7997,-5.7997,-5.7997,-5.7997,-5.7997,-5.7997,-5.7997,-5.7997,-5.7997,-5.7997,-5.7997,-5.7997,-5.7997,-5.7997,-5.7997,-5.7997,-5.7997,-5.7997,-5.7997,-5.7997,-5.7997,-5.7997,-5.7997,-5.7997,-5.7997,-5.7997,-5.7997,-5.7997,-5.7997,-5.7997,-5.7997,-5.7997,-5.7997,-5.7997,-5.7997,0.0,0.0,0.0,0.0,0.0,0.0,0.0,0.0,0.0,0.0,0.0,-4.6708,-4.5685,-4.5631,0.0,0.0,0.0,0.0,0.0,0.0,0.0,0.0,0.0,-4.6155,-4.6596,-4.6596,-4.6803,-4.7217,-4.681,-4.6493,-4.6148,-4.6148,-4.632,-4.6638,-4.6631,-4.6389,0.0,0.0,0.0,-4.5432,-4.5776,0.0,0.0,0.0,0.0,0.0,-4.5318,-4.5344,0.0,-4.5765,-4.5964,-4.614,0.0,0.0,0.0,0.0,-4.8021,-4.8229,-4.8287,-4.8306,-4.8306,-4.8306,-4.8306,-4.8306,-4.8306,-4.8306,-4.8306,-4.8306,-4.8636,-4.8893,-4.8893,-4.9884,-5.0859,-5.1279,-5.2344,0.0,0.0,0.0,-5.7519,-5.796,-5.7997,-5.7997,0.0,-5.7997,-5.7997,-5.7997,-5.7997,-5.7997,-5.7997,-5.7997,-5.7997,-5.7997,-5.7997,-5.7997,-5.7997,-5.7997,-5.7997,-5.7997,-5.7997,-5.7997,-5.7997,-5.7997,-5.7997,-5.7997,-5.7997,-5.7997,-5.7997,-5.7997,-5.7997,-5.7997,-5.7997,-5.7997,-5.7997,-5.7997,-5.7997,-5.7997,0.0,0.0,0.0,0.0,0.0,0.0,0.0,0.0,0.0,0.0,0.0,0.0,0.0,0.0,0.0,0.0,0.0,0.0,0.0,0.0,0.0,0.0,-4.6224,-4.6665,-4.6769,-4.6769,-4.6769,-4.6769,-4.6086,-4.5423,-4.4829,-4.4829,-4.5147,-4.5776,-4.6328,-4.6596,-4.6596,0.0,-4.6017,-4.5466,-4.6121,0.0,0.0,0.0,0.0,0.0,0.0,0.0,0.0,-4.5371,-4.5328,-4.5389,-4.6289,0.0,0.0,0.0,0.0,0.0,-4.8306,-4.8306,-4.8306,-4.8306,-4.8306,-4.8306,-4.8306,-4.8306,-4.8343,-4.8489,-4.9077,-4.9647,-4.9757,-5.1006,-5.205,-5.216,0.0,0.0,-5.6602,-5.7483,-5.7997,-5.7997,-5.7997,0.0,-5.7997,-5.7997,-5.7997,-5.7997,-5.7997,-5.7997,-5.7997,-5.7997,-5.7997,-5.7997,-5.7997,-5.7997,-5.7997,-5.7997,-5.7997,-5.7997,-5.7997,-5.7997,-5.7997,-5.7997,-5.7997,-5.7997,-5.7997,0.0,-5.7997,-5.7997,-5.7997,-5.7997,-5.7997,-5.7997,-5.7997,-5.7997,-5.7997,-5.7997,0.0,0.0,0.0,0.0,0.0,0.0,0.0,0.0,0.0,0.0,0.0,0.0,0.0,0.0,0.0,0.0,0.0,0.0,0.0,0.0,0.0,-4.6389,-4.6527,-4.6906,-4.7527,-4.7534,-4.7534,-4.7534,-4.7396,-4.7293,-4.7182,-4.7182,-4.7251,-4.7327,-4.6837,-4.6596,-4.6562,-4.588,-4.55,-4.5397,-4.5535,0.0,0.0,0.0,0.0,0.0,0.0,0.0,0.0,-4.5291,-4.4897,-4.4699,-4.5885,0.0,0.0,0.0,0.0,0.0,-4.8306,-4.8306,-4.8306,-4.8306,-4.8306,-4.8306,-4.8306,-4.8306,-4.8526,-4.9243,-4.95,-4.9831,-5.0472,-5.1353,-5.2197,-5.2931,0.0,-5.6528,0.0,0.0,-5.7997,-5.7997,0.0,-5.7997,-5.7997,-5.7997,-5.7997,-5.7997,-5.7997,-5.7997,-5.7997,-5.7997,-5.7997,-5.7997,-5.7997,-5.7997,-5.7997,-5.7997,-5.7997,-5.7997,-5.7997,-5.7997,-5.7997,-5.7997,-5.7997,-5.7997,0.0,-5.7997,-5.7997,-5.7997,-5.7997,-5.7997,-5.7997,-5.7997,-5.7997,-5.7997,-5.7997,-5.7997,0.0,0.0,0.0,0.0,0.0,0.0,0.0,0.0,0.0,0.0,0.0,0.0,0.0,0.0,0.0,0.0,0.0,0.0,0.0,0.0,-4.5949,-4.7121,-4.6837,-4.6975,-4.7672,-4.7293,-4.7113,-4.7113,-4.6672,-4.6466,-4.6466,-4.6879,-4.732,-4.7672,-4.6941,-4.6837,-4.7113,-4.5914,-4.5397,-4.5397,0.0,0.0,0.0,0.0,0.0,0.0,0.0,0.0,0.0,0.0,-4.4854,-4.444,-4.5458,0.0,0.0,0.0,0.0,0.0,-4.8306,-4.8306,-4.8306,-4.8306,-4.8306,-4.8416,-4.8893,-4.9003,-4.9224,-5.0068,-5.0582,-5.1132,-5.194,-5.2747,-5.3702,-5.495,0.0,-5.6969,-5.7409,-5.7776,-5.7997,0.0,0.0,-5.7997,-5.7997,-5.7997,-5.7997,-5.7997,-5.7997,-5.7997,-5.7997,-5.7997,-5.7997,-5.7997,-5.7997,-5.7997,-5.7997,-5.7997,-5.7997,-5.7997,-5.7997,-5.7997,-5.7997,-5.7997,-5.7997,-5.7997,0.0,-5.7997,-5.7997,-5.7997,-5.7997,-5.7997,-5.7997,-5.7997,-5.7997,-5.7997,-5.7997,-5.7997,0.0,0.0,0.0,0.0,0.0,0.0,0.0,0.0,0.0,0.0,0.0,0.0,0.0,0.0,0.0,0.0,0.0,0.0,0.0,0.0,-4.6293,-4.7638,-4.701,-4.6975,-4.7672,-4.6975,-4.6527,-4.632,-4.5707,-4.5397,-4.5397,-4.6017,-4.6837,-4.7672,-4.6941,-4.701,-4.7603,-4.6259,-4.5569,-4.5397,0.0,0.0,0.0,0.0,0.0,0.0,0.0,0.0,0.0,0.0,0.0,0.0,0.0,0.0,0.0,-4.674,-4.7632,-4.8306,-4.8306,-4.8306,-4.8343,-4.8563,-4.86,-4.8783,-4.9427,-4.9721,-5.0105,-5.0912,-5.172,-5.2527,-5.3335,-5.4289,0.0,-5.6602,-5.6969,-5.7299,-5.7923,-5.7997,-5.7997,-5.7997,-5.7997,-5.7997,-5.7997,-5.7997,-5.7997,-5.7997,-5.7997,-5.7997,-5.7997,-5.7997,-5.7997,-5.7997,-5.7997,-5.7997,-5.7997,-5.7997,-5.7997,-5.7997,-5.7997,-5.7997,-5.7997,-5.7997,-5.7997,-5.7997,-5.7997,-5.7997,-5.7997,-5.7997,-5.7997,-5.7997,-5.7997,-5.7997,-5.7997,-5.7997,-5.7997,-5.7997,0.0,0.0,0.0,0.0,0.0,0.0,0.0,0.0,0.0,0.0,0.0,0.0,0.0,0.0,0.0,0.0,0.0,0.0,0.0,0.0,-4.6872,-4.7672,-4.701,-4.6975,-4.7672,-4.6975,-4.6224,-4.55,-4.5432,-4.5397,-4.5397,-4.5466,-4.6259,-4.7672,-4.6941,-4.701,-4.7638,-4.6872,-4.6086,-4.5397,-4.5397,0.0,0.0,0.0,0.0,0.0,0.0,0.0,0.0,0.0,0.0,0.0,0.0,0.0,-4.5058,-4.6973,-4.7915,-4.8306,-4.8306,-4.8306,-4.8489,-4.9317,-4.95,-4.95,-4.9517,-5.0141,-5.0949,-5.1756,-5.2564,-5.3371,-5.4179,-5.5574,-5.6675,-5.6785,-5.7446,-5.7923,-5.7997,0.0,-5.7997,-5.7997,-5.7997,-5.7997,-5.7997,-5.7997,-5.7997,-5.7997,-5.7997,-5.7997,-5.7997,-5.7997,-5.7997,-5.7997,-5.7997,-5.7997,-5.7997,-5.7997,-5.7997,-5.7997,-5.7997,-5.7997,-5.7997,-5.7997,-5.7997,-5.7997,-5.7997,-5.7997,-5.7997,-5.7997,-5.7997,-5.7997,-5.7997,-5.7997,-5.7997,-5.7997,-5.7997,-5.7997,0.0,0.0,0.0,0.0,0.0,0.0,0.0,0.0,0.0,0.0,0.0,0.0,0.0,0.0,0.0,0.0,0.0,0.0,0.0,-4.5906,-4.6734,-4.701,-4.6769,-4.6975,-4.7672,-4.6466,-4.5707,-4.5397,-4.5397,-4.5397,-4.5397,-4.5397,-4.6224,-4.7672,-4.6941,-4.6769,-4.701,-4.6734,-4.5872,-4.4768,-4.5225,-4.5397,0.0,0.0,0.0,0.0,0.0,0.0,0.0,0.0,-4.5172,-4.4523,-4.5804,-4.6018,-4.6013,-4.7244,-4.7935,-4.8306,-4.8306,-4.871,-4.9206,-4.9537,-5.0729,-5.1683,-5.1169,-5.1683,-5.2527,-5.3335,-5.4142,-5.495,-5.5757,-5.6785,-5.7556,-5.7556,-5.7813,-5.7997,-5.7997,-5.7997,-5.7997,-5.7997,-5.7997,-5.7997,-5.7997,-5.7997,-5.7997,-5.7997,-5.7997,-5.7997,-5.7997,-5.7997,-5.7997,-5.7997,-5.7997,-5.7997,-5.7997,-5.7997,-5.7997,-5.7997,-5.7997,-5.7997,-5.7997,-5.7997,-5.7997,-5.7997,-5.7997,-5.7997,-5.7997,-5.7997,-5.7997,-5.7997,-5.7997,-5.7997,-5.7997,-5.7997,-5.7997,-5.7997,0.0,0.0,0.0,0.0,0.0,0.0,0.0,0.0,0.0,0.0,0.0,0.0,0.0,0.0,0.0,0.0,0.0,0.0,-4.4345,-4.5941,-4.6837,-4.6631,-4.6837,-4.7155,-4.77,-4.619,-4.5397,-4.5397,-4.5397,-4.5397,-4.5397,-4.5397,-4.6224,-4.7672,-4.7182,-4.6837,-4.6631,-4.6872,-4.6012,-4.4599,-4.5337,-4.5752,0.0,0.0,0.0,0.0,0.0,0.0,0.0,0.0,-4.5906,-4.5399,-4.6342,-4.6578,-4.6658,-4.7559,-4.8035,-4.8306,-4.8306,-4.9114,-5.0051,-5.0308,-5.1793,-5.3188,-5.3151,-5.3555,-5.4032,-5.4326,-5.5244,-5.6198,-5.7042,-5.7629,0.0,0.0,-5.7997,-5.7997,-5.7997,-5.7997,-5.7997,-5.7997,-5.7997,-5.7997,-5.7997,-5.7997,-5.7997,-5.7997,-5.7997,-5.7997,-5.7997,-5.7997,-5.7997,-5.7997,-5.7997,-5.7997,-5.7997,-5.7997,-5.7997,-5.7997,-5.7997,-5.7997,-5.7997,-5.7997,-5.7997,-5.7997,-5.7997,-5.7997,-5.7997,-5.7997,-5.7997,-5.7997,-5.7997,-5.7997,-5.7997,-5.7997,-5.7997,-5.7997,0.0,0.0,0.0,0.0,0.0,0.0,0.0,0.0,0.0,0.0,0.0,0.0,0.0,0.0,0.0,0.0,0.0,0.0,-4.4345,-4.6424,-4.7389,-4.6631,-4.7293,-4.7734,-4.7672,-4.619,-4.5397,-4.5397,-4.5397,-4.5397,-4.5397,-4.5397,-4.6224,-4.77,-4.7672,-4.7286,-4.6631,-4.7389,-4.6639,-4.5069,-4.5877,-4.6483,-4.689,0.0,0.0,0.0,0.0,0.0,0.0,0.0,-4.6355,-4.593,-4.7211,-4.7089,-4.6755,-4.7934,-4.8306,-4.8306,-4.8306,-4.9517,-5.0986,-5.1793,-5.2637,-5.3665,-5.5244,-5.5596,-5.5354,-5.4583,-5.5721,-5.7042,-5.785,-5.7997,0.0,-5.7997,-5.7997,-5.7997,-5.7997,-5.7997,-5.7997,-5.7997,-5.7997,-5.7997,-5.7997,-5.7997,-5.7997,-5.7997,-5.7997,-5.7997,-5.7997,-5.7997,-5.7997,-5.7997,-5.7997,-5.7997,-5.7997,-5.7997,-5.7997,-5.7997,-5.7997,-5.7997,-5.7997,-5.7997,-5.7997,-5.7997,-5.7997,-5.7997,-5.7997,-5.7997,-5.7997,-5.7997,-5.7997,-5.7997,-5.7997,-5.7997,-5.7997,-5.7997,0.0,0.0,0.0,0.0,0.0,0.0,0.0,0.0,0.0,0.0,0.0,0.0,0.0,0.0,0.0,0.0,0.0,0.0,-4.3621,-4.6148,-4.7121,-4.5811,-4.75,-4.8224,-4.7707,-4.619,-4.5397,-4.5397,-4.5397,-4.5397,-4.5397,-4.5397,-4.5949,-4.6879,-4.6328,-4.5849,-4.5451,-4.6304,-4.5866,-4.4765,-4.6127,-4.6788,-4.6913,0.0,0.0,0.0,0.0,0.0,0.0,0.0,0.0,0.0,-4.7497,-4.7672,-4.7821,-4.8194,-4.8306,-4.8416,-4.904,-4.9994,-5.1132,-5.2491,-5.3885,-5.4987,-5.5486,-5.5596,-5.5831,-5.6748,-5.7299,-5.7703,-5.796,-5.7997,0.0,-5.7997,-5.7997,-5.7997,-5.7997,-5.7997,-5.7997,-5.7997,-5.7997,-5.7997,-5.7997,-5.7997,-5.7997,-5.7997,-5.7997,-5.7997,-5.7997,-5.7997,-5.7997,-5.7997,-5.7997,-5.7997,-5.7997,-5.7997,-5.7997,-5.7997,-5.7997,-5.7997,-5.7997,-5.7997,-5.7997,-5.7997,-5.7997,-5.7997,-5.7997,-5.7997,-5.7997,-5.7997,-5.7997,-5.7997,-5.7997,-5.7997,-5.7997,-5.7923,0.0,0.0,0.0,0.0,0.0,0.0,0.0,0.0,0.0,0.0,-4.8459,-4.7569,0.0,0.0,0.0,-4.5397,-4.5397,-4.4906,-4.3724,-4.563,-4.65,-4.588,-4.7189,-4.7872,-4.7672,-4.65,-4.588,-4.588,-4.5569,-4.5397,-4.5397,-4.5397,-4.5638,-4.6113,-4.5814,-4.5237,-4.4541,-4.587,-4.5805,-4.4956,-4.6535,-4.7291,-4.7485,0.0,0.0,0.0,0.0,0.0,0.0,0.0,0.0,0.0,-4.7895,-4.8075,-4.8306,-4.8306,-4.8306,-4.8416,-4.893,-5.0141,-5.1573,-5.2873,-5.4399,-5.5706,-5.5978,-5.6088,-5.6418,-5.774,-5.7997,-5.7997,-5.7997,-5.7997,0.0,-5.7997,-5.7997,-5.7997,-5.7997,-5.7997,-5.7997,-5.7997,-5.7997,-5.7997,-5.7997,-5.7997,-5.7997,-5.7997,-5.7997,-5.7997,-5.7997,-5.7997,-5.7997,-5.7997,-5.7997,-5.7997,-5.7997,-5.7997,-5.7997,-5.7997,-5.7997,-5.7997,-5.7997,-5.7997,-5.7997,-5.7997,-5.7997,-5.7997,-5.7997,-5.7997,-5.7997,-5.7997,-5.7997,-5.7997,-5.7997,-5.7997,-5.7813,-5.7446,0.0,0.0,0.0,0.0,0.0,0.0,0.0,0.0,0.0,-4.8879,-4.8086,-4.7327,0.0,0.0,0.0,-4.5397,-4.5397,-4.5113,-4.4345,-4.5079,-4.5776,-4.6458,-4.6493,-4.6776,-4.7465,-4.6837,-4.6458,-4.6389,-4.5707,-4.5397,-4.5397,-4.545,-4.5441,-4.5364,-4.577,-4.5174,-4.3932,-4.5782,-4.609,-4.5461,-4.6985,-4.7862,-4.8306,-4.8306,0.0,0.0,0.0,0.0,0.0,0.0,0.0,0.0,-4.8306,-4.8306,-4.8306,-4.8416,-4.8379,-4.8343,-4.86,-5.0215,-5.2123,-5.3151,-5.462,-5.6014,-5.6748,-5.6932,-5.7116,-5.785,-5.7997,-5.7997,-5.7997,-5.7997,-5.7997,-5.7997,-5.7997,-5.7997,-5.7997,-5.7997,-5.7997,-5.7997,-5.7997,-5.7997,-5.7997,-5.7997,-5.7997,-5.7997,-5.7997,-5.7997,-5.7997,-5.7997,-5.7997,-5.7997,-5.7997,-5.7997,-5.7997,-5.7997,-5.7997,-5.7997,-5.7997,-5.7997,-5.7997,-5.7997,-5.7997,-5.7997,-5.7997,-5.7997,-5.7997,-5.7997,-5.7997,-5.7997,-5.7997,-5.7997,-5.7997,-5.7923,-5.7446,-5.6785,0.0,0.0,0.0,0.0,0.0,0.0,0.0,0.0,-4.8982,-4.881,-4.7638,-4.6803,-4.6631,-4.588,0.0,-4.5397,-4.5397,-4.5113,-4.4345,-4.5561,-4.6121,-4.5673,-4.5638,-4.5742,-4.588,-4.5742,-4.5389,-4.4794,-4.5216,-4.5397,-4.5397,-4.5829,-4.5656,-4.5002,-4.488,-4.4521,-4.3976,-4.4457,-4.5081,-4.5883,-4.6816,-4.766,-4.8306,-4.8306,-4.8306,0.0,0.0,0.0,0.0,0.0,0.0,0.0,-4.8306,-4.8306,-4.8416,-4.9114,-4.882,-4.871,-5.0692,-5.1132,-5.172,-5.4399,-5.6271,-5.7519,-5.7703,-5.774,-5.7776,-5.796,-5.7997,-5.7997,-5.7997,-5.7997,-5.7997,-5.7997,-5.7997,-5.7997,-5.7997,-5.7997,-5.7997,-5.7997,-5.7997,-5.7997,-5.7997,-5.7997,-5.7997,-5.7997,-5.7997,-5.7997,-5.7997,-5.7997,-5.7997,-5.7997,-5.7997,-5.7997,-5.7997,-5.7997,-5.7997,-5.7997,-5.7997,-5.7997,-5.7997,-5.7997,-5.7997,-5.7997,-5.7997,-5.7997,-5.7997,-5.7997,-5.7997,-5.7997,-5.7997,-5.7997,-5.7923,-5.7299,-5.6969,-5.6638,0.0,0.0,0.0,0.0,0.0,0.0,0.0,0.0,-4.8534,-4.7844,-4.7079,-4.6458,-4.6052,-4.5638,0.0,0.0,-4.5397,-4.5225,-4.4837,-4.5251,-4.5458,-4.5397,-4.6121,-4.6427,-4.6283,-4.59,-4.5471,-4.4938,-4.4949,-4.5246,-4.5778,-4.5635,-4.5281,-4.4703,-4.4371,-4.4165,-4.4114,-4.4688,-4.5552,-4.6507,-4.6929,-4.759,-4.8269,-4.7846,-4.7957,-4.8306,-4.8306,0.0,0.0,0.0,0.0,0.0,0.0,0.0,-4.8489,-4.9353,-4.8967,-4.8673,-5.0398,-5.0839,-5.1573,-5.4803,-5.6785,-5.7997,-5.7997,-5.7997,-5.7997,-5.7997,-5.7997,-5.7997,-5.7997,-5.7997,-5.7997,-5.7997,-5.7997,-5.7997,-5.7997,-5.7997,-5.7997,-5.7997,-5.7997,-5.7997,-5.7997,-5.7997,-5.7997,-5.7997,-5.7997,-5.7997,-5.7997,-5.7997,-5.7997,-5.7997,-5.7997,-5.7997,-5.7997,-5.7997,-5.7997,-5.7997,-5.7997,-5.7997,-5.7997,-5.7997,-5.7997,-5.7997,-5.7997,-5.7997,-5.7997,-5.7997,-5.7997,-5.7997,-5.7997,-5.7776,-5.7373,-5.6969,-5.6308,-5.5537,0.0,0.0,0.0,0.0,0.0,0.0,0.0,0.0,0.0,-4.6596,-4.6362,-4.6121,-4.5466,-4.5397,-4.5397,0.0,0.0,0.0,-4.5554,-4.5034,-4.5016,-4.5615,-4.6759,-4.7222,-4.6931,-4.6323,-4.5835,-4.541,-4.4911,-4.5133,-4.6012,-4.5294,-4.4759,-4.4414,-4.4213,-4.4155,-4.4285,-4.5279,-4.625,-4.7113,-4.7113,-4.759,-4.8233,-4.7553,-4.77,-4.8306,-4.8306,-4.8306,-4.8306,-4.8306,0.0,0.0,0.0,0.0,-4.8489,-4.9353,-4.9077,-4.871,-4.9574,-5.0508,-5.1903,-5.4876,-5.6712,-5.7813,-5.796,-5.7997,-5.7997,-5.7997,-5.7997,-5.7997,-5.7997,-5.7997,-5.7997,0.0,0.0,0.0,0.0,0.0,0.0,0.0,0.0,-5.7997,-5.7997,-5.7997,-5.7997,-5.7997,-5.7997,-5.7997,-5.7997,-5.7997,-5.7997,-5.7997,-5.7997,-5.7997,-5.7997,-5.7997,-5.7997,-5.7997,-5.7997,-5.7997,-5.7997,-5.7997,-5.7997,-5.7997,-5.7997,-5.7997,-5.7997,-5.7997,-5.7997,-5.7997,-5.7997,-5.7519,-5.6785,-5.6638,-5.5647,-5.4363,0.0,0.0,0.0,0.0,0.0,0.0,0.0,0.0,0.0,0.0,-4.5569,-4.55,-4.5397,-4.5397,-4.5397,-4.5397,-4.5829,-4.6105,-4.6105,0.0,0.0,-4.6683,-4.6221,-4.5947,-4.5909,-4.5815,-4.5374,-4.4656,-4.5183,-4.5408,-4.5338,-4.523,-4.4766,-4.4088,-4.4436,-4.4619,-4.4637,-4.4783,-4.5718,-4.7113,-4.7113,-4.759,-4.8306,-4.8196,-4.8233,-4.8306,-4.8306,-4.8306,-4.8306,-4.8306,-4.8306,0.0,0.0,0.0,-4.8489,-4.9353,-4.9537,-4.961,-5.0398,-5.1756,-5.3335,-5.5133,-5.6271,-5.7152,-5.785,-5.7997,-5.7997,0.0,-5.7997,-5.7997,0.0,0.0,0.0,0.0,0.0,0.0,0.0,0.0,0.0,0.0,0.0,0.0,0.0,0.0,-5.7997,-5.7997,-5.7997,-5.7997,-5.7997,-5.7997,-5.7997,-5.7997,-5.7997,-5.7997,-5.7997,-5.7997,-5.7997,-5.7997,-5.7997,-5.7997,-5.7997,-5.7997,-5.7997,-5.7997,-5.7997,-5.7997,-5.7997,-5.7997,-5.7997,-5.7997,-5.7997,-5.7519,-5.6712,-5.6014,-5.517,-5.4289,0.0,0.0,0.0,0.0,0.0,0.0,0.0,0.0,0.0,0.0,0.0,-4.5397,-4.5397,-4.5649,-4.5854,-4.5854,-4.6291,-4.6602,-4.6602,-4.6812,-4.689,-4.689,-4.6569,-4.6275,-4.6082,-4.6082,-4.5812,-4.5279,-4.5167,-4.5028,-4.4892,-4.4473,-4.4291,-4.4364,-4.4161,-4.4525,-4.5369,-4.5369,-4.6324,-4.7736,-4.7259,-4.759,-4.8269,-4.7773,-4.7883,-4.8306,-4.8306,-4.8306,-4.8306,-4.8306,-4.8306,-4.8306,-4.8306,0.0,0.0,0.0,-4.9243,-4.915,-5.0435,-5.1977,-5.3482,-5.462,-5.5868,-5.6895,-5.7262,-5.7666,-5.7997,-5.7997,0.0,0.0,0.0,0.0,0.0,0.0,0.0,0.0,0.0,0.0,0.0,0.0,0.0,0.0,0.0,0.0,0.0,0.0,-5.7997,-5.7997,-5.7997,-5.7997,-5.7997,-5.7997,-5.7997,-5.7997,-5.7997,-5.7997,-5.7997,-5.7997,-5.7997,-5.7997,-5.7997,-5.7997,-5.7997,-5.7997,-5.7997,-5.7997,-5.7997,-5.7997,-5.7997,-5.796,-5.7483,-5.6859,-5.6014,-5.5207,-5.4436,-5.3702,0.0,0.0,0.0,0.0,0.0,0.0,0.0,0.0,0.0,0.0,0.0,-4.545,-4.5607,0.0,0.0,0.0,-4.6799,-4.7115,-4.7248,-4.7248,-4.7248,-4.7248,-4.7248,-4.7147,-4.69,-4.6682,-4.6441,-4.6214,-4.5406,-4.4874,-4.4709,-4.4085,-4.4011,-4.4378,-4.3754,-4.4378,-4.5883,-4.5883,-4.6838,-4.8269,-4.7626,-4.7736,-4.8269,-4.7902,-4.8122,-4.8673,-4.8857,-4.893,-4.8893,-4.871,-4.8636,-4.86,-4.8379,-4.8306,0.0,0.0,0.0,-4.871,-5.0582,-5.183,-5.2894,-5.4106,-5.5317,-5.6308,0.0,0.0,-5.774,0.0,0.0,0.0,0.0,0.0,0.0,0.0,0.0,0.0,0.0,0.0,0.0,0.0,0.0,0.0,0.0,0.0,0.0,0.0,-5.7997,-5.7997,-5.7997,-5.7997,-5.7997,-5.7997,-5.7997,-5.7997,-5.7997,-5.7997,-5.7997,-5.7997,-5.7997,-5.7997,-5.7997,-5.7997,-5.7997,-5.7997,-5.7997,-5.7997,-5.7997,-5.7997,-5.7886,-5.7629,-5.7042,-5.6198,-5.5207,-5.462,-5.3885,-5.3203,0.0,0.0,0.0,0.0,0.0,0.0,0.0,0.0,0.0,0.0,0.0,-4.5572,-4.6105,-4.6204,-4.6387,-4.6799,-4.7291,-4.7736,-4.8209,-4.8229,-4.8229,-4.8229,-4.8229,0.0,-4.8194,-4.7461,-4.7057,-4.7039,-4.625,-4.5443,-4.4691,-4.4672,-4.4268,-4.3534,-4.3515,-4.4378,-4.5883,-4.5883,-4.6838,-4.8306,-4.8269,-4.8269,-4.8379,-4.915,-4.95,-4.9647,-5.0398,-5.0655,-5.0545,-4.9794,-4.9537,-4.939,-4.8563,-4.8306,-4.8306,0.0,0.0,0.0,-5.1279,-5.1426,-5.1499,-5.3812,-5.4473,-5.4913,0.0,0.0,0.0,0.0,0.0,0.0,0.0,0.0,0.0,0.0,0.0,0.0,0.0,0.0,0.0,0.0,0.0,0.0,0.0,0.0,0.0,0.0,-5.7997,-5.7997,-5.7997,-5.7997,-5.7997,-5.7997,-5.7997,-5.7997,-5.7997,-5.7997,-5.7997,-5.7997,-5.7997,-5.7997,-5.7997,-5.7997,-5.7997,-5.7997,-5.7997,-5.7997,-5.7997,-5.7997,-5.7556,-5.6859,-5.6822,-5.5831,-5.4473,-5.4436,-5.3885,-5.3203,0.0,0.0,0.0,0.0,0.0,0.0,0.0,0.0,0.0,0.0,0.0,0.0,0.0,-4.673,-4.6944,-4.6593,-4.6557,-4.6577,-4.6746,-4.6287,-4.5975,-4.5975,-4.548,-4.5223,-4.5223,-4.5443,-4.5572,-4.5572,-4.5259,-4.5002,-4.4691,-4.4158,-4.3791,-4.3515,-4.3515,-4.4378,-4.5883,-4.5883,-4.6838,-4.8306,-4.8306,-4.8636,-4.915,-4.95,-4.9941,-5.0398,-5.0692,-5.0802,-5.0765,0.0,0.0,0.0,-4.9224,-4.8746,-4.8306,-4.8306,-4.871,-4.9353,-5.0235,-5.1006,-5.1756,-5.2637,-5.3628,-5.4546,-5.5133,0.0,0.0,0.0,0.0,0.0,0.0,0.0,0.0,0.0,0.0,0.0,0.0,0.0,0.0,0.0,0.0,0.0,0.0,0.0,0.0,0.0,0.0,-5.7997,-5.7997,-5.7997,-5.7997,-5.7997,-5.7997,-5.7997,-5.7997,-5.7997,-5.7997,-5.7997,-5.7997,-5.7997,-5.7997,-5.7997,-5.7997,-5.7997,-5.7997,-5.7997,-5.796,-5.7446,-5.7079,-5.6712,-5.5647,-5.4913,-5.4326,-5.3812,-5.3445,-5.3203,0.0,0.0,0.0,0.0,0.0,0.0,0.0,0.0,-4.6828,-4.5012,0.0,0.0,0.0,0.0,-4.7327,-4.6686,-4.6156,-4.5883,-4.5883,-4.5149,-4.4691,-4.4691,-4.3938,-4.3515,-4.3515,-4.4305,-4.4691,-4.4691,-4.4966,-4.4966,-4.4691,-4.4158,-4.3754,-4.3515,-4.3515,-4.4378,-4.5883,-4.5883,-4.6838,-4.8343,-4.8636,-4.9077,-4.9647,-5.0198,-5.0729,-5.1242,0.0,0.0,0.0,0.0,0.0,0.0,-4.9757,-4.9003,-4.8306,-4.8306,-4.871,-4.9224,-4.9537,-5.0381,-5.1316,-5.1867,-5.2784,-5.3739,-5.4289,0.0,0.0,0.0,0.0,0.0,0.0,0.0,0.0,0.0,0.0,0.0,0.0,0.0,0.0,0.0,0.0,0.0,0.0,0.0,0.0,0.0,0.0,0.0,-5.7997,-5.7997,-5.7997,-5.7997,-5.7997,-5.7997,-5.7997,-5.7997,-5.7997,-5.7997,-5.7997,-5.7997,-5.7997,-5.7997,-5.7997,-5.7997,-5.7997,-5.7997,-5.7923,-5.7152,-5.6638,-5.6271,-5.4913,-5.4216,-5.3922,-5.3387,-5.3203,-5.3203,0.0,0.0,0.0,0.0,0.0,0.0,0.0,0.0,-4.8354,-4.6056,0.0,0.0,0.0,0.0,0.0,-4.7075,-4.6324,-4.581,-4.581,-4.5076,-4.4618,-4.4581,-4.3828,-4.3404,-4.3368,-4.4158,-4.4544,-4.4544,-4.5369,-4.5369,-4.4581,-4.4581,-4.4195,-4.3478,-4.3478,-4.4378,-4.5883,-4.5883,-4.6838,-4.8379,-4.9243,-4.961,-4.9831,-5.141,0.0,0.0,-5.2931,-5.3203,0.0,-5.2307,0.0,0.0,-5.0124,-4.9003,-4.8306,-4.8306,-4.8306,-4.8489,0.0,0.0,0.0,-5.1536,0.0,0.0,-5.3959,0.0,0.0,0.0,0.0,0.0,0.0,0.0,0.0,0.0,0.0,0.0,0.0,0.0,0.0,0.0,0.0,0.0,0.0,0.0,0.0,0.0,-5.7997,-5.7997,-5.7997,-5.7997,-5.7997,-5.7997,-5.7997,-5.7997,-5.7997,-5.7997,-5.7997,-5.7997,-5.7997,-5.7997,-5.7997,-5.7997,-5.7997,-5.7997,-5.796,-5.796,-5.7886,-5.7116,-5.6308,-5.5464,-5.4693,-5.3885,-5.3203,-5.3203,-5.3203,-5.3203,0.0,0.0,0.0,0.0,0.0,-5.0994,-4.9174,-4.9067,-4.8568,0.0,0.0,0.0,-4.7591,-4.6858,-4.634,-4.6232,-4.4966,-4.4158,-4.4158,-4.3424,-4.269,-4.2122,-4.1332,-4.0598,-4.0047,-4.0818,-4.1222,-4.1222,-4.2029,-4.2306,-4.2086,-4.2086,-4.2286,-4.2616,-4.2616,-4.3864,-4.5883,-4.5883,0.0,-4.8379,-4.9243,-4.9958,0.0,0.0,0.0,0.0,0.0,-5.3203,-5.3167,0.0,-5.2491,-5.174,0.0,-4.9003,-4.8306,-4.8306,-4.8306,-4.8343,-4.86,0.0,0.0,0.0,0.0,0.0,0.0,0.0,0.0,0.0,0.0,0.0,0.0,0.0,0.0,0.0,0.0,0.0,0.0,0.0,0.0,0.0,0.0,0.0,0.0,0.0,0.0,0.0,-5.7997,-5.7997,-5.7997,-5.7997,-5.7997,-5.7997,-5.7997,-5.7997,-5.7997,-5.7997,-5.7997,-5.7997,-5.7997,-5.7997,-5.7997,-5.7997,-5.7997,-5.796,-5.7373,-5.7152,-5.7079,-5.6271,-5.5464,-5.4656,-5.3849,-5.3387,-5.3203,-5.3203,-5.3203,-5.3203,0.0,0.0,-5.1922,-5.1922,-5.2126,-5.1726,-5.0123,-4.987,-4.9292,0.0,0.0,0.0,-4.7915,-4.698,-4.6287,-4.592,-4.4745,-4.3864,-4.3515,-4.2763,-4.2103,-4.1625,-4.0524,-3.968,-3.9203,-3.9643,-3.99,-3.99,-4.0708,-4.1095,-4.1095,-4.1095,-4.1552,-4.2286,-4.2286,-4.3644,-4.5883,-4.5883,0.0,0.0,-4.9738,0.0,0.0,-5.2197,-5.2784,0.0,0.0,0.0,-5.3665,-5.3314,-5.2674,0.0,0.0,-4.9517,-4.8783,-4.8416,-4.8306,-4.8306,-4.8306,-4.8673,-4.9114,-4.95,0.0,0.0,0.0,-5.2123,0.0,0.0,0.0,0.0,0.0,0.0,0.0,0.0,0.0,0.0,0.0,0.0,0.0,0.0,0.0,0.0,0.0,-5.7997,-5.7997,-5.7997,-5.7997,-5.7997,-5.7997,-5.7997,-5.7997,-5.7997,-5.7997,-5.7997,-5.7997,-5.7997,-5.7997,-5.7997,-5.7997,-5.7997,-5.7997,-5.7997,-5.7813,-5.7483,-5.7005,-5.6418,-5.5757,-5.528,-5.4803,-5.4326,-5.3518,-5.3203,-5.3203,-5.3203,-5.3203,-5.3203,0.0,0.0,-5.2223,-5.2223,-5.2616,-5.2417,-5.0912,-5.0655,-5.0105,0.0,-4.8306,-4.8306,-4.8306,-4.759,-4.6819,-4.6104,-4.5296,-4.4488,-4.3681,-4.2947,-4.2506,-4.2323,-4.0928,-4.0084,-3.99,-3.99,-3.9863,-3.9753,-4.0487,-4.0838,-4.0838,-4.0912,-4.1405,-4.2176,-4.2249,-4.3644,-4.5883,-4.5883,0.0,-4.9794,-5.0508,-5.1279,0.0,0.0,-5.324,-5.3335,-5.3335,-5.3849,-5.4399,-5.3592,-5.2747,0.0,0.0,0.0,-4.9574,-4.871,-4.8453,-4.8416,-4.8343,-4.8306,-4.8489,-4.926,-4.9463,0.0,-5.0472,-5.1206,0.0,0.0,0.0,0.0,0.0,0.0,0.0,0.0,0.0,0.0,0.0,0.0,0.0,0.0,0.0,0.0,-5.7666,-5.774,-5.774,-5.774,-5.7813,-5.7886,-5.7886,-5.796,-5.7997,-5.7997,-5.7997,-5.7997,-5.7997,-5.7997,-5.7997,-5.7997,-5.7997,-5.7997,-5.7997,-5.7997,-5.7556,-5.6822,-5.6712,-5.5794,-5.4399,-5.4289,-5.4289,-5.4216,-5.3482,-5.3203,-5.3203,-5.3203,-5.3203,-5.3203,-5.0851,-5.1036,-5.1099,-5.1099,-5.1218,-5.0949,-4.9978,-4.9831,-4.9444,-4.8416,-4.8306,-4.8306,-4.8306,-4.759,-4.7039,-4.6892,-4.614,-4.5333,-4.4525,-4.4342,-4.3644,-4.2359,-4.1992,-4.1222,-3.9937,-3.99,-3.957,-3.8946,-3.9093,-3.9166,-3.9203,-3.9827,-4.0561,-4.1352,-4.2029,-4.3644,-4.5883,-4.5883,0.0,-5.0582,-5.0729,0.0,-5.2087,-5.2894,-5.3592,-5.4179,-5.4179,-5.4693,-5.5244,-5.4436,-5.3188,-5.1977,0.0,0.0,0.0,-4.9591,-4.9297,-4.9114,-4.8489,-4.8306,-4.8343,-4.8526,-4.8563,0.0,-4.9647,-4.9978,0.0,0.0,0.0,0.0,0.0,0.0,0.0,0.0,0.0,0.0,0.0,0.0,0.0,0.0,0.0,0.0,-5.6051,-5.6051,-5.6051,-5.6051,-5.6675,-5.7042,-5.7042,-5.7666,-5.7997,-5.7997,-5.7997,-5.7997,-5.7997,-5.7997,-5.7997,-5.7997,-5.7997,-5.7997,-5.7997,-5.7997,-5.7556,-5.6748,-5.6124,-5.528,-5.4363,-5.3702,-5.3424,-5.3445,-5.324,-5.3203,-5.3203,-5.3203,-5.3203,-5.3203,-5.0688,-5.0802,-5.0802,-5.0802,-5.0802,-5.0545,-4.9721,-4.961,-4.928,-4.8416,-4.8306,-4.8306,-4.8306,-4.792,-4.7553,-4.7149,-4.6709,-4.6177,-4.5369,-4.4929,-4.4324,-4.3534,-4.2727,-4.1735,-4.0524,-4.012,-3.9496,-3.8689,-3.8689,-3.8689,-3.8726,-3.9533,-4.0524,-4.1735,-4.2543,-4.4232,-4.6507,-4.6507,-4.8159,-5.0802,-5.0802,0.0,-5.2674,-5.3482,-5.4069,-5.4436,-5.484,-5.5244,-5.5559,-5.5133,-5.4179,0.0,0.0,-5.172,-5.1169,0.0,-4.9574,-4.937,-4.8526,-4.8306,-4.8306,-4.8306,-4.8306,0.0,0.0,0.0,0.0,0.0,0.0,0.0,0.0,0.0,0.0,0.0,0.0,0.0,0.0,0.0,0.0,0.0,0.0,0.0,-5.5537,-5.5596,-5.5596,-5.5596,-5.5978,-5.6198,-5.6198,-5.6565,-5.6969,-5.7409,-5.7409,-5.7593,-5.7997,-5.7997,-5.7997,-5.7997,-5.7997,-5.7997,-5.7997,-5.7593,-5.6969,-5.6161,-5.5354,-5.4546,-5.3775,-5.335,-5.3203,-5.3203,-5.3203,-5.3203,-5.3203,-5.3203,-5.3203,-5.3203,-5.0178,-5.0325,-5.0325,-5.0325,-5.0325,-5.0105,-4.9463,-4.9353,-4.9077,-4.8379,-4.8306,-4.8306,-4.8306,-4.8306,-4.8049,-4.7369,-4.7333,-4.6966,-4.6177,-4.5516,-4.5095,-4.4966,-4.3534,-4.2396,-4.1572,-4.0781,-3.9974,-3.9166,-3.9019,-3.9019,-3.9203,-3.9827,-4.0891,-4.2323,-4.3314,-4.4892,-4.6892,0.0,0.0,-5.0802,0.0,-5.2013,-5.3518,-5.4142,-5.4583,-5.4987,-5.5757,-5.5941,-5.5831,-5.5831,-5.528,-5.4363,-5.2931,-5.2454,0.0,0.0,0.0,0.0,0.0,-4.8416,-4.8306,-4.8306,0.0,-4.8306,0.0,0.0,0.0,0.0,0.0,0.0,0.0,0.0,0.0,0.0,0.0,0.0,0.0,0.0,0.0,0.0,0.0,0.0,0.0,-5.5023,-5.5133,-5.5133,-5.528,-5.5354,-5.5354,-5.5522,-5.5904,-5.6565,-5.6565,-5.6895,-5.7519,-5.7703,-5.7776,-5.7776,-5.7776,-5.7776,-5.774,-5.6932,-5.6124,-5.5317,-5.4693,-5.3959,-5.3203,-5.3203,-5.3203,-5.3203,-5.3203,-5.3203,-5.3203,-5.3203,-5.3124,-5.3039,-4.8563,-4.86,-4.86,-4.86,-4.86,-4.8563,-4.8453,-4.8453,-4.8416,-4.8306,-4.8306,-4.8306,-4.8306,-4.8306,-4.8269,-4.8196,-4.8159,-4.781,-4.7003,-4.6892,-4.6489,-4.5773,-4.4929,-4.4048,-4.324,-4.2433,-4.1625,-4.0838,-4.012,-4.012,-4.0838,-4.0912,-4.1425,-4.2359,-4.3901,-4.5112,-4.614,0.0,-4.9187,0.0,-5.1573,-5.2821,0.0,-5.4363,-5.528,-5.6638,-5.7446,-5.7262,-5.6675,0.0,-5.6124,-5.5317,0.0,-5.4142,-5.3812,-5.2197,0.0,0.0,0.0,0.0,0.0,0.0,-4.8306,0.0,0.0,0.0,-4.7369,-4.7369,0.0,0.0,0.0,0.0,0.0,0.0,0.0,0.0,0.0,0.0,0.0,0.0,0.0,0.0,0.0,0.0,-5.3482,-5.3482,-5.4142,-5.4546,-5.4546,-5.5207,-5.5647,-5.5721,-5.5721,-5.5757,-5.589,-5.6565,-5.6932,-5.6932,-5.6932,-5.6932,-5.6932,-5.6088,-5.528,-5.4509,-5.4436,-5.3959,-5.3203,-5.3203,-5.3203,-5.3203,-5.3203,-5.3203,-5.3203,-5.3203,-5.2908,-5.2477,-4.8306,-4.8306,-4.8306,-4.8306,-4.8306,-4.8306,-4.8306,-4.871,-4.9003,-4.904,-4.9444,-4.9738,-4.9738,-4.9738,-4.9554,-4.9077,0.0,-4.871,0.0,0.0,-4.6966,-4.6599,-4.5388,-4.4305,-4.3515,-4.2727,-4.1919,-4.1095,-4.0781,-4.0781,-4.1095,-4.1572,-4.2249,-4.3057,-4.4672,-4.5847,-4.6709,0.0,-4.9738,0.0,0.0,0.0,0.0,-5.5097,-5.6088,-5.7556,-5.7886,-5.7776,-5.7409,0.0,-5.6602,0.0,0.0,0.0,0.0,0.0,0.0,0.0,0.0,0.0,0.0,0.0,0.0,0.0,-4.8306,0.0,-4.7663,0.0,0.0,0.0,0.0,0.0,0.0,0.0,0.0,0.0,0.0,0.0,0.0,0.0,0.0,0.0,0.0,0.0,0.0,0.0,0.0,-5.3702,-5.3702,-5.4032,-5.4436,-5.4876,-5.4913,-5.5133,-5.5596,-5.5941,-5.6088,-5.6088,-5.6088,-5.6088,-5.6088,-5.528,-5.473,-5.4363,-5.3922,-5.3518,-5.3203,-5.3203,-5.3203,-5.3203,-5.3203,-5.3203,-5.3203,-5.3203,-5.306,-5.2806,-4.8306,-4.8306,-4.8306,-4.8306,-4.8306,-4.8306,-4.8306,-4.9003,-4.9537,-4.961,-5.0288,-5.0802,-5.0802,-5.0802,0.0,0.0,-4.9941,-4.9554,0.0,0.0,-4.7663,-4.7443,-4.6085,-4.5002,-4.4176,-4.3351,-4.258,-4.1772,-4.1535,-4.1535,-4.1772,-4.2139,-4.2727,-4.3588,-4.5186,-4.6214,-4.6892,0.0,-5.0251,-5.0875,-5.1903,-5.3628,-5.5669,-5.611,-5.6969,-5.7997,-5.7997,-5.7997,-5.7923,-5.7336,-5.7152,0.0,-5.55,0.0,0.0,0.0,0.0,0.0,-5.0602,0.0,0.0,0.0,0.0,0.0,0.0,0.0,0.0,0.0,0.0,0.0,0.0,0.0,0.0,0.0,0.0,0.0,0.0,0.0,0.0,0.0,0.0,0.0,0.0,0.0,0.0,0.0,0.0,0.0,-5.3167,-5.3203,-5.3482,-5.4069,-5.4069,-5.4363,-5.495,-5.5133,-5.5244,-5.5244,-5.5244,-5.5244,-5.5244,-5.4436,-5.4069,-5.4032,-5.3445,-5.3203,-5.3203,-5.3203,-5.3203,-5.3203,-5.3203,-5.3203,-5.3203,-5.3203,-5.3017,-5.2717,-4.8306,-4.8306,-4.8306,-4.8306,-4.8306,-4.8306,-4.8306,-4.904,-4.961,-4.961,-5.0288,0.0,0.0,0.0,0.0,0.0,0.0,-5.0398,-4.961,0.0,-4.9114,-4.8306,-4.748,-4.6636,0.0,-4.5039,-4.4232,-4.3441,-4.2653,-4.2653,-4.3404,-4.2653,-4.2727,-4.3588,-4.5186,-4.592,-4.614,-4.9407,-5.0765,-5.0949,-5.2506,-5.4142,-5.578,0.0,-5.796,-5.7997,-5.7997,0.0,0.0,-5.796,-5.796,0.0,0.0,0.0,0.0,0.0,0.0,0.0,0.0,0.0,0.0,-4.9574,0.0,0.0,0.0,0.0,-4.6892,0.0,0.0,0.0,0.0,0.0,-4.4745,-4.4745,0.0,0.0,0.0,0.0,0.0,0.0,0.0,0.0,0.0,0.0,0.0,0.0,0.0,0.0,-5.3188,-5.3203,-5.3203,-5.3261,-5.3261,-5.324,-5.3277,-5.4069,-5.4436,-5.4436,-5.4436,-5.4436,-5.4399,-5.3628,-5.3261,-5.3261,-5.3203,-5.3203,-5.3203,-5.3203,-5.3203,-5.3203,-5.3203,-5.3203,-5.3203,-5.3203,-5.2522,-5.1651,-4.8306,-4.8306,-4.8306,-4.8306,-4.8306,-4.8489,-4.9077,-4.9848,0.0,0.0,0.0,0.0,0.0,-5.2417,-5.216,0.0,0.0,-5.1242,-5.0435,-5.0398,0.0,0.0,0.0,-4.7278,0.0,-4.5112,-4.4305,-4.3515,-4.3204,-4.3204,-4.3515,-4.3204,-4.3258,-4.3588,-4.5186,-4.5883,0.0,0.0,0.0,0.0,0.0,-5.5097,-5.5757,0.0,0.0,-5.7997,-5.7997,-5.7997,0.0,-5.7997,-5.7997,-5.785,-5.7042,-5.6602,-5.6124,-5.4803,-5.3995,-5.3371,0.0,0.0,-5.1079,-5.0508,0.0,0.0,0.0,0.0,0.0,0.0,0.0,0.0,0.0,0.0,-4.3901,-4.3901,-4.4121,0.0,0.0,0.0,0.0,0.0,0.0,0.0,0.0,0.0,0.0,0.0,0.0,0.0,0.0,-5.2417,-5.2637,-5.3167,-5.3203,-5.3203,-5.3203,-5.3482,-5.3628,-5.3628,-5.3628,-5.3628,-5.3592,-5.3314,-5.3203,-5.3203,-5.3203,-5.3203,-5.3203,-5.3203,-5.3203,-5.3203,-5.3203,-5.3203,-5.3182,-5.2806,-5.2431,-5.1994,-4.8306,-4.8306,-4.8306,-4.8306,-4.8563,-4.893,-4.95,0.0,0.0,0.0,-5.2711,0.0,-5.3203,0.0,-5.3004,0.0,-5.2417,-5.2087,-5.1279,-5.1242,0.0,-4.9647,-4.904,0.0,0.0,0.0,-4.4745,-4.3938,-4.3644,-4.3515,-4.3515,-4.3515,-4.3515,-4.3588,-4.5186,-4.5883,-4.6104,-4.9407,-5.0802,0.0,0.0,-5.5596,0.0,0.0,-5.7997,-5.7997,0.0,-5.7997,-5.7997,-5.7997,-5.7997,-5.7923,-5.7409,-5.7042,-5.6602,-5.5574,-5.484,-5.4179,-5.3151,-5.2417,0.0,-5.1353,-5.0618,0.0,-4.9684,0.0,-4.8453,0.0,0.0,0.0,0.0,0.0,0.0,-4.3938,0.0,0.0,0.0,0.0,0.0,0.0,0.0,0.0,0.0,0.0,0.0,0.0,0.0,0.0,0.0,0.0,-5.2234,-5.2747,-5.3078,-5.3203,-5.3203,-5.3203,-5.3203,-5.3203,-5.3203,-5.3203,-5.3203,-5.3203,-5.3203,-5.3203,-5.3203,-5.3203,-5.3203,-5.3203,-5.3203,-5.3203,-5.3203,-5.3203,-5.3161,-5.2627,-5.2173,-5.1676,-4.8325,-4.8325,-4.8325,-4.8379,-4.904,0.0,0.0,0.0,-5.2013,0.0,-5.2747,-5.3203,-5.3203,-5.3203,-5.3203,-5.3203,-5.3203,-5.2894,-5.2087,-5.205,0.0,0.0,-4.9684,-4.8857,-4.7186,0.0,0.0,0.0,-4.3938,-4.3551,-4.3515,-4.3515,-4.3515,-4.3588,-4.5186,0.0,-4.6104,-4.9407,-5.0839,-5.1206,-5.4326,-5.5596,-5.5757,-5.7373,-5.7997,-5.7997,-5.7997,-5.7997,-5.7997,-5.7997,-5.7997,-5.7997,-5.7997,-5.7483,-5.6859,-5.6822,-5.5721,-5.4509,-5.4436,-5.3261,-5.2087,-5.205,-5.1463,0.0,0.0,0.0,-4.9114,0.0,0.0,0.0,0.0,0.0,0.0,0.0,0.0,0.0,0.0,0.0,0.0,0.0,0.0,0.0,0.0,0.0,0.0,0.0,0.0,0.0,0.0,0.0,-5.194,-5.1977,-5.2784,-5.3203,-5.3203,-5.3203,-5.3203,-5.3203,-5.3203,-5.3203,-5.3203,-5.3203,-5.3203,-5.3203,-5.3203,-5.3203,-5.3203,-5.3203,-5.3203,-5.3203,-5.3203,-5.3182,-5.306,-5.2522,-5.1676,-5.064,-4.8658,-4.8658,-4.879,0.0,-4.9463,-4.9794,0.0,0.0,0.0,0.0,-5.3057,-5.3203,-5.3203,-5.3203,-5.3203,-5.3203,-5.3203,0.0,0.0,0.0,0.0,-5.1426,-5.0802,-4.9701,-4.8049,-4.7186,0.0,-4.4691,0.0,-4.4085,-4.3515,-4.3515,-4.3515,-4.3588,-4.5186,-4.5883,-4.6104,-4.9407,-5.1499,-5.2784,-5.4766,-5.5596,0.0,0.0,-5.7997,-5.7997,-5.7997,-5.7997,-5.7997,-5.7997,-5.7997,-5.7997,-5.7997,-5.785,-5.7556,-5.6969,-5.6528,-5.5941,-5.473,-5.4106,-5.3628,-5.3041,-5.2307,-5.1646,0.0,0.0,0.0,0.0,0.0,0.0,0.0,0.0,0.0,0.0,0.0,0.0,0.0,0.0,0.0,0.0,0.0,0.0,0.0,0.0,0.0,0.0,0.0,0.0,0.0,0.0,0.0,-5.1977,-5.2784,-5.3203,-5.3203,-5.3203,-5.3203,-5.3203,-5.3203,-5.3203,-5.3203,-5.3203,-5.3203,-5.3203,-5.3203,-5.3203,-5.3203,-5.3203,-5.3203,-5.3203,-5.3203,-5.2717,-5.197,-5.1848,-5.1035,-4.9942,-4.909,-4.9314,0.0,-4.9751,0.0,0.0,-5.1283,-5.2013,0.0,-5.313,-5.3203,0.0,-5.3203,-5.3203,-5.3203,-5.3203,-5.3203,0.0,-5.3203,0.0,0.0,-5.2013,-5.1573,-5.0545,-4.8893,-4.8049,0.0,-4.5223,0.0,0.0,-4.3515,-4.3515,-4.3681,-4.4085,0.0,-4.6104,-4.6617,-4.9554,-5.194,-5.3849,-5.5097,0.0,0.0,-5.7759,-5.8369,-5.854,-5.854,-5.8319,-5.7997,-5.7997,-5.7997,-5.7997,-5.7997,-5.7997,-5.7923,-5.7446,-5.7079,-5.6602,-5.5721,-5.495,-5.4289,-5.3849,-5.3115,-5.2417,-5.2087,-5.1279,-5.0508,0.0,-4.9077,-4.8196,0.0,0.0,0.0,0.0,0.0,0.0,0.0,0.0,0.0,0.0,0.0,0.0,0.0,0.0,0.0,0.0,0.0,0.0,0.0,0.0,0.0,-5.1463,-5.227,-5.2858,-5.3203,-5.3203,-5.3203,-5.3203,-5.3203,-5.3203,-5.3203,-5.3203,-5.3203,-5.3203,-5.3203,-5.3203,-5.3203,-5.3203,-5.3203,-5.3203,-5.2952,-5.2338,-5.1551,-5.1235,-5.0522,-4.9679,-4.983,0.0,0.0,0.0,0.0,0.0,0.0,-5.2747,0.0,-5.3188,0.0,-5.3261,-5.3335,-5.3393,-5.3408,-5.3518,0.0,-5.3371,-5.3371,-5.324,-5.2894,-5.2197,-5.205,-5.1373,-4.9941,-4.8967,0.0,0.0,0.0,-4.4669,-4.3877,-4.3928,-4.4314,-4.4996,0.0,0.0,0.0,-5.0073,-5.2353,-5.4543,-5.5417,-5.6446,-5.7573,-5.8392,-5.891,-5.9215,-5.9215,-5.875,-5.8142,-5.8142,-5.8142,-5.8142,-5.8142,-5.8142,-5.8142,-5.8142,-5.7663,-5.7052,-5.6934,-5.5845,-5.4742,-5.4458,-5.3885,-5.3151,-5.2344,-5.2087,-5.1793,-5.1096,-5.0325,-4.9721,0.0,0.0,0.0,0.0,0.0,0.0,0.0,0.0,0.0,0.0,0.0,0.0,0.0,0.0,0.0,0.0,0.0,0.0,0.0,0.0,0.0,-5.0618,-5.1536,-5.2344,-5.3041,0.0,-5.3203,-5.3203,-5.3203,-5.3203,-5.3203,-5.3203,-5.3203,-5.3203,-5.3203,-5.3203,-5.3203,-5.3203,-5.3146,-5.3039,-5.2499,-5.1946,-5.1398,-5.0678,-5.0102,-4.9649,-5.1779,0.0,0.0,0.0,0.0,-5.2622,-5.3007,-5.312,-5.3209,-5.3277,-5.323,-5.3466,-5.4197,-5.4328,-5.458,-5.5155,-5.4669,0.0,0.0,0.0,0.0,-5.3004,-5.2344,-5.1867,-5.1593,-5.0124,-4.8857,0.0,0.0,-4.6669,-4.589,-4.6193,-4.639,-4.654,0.0,0.0,-5.0657,-5.1732,0.0,-5.4981,-5.6071,-5.7061,-5.7978,-5.8784,-5.9159,-5.9215,-5.9215,-5.9122,-5.8988,-5.8988,-5.8988,-5.8988,-5.8988,-5.8988,-5.8988,-5.8988,-5.8895,-5.8556,-5.7583,-5.7073,-5.6471,-5.4801,-5.4289,-5.3995,-5.3188,-5.2491,-5.194,-5.183,-5.1132,-5.0398,-4.9721,0.0,0.0,0.0,0.0,0.0,0.0,0.0,0.0,0.0,0.0,0.0,0.0,0.0,0.0,0.0,0.0,0.0,0.0,0.0,0.0,0.0,-5.1206,0.0,0.0,0.0,-5.3203,-5.3203,-5.3203,-5.3203,-5.3203,-5.3203,-5.3203,-5.3203,-5.3203,-5.3203,-5.3203,-5.3203,-5.2952,-5.2477,-5.1946,-5.1398,-5.0857,-5.0285,-4.986,-4.95,-5.2576,0.0,0.0,0.0,0.0,0.0,0.0,-5.3728,-5.3797,-5.3355,-5.3681,-5.4102,-5.4496,-5.4959,-5.5343,-5.5683,-5.5352,-5.4905,-5.4436,-5.4032,-5.3665,-5.3203,-5.2821,0.0,-5.2013,-5.1242,-4.9994,-4.8306,0.0,-4.7607,-4.6397,-4.6742,-4.7131,-4.7567,0.0,-4.9901,0.0,0.0,0.0,-5.594,-5.6478,-5.7612,-5.8971,-5.9369,-5.9622,-5.9826,-5.9826,-5.9826,-5.9777,-5.9343,-5.9215,-5.9215,-5.9215,-5.9215,-5.9215,-5.9215,-5.9215,-5.9009,-5.8226,-5.7715,-5.711,-5.5941,-5.5023,-5.4289,-5.3922,-5.3188,-5.2637,-5.2637,-5.1977,-5.1059,-4.9831,-4.893,0.0,0.0,0.0,0.0,0.0,0.0,0.0,0.0,0.0,0.0,0.0,0.0,0.0,0.0,0.0,0.0,0.0,0.0,0.0,0.0,0.0,0.0,0.0,0.0,0.0,-5.3203,-5.3203,-5.3203,-5.3203,-5.3203,-5.3203,-5.3203,-5.3203,-5.3203,-5.3203,-5.2908,-5.2649,-5.2315,-5.15,-5.1044,-5.0694,-4.9999,-4.9654,-4.9471,0.0,-5.3626,0.0,0.0,-5.3694,0.0,-5.382,-5.4314,-5.4421,-5.3732,-5.4375,-5.4965,-5.517,-5.5723,-5.6166,-5.6366,-5.6116,-5.5683,-5.5037,-5.4648,-5.417,-5.3545,-5.3361,-5.2957,-5.2275,-5.2091,-5.1042,0.0,0.0,0.0,-4.6754,-4.7371,-4.8042,-4.8769,0.0,0.0,0.0,0.0,-5.437,-5.6717,-5.6911,-5.8164,-5.9922,-5.9922,-6.0129,-6.0422,-6.0422,-6.0422,-6.0299,-5.9656,-5.945,-5.945,-5.945,-5.945,-5.945,-5.945,-5.945,-5.9361,-5.887,-5.8246,-5.7604,-5.6956,-5.5868,-5.484,-5.4473,-5.3922,-5.3408,-5.3261,-5.2564,-5.163,-5.0345,-4.9831,0.0,0.0,0.0,0.0,0.0,0.0,0.0,0.0,0.0,0.0,0.0,0.0,0.0,0.0,0.0,0.0,0.0,0.0,0.0,0.0,0.0,-5.1096,-5.172,0.0,-5.3203,-5.3203,-5.3203,-5.3203,-5.3203,-5.3203,-5.3203,-5.3203,-5.3203,-5.3203,-5.3146,-5.2627,-5.2338,-5.215,-5.1166,-5.0721,-5.0564,-4.9854,-4.9594,-4.953,0.0,0.0,0.0,0.0,0.0,0.0,-5.4697,-5.4724,-5.4704,-5.4748,-5.5332,-5.6108,-5.6969,-5.7101,-5.7429,-5.8098,-5.7518,-5.7075,-5.6968,-5.5528,-5.4642,-5.4568,-5.3867,-5.3363,-5.3187,-5.2471,-5.1932,0.0,0.0,-4.9565,-4.7875,-4.9379,-5.0317,-5.0728,0.0,0.0,0.0,-5.3639,-5.5142,-5.6842,-5.7513,-5.8825,-6.0328,-6.0328,-6.0356,-6.0422,-6.0422,-6.0422,-6.0408,-6.0313,-6.0299,-6.0299,-6.0299,-6.0299,-6.0299,-6.0299,-6.0299,-6.0114,-5.9361,-5.9084,-5.8669,-5.7155,-5.6712,-5.6198,-5.473,-5.4326,-5.4069,-5.3371,-5.2564,-5.194,-5.1793,-5.0602,-4.9537,0.0,0.0,0.0,0.0,0.0,0.0,0.0,0.0,0.0,0.0,0.0,0.0,0.0,0.0,0.0,0.0,0.0,0.0,-4.8379,0.0,-5.0839,-5.0912,-5.2454,-5.3203,-5.3203,-5.3203,-5.3203,-5.3203,-5.3203,-5.3203,-5.3203,-5.3203,-5.3203,-5.3146,-5.2627,-5.209,-5.1601,-5.1044,-5.0509,-5.0068,-4.9982,-4.983,-4.9679,0.0,0.0,0.0,0.0,0.0,0.0,0.0,-5.6108,-5.6405,-5.6425,-5.6624,-5.6858,-5.727,-5.7714,-5.8138,-5.8428,-5.8147,-5.7756,-5.7211,-5.6583,-5.5734,-5.4737,-5.4367,-5.3978,-5.342,-5.3088,-5.2642,0.0,0.0,0.0,-5.0341,-5.1199,-5.154,-5.1503,0.0,-5.2906,-5.3225,-5.4166,-5.5715,-5.7483,-5.7805,-5.888,-6.0422,-6.0422,-6.0398,-6.0477,-6.0477,-6.0477,-6.0491,-6.0531,-6.0491,-6.0422,-6.0422,-6.0422,-6.0422,-6.0422,-6.0422,-6.0285,-5.9689,-5.9554,-5.9304,-5.8136,-5.7518,-5.6916,-5.6044,-5.5097,-5.4326,-5.3995,-5.3298,-5.2564,-5.2087,-5.1483,-5.0712,-4.9757,0.0,0.0,0.0,0.0,0.0,0.0,0.0,0.0,0.0,0.0,0.0,0.0,0.0,0.0,0.0,0.0,0.0,-4.8269,0.0,-5.0802,-5.0802,-5.2417,-5.3203,-5.3203,-5.3203,-5.3203,-5.3203,-5.3203,-5.3203,-5.3203,-5.3203,-5.3203,-5.3124,-5.2291,-5.1775,-5.15,-5.0675,-5.0178,-4.9982,-4.986,-4.9767,-4.9679,-5.5199,0.0,-5.4949,0.0,-5.5469,-5.5589,-5.6523,-5.7138,-5.7583,-5.7843,-5.7782,-5.7703,-5.7703,-5.8201,-5.8572,-5.8572,-5.8508,-5.8243,-5.7688,-5.7429,-5.6763,-5.5579,-5.5061,0.0,-5.3947,-5.3669,-5.3222,-5.2495,-5.2931,0.0,-5.1554,-5.1726,-5.1978,-5.2338,-5.3172,-5.361,-5.3868,-5.4776,-5.6168,-5.7766,-5.8154,-5.9163,-6.0477,-6.0477,-6.0504,-6.0506,-6.0506,-6.0506,-6.0558,-6.0559,-6.0558,-6.0477,-6.045,-6.0436,-6.0422,-6.0422,-6.0422,-6.0313,-5.9906,-5.9809,-5.9605,-5.8811,-5.8243,-5.7739,-5.7094,-5.5902,-5.4754,-5.4164,-5.3592,-5.3041,-5.2454,-5.216,-5.161,-5.0492,0.0,0.0,0.0,0.0,0.0,0.0,-4.7223,-4.6966,-4.6654,0.0,0.0,0.0,0.0,0.0,0.0,0.0,0.0,0.0,0.0,0.0,0.0,-5.2417,-5.3203,-5.3203,-5.3203,-5.3203,-5.3203,-5.3203,-5.3203,-5.3203,-5.3203,-5.3203,-5.3103,-5.2018,-5.1601,-5.1475,-5.0397,-5.0011,-4.9982,-4.986,-4.9801,-4.9767,-5.6611,-5.6556,-5.65,-5.6343,-5.6283,-5.6543,-5.736,-5.7509,-5.7806,-5.8586,-5.8698,-5.8698,-5.8698,-5.8698,-5.8677,-5.8677,-5.8677,-5.8677,-5.8677,-5.7955,-5.7509,0.0,0.0,-5.4961,-5.4899,-5.4101,-5.3617,-5.3481,0.0,0.0,-5.0695,-5.0469,-5.1497,-5.3579,-5.3579,-5.3867,-5.4351,-5.5555,-5.6588,-5.7513,-5.8689,-5.9753,-6.0623,-6.0623,-6.0623,-6.0623,-6.0623,-6.0623,-6.0623,-6.0585,-6.0623,-6.061,-6.0506,-6.0439,-6.0422,-6.0422,-6.0422,-6.0313,-5.9906,-5.9809,-5.9605,-5.8811,-5.8872,-5.8878,-5.7685,-5.6766,-5.5606,-5.3603,-5.3203,-5.3203,-5.3188,-5.2527,-5.1977,-5.1977,0.0,0.0,0.0,0.0,0.0,0.0,-4.759,-4.7406,-4.8196,0.0,0.0,0.0,0.0,0.0,0.0,0.0,0.0,-4.8306,-4.9921,0.0,-5.0802,-5.2417,-5.3203,-5.3203,-5.3203,-5.3203,-5.3203,-5.3203,-5.3203,-5.3203,-5.3203,-5.3203,-5.3103,-5.2018,-5.1601,-5.1475,-5.0397,-5.0011,-5.0011,-5.0011,-5.0011,-5.0011,-5.6403,-5.6384,-5.6531,-5.7046,-5.7138,-5.7398,-5.8215,-5.8326,-5.8401,-5.8661,-5.8698,-5.8698,-5.8698,-5.8698,-5.8698,0.0,-5.8698,-5.8698,0.0,-5.8475,-5.8066,-5.7509,-5.6989,-5.6152,-5.4998,-5.4739,-5.4352,-5.3906,0.0,0.0,0.0,-5.3773,-5.404,-5.4427,-5.4718,-5.5216,-5.5907,-5.6273,-5.7267,-5.8592,-5.8994,-5.9687,-6.052,-6.052,-6.0572,-6.066,-6.066,-6.066,-6.066,-6.071,-6.066,-6.0585,-6.0623,-6.0585,-6.0545,-6.0466,-6.0491,-6.0425,-6.0289,-6.0232,-6.0099,-5.9622,-5.9571,-5.9427,-5.8784,-5.7356,-5.5775,-5.4301,-5.3592,-5.3203,-5.3203,-5.3004,-5.2637,-5.2087,-5.1793,0.0,-5.0508,0.0,0.0,0.0,-4.8967,-4.8673,0.0,-4.7829,0.0,0.0,0.0,0.0,0.0,0.0,0.0,0.0,-5.0215,0.0,-5.161,-5.2674,-5.3203,-5.3203,-5.3203,-5.3203,-5.3203,-5.3203,-5.3203,-5.3203,-5.3203,-5.3203,-5.3161,-5.2431,-5.1922,-5.1525,-5.083,-5.0348,-5.0011,-5.0011,-5.0011,-5.0011,-5.7212,-5.7212,-5.736,-5.7881,-5.7955,-5.8141,-5.8624,-5.8698,-5.8698,-5.8698,-5.8698,-5.8698,-5.8698,-5.8698,0.0,-5.8698,-5.8698,-5.8698,-5.8698,-5.8698,-5.8475,-5.7992,-5.7658,-5.7069,-5.6145,-5.5809,0.0,-5.4806,-5.4928,-5.4966,-5.4998,-5.5326,-5.5339,-5.5061,-5.5657,-5.6193,-5.6677,-5.7353,-5.8233,-5.919,-5.9534,-6.0034,-6.0559,-6.0559,-6.0635,-6.0734,-6.0734,-6.0734,-6.0734,-6.0769,-6.0734,-6.0673,-6.071,-6.0697,-6.0648,-6.0546,-6.0558,-6.0558,-6.0558,-6.0531,-6.0384,-6.0015,-5.9984,-5.9877,-5.916,-5.7785,-5.6276,-5.5092,-5.4075,-5.338,-5.338,-5.3293,-5.3041,-5.2527,-5.2454,-5.216,-5.1353,0.0,-5.0949,0.0,0.0,0.0,0.0,-4.926,-4.926,0.0,0.0,0.0,0.0,0.0,0.0,-4.9537,-5.0655,0.0,-5.1977,-5.2821,-5.3203,-5.3203,-5.3203,-5.3203,-5.3203,-5.3203,-5.3203,-5.3203,-5.3203,-5.3203,-5.3124,-5.2408,-5.1897,-5.1525,-5.0776,-5.0291,-5.0011,-5.0011,-5.0011,-5.0011,-5.8739,-5.8719,-5.8698,-5.8698,-5.8698,-5.8698,-5.8698,-5.8698,-5.8698,-5.8698,-5.8698,-5.8698,-5.8698,-5.8698,-5.8698,-5.8698,0.0,0.0,-5.8698,-5.8698,-5.8698,-5.8698,-5.7992,-5.7709,-5.7976,-5.728,-5.6643,-5.6103,-5.5649,-5.5336,-5.523,-5.5529,-5.5641,-5.5631,-5.6496,-5.6879,-5.6971,-5.8604,-5.9319,-5.9473,-6.0278,-6.0623,-6.0697,-6.0697,-6.0734,-6.0781,-6.0781,-6.0781,-6.0781,-6.0781,-6.0781,-6.0781,-6.0781,-6.0781,-6.0757,-6.0623,-6.0623,-6.0623,-6.0623,-6.0585,-6.0506,-6.0038,-6.0246,-6.0207,-5.8965,-5.8008,-5.7074,-5.586,-5.4576,-5.3701,-5.3701,-5.344,-5.3203,-5.3203,-5.3203,-5.2931,-5.2197,-5.2087,-5.1756,0.0,0.0,0.0,0.0,-5.0802,-5.0802,0.0,0.0,0.0,0.0,0.0,-4.9757,-4.9757,-5.1226,-5.2013,-5.2087,-5.2821,-5.3203,-5.3203,-5.3203,-5.3203,-5.3203,-5.3203,-5.3203,-5.3203,-5.3203,-5.3203,-5.3103,-5.2066,-5.1626,-5.15,-5.0453,-5.004,-5.0011,-5.0011,-5.0011,-4.9982,0.0,0.0,-5.8698,-5.8698,-5.8698,-5.8698,-5.8698,-5.8698,-5.8698,-5.8698,-5.8698,-5.8698,-5.8698,-5.8698,-5.8698,-5.8698,-5.8698,-5.8698,-5.8698,-5.8698,-5.8698,-5.8698,-5.8512,-5.8306,-5.8014,-5.7806,-5.7591,-5.7385,-5.748,-5.7527,-5.7428,-5.7527,-5.7527,-5.7467,-5.7683,-5.8131,-5.8732,-5.9128,-5.9664,-6.0316,-6.0508,-6.0623,-6.0697,-6.0697,-6.0734,-6.0781,-6.0781,-6.0781,-6.0781,-6.0781,-6.0781,-6.0781,-6.0781,-6.0781,-6.0769,-6.0685,-6.0673,-6.0673,-6.0673,-6.0623,-6.0572,-6.052,-6.0546,-6.0403,-5.9824,-5.8502,-5.7241,-5.6606,-5.4987,-5.3701,-5.3701,-5.344,-5.3203,-5.3203,-5.3203,-5.3151,-5.2931,-5.2931,-5.2637,0.0,-5.172,-5.1463,-5.0875,-5.0802,-5.0802,0.0,0.0,0.0,0.0,-5.1206,-5.1426,-5.1426,-5.1793,-5.227,-5.2931,-5.3093,-5.3203,-5.3203,-5.3203,-5.3203,-5.3203,-5.3203,-5.3203,-5.3203,-5.3203,-5.3203,-5.3161,-5.2477,-5.1946,-5.1525,-5.0857,-5.0341,-5.0011,-5.0011,-5.0011,-5.0011,-5.9159,-5.8908,-5.8698,-5.8698,-5.8698,-5.8698,-5.8698,-5.8698,-5.8698,-5.8698,-5.8698,-5.8698,-5.8698,-5.8698,-5.8698,-5.8698,-5.8698,-5.8698,-5.8698,-5.8698,-5.8781,-5.8908,-5.8908,-5.8972,-5.9041,-5.9057,-5.8889,-5.8578,-5.8404,-5.8258,-5.8262,-5.8262,-5.82,-5.8141,-5.8561,-5.8971,-5.9369,-5.979,-6.0238,-6.0635,-6.0635,-6.066,-6.0697,-6.0697,-6.0734,-6.0781,-6.0781,-6.0781,-6.0781,-6.0781,-6.0781,-6.0781,-6.0781,-6.0781,-6.0781,-6.0746,-6.0734,-6.0734,-6.0734,-6.071,-6.0685,-6.0685,-6.066,-6.047,-5.9824,-5.8648,-5.7534,-5.6876,-5.539,-5.4207,-5.4207,-5.3925,-5.3641,-5.3481,-5.344,-5.338,-5.3209,-5.3203,-5.3041,-5.2601,-5.2564,-5.238,-5.194,-5.1903,-5.1903,-5.1903,-5.1903,0.0,-5.1903,-5.2307,-5.238,-5.2013,-5.2344,-5.2747,-5.3203,-5.3203,-5.3203,-5.3203,-5.3203,-5.3203,-5.3203,-5.3203,-5.3203,-5.3203,-5.3203,-5.3203,-5.3146,-5.2627,-5.2066,-5.1551,-5.1017,-5.0481,-5.0011,-5.0011,-5.0011,-4.9982,-5.9197,-5.8908,-5.8698,-5.8698,-5.8698,-5.8698,-5.8698,-5.8698,-5.8698,-5.8698,-5.8698,-5.8698,-5.8698,-5.8698,-5.8698,-5.8698,-5.8698,-5.8719,-5.8781,-5.8825,-5.8967,-5.9289,-5.9307,-5.9622,-6.0279,-6.0335,-6.0137,-5.9704,-5.9011,-5.8665,-5.8665,-5.8665,-5.8631,-5.8623,-5.9373,-5.9669,-5.9672,-6.045,-6.0757,-6.071,-6.071,-6.071,-6.071,-6.071,-6.0746,-6.0781,-6.0781,-6.0781,-6.0781,-6.0781,-6.0781,-6.0781,-6.0781,-6.0781,-6.0781,-6.0781,-6.0781,-6.0781,-6.0781,-6.0781,-6.0769,-6.0722,-6.0633,-6.0301,-5.9498,-5.8565,-5.767,-5.6868,-5.5687,-5.4791,-5.4791,-5.4528,-5.4193,-5.3851,-5.3739,-5.3585,-5.3334,-5.3209,-5.3203,-5.3203,-5.3203,-5.3203,-5.3203,-5.3203,-5.3203,-5.3203,-5.3203,-5.3203,-5.3203,-5.3203,-5.2894,-5.2197,-5.2858,-5.3203,-5.3203,-5.3203,-5.3203,-5.3203,-5.3203,-5.3203,-5.3203,-5.3203,-5.3203,-5.3203,-5.3203,-5.3203,-5.3146,-5.2627,-5.2066,-5.1551,-5.1017,-5.0481,-5.0011,-5.0011,-5.0011,-4.9982,-5.914,-5.8908,-5.8698,-5.8698,-5.8698,-5.8698,-5.8698,-5.8698,-5.8698,-5.8698,-5.8698,-5.8698,-5.8698,-5.8698,-5.8698,-5.8698,-5.8698,-5.8805,-5.9103,-5.9432,-5.9639,-5.9689,-5.9727,-5.9884,-6.0293,-6.0572,-6.0669,-6.0589,-6.0473,-6.0396,-6.0396,-6.0396,-6.0396,-6.0385,-6.055,-6.0589,-6.0577,-6.0742,-6.0781,-6.0769,-6.0769,-6.0769,-6.0769,-6.0769,-6.0781,-6.0781,-6.0781,-6.0781,-6.0781,-6.0781,-6.0781,-6.0781,-6.0781,-6.0781,-6.0781,-6.0781,-6.0781,-6.0781,-6.0781,-6.0781,-6.0781,-6.0769,-6.0231,-5.9631,-5.9418,-5.8141,-5.693,-5.6753,-5.5687,-5.4791,-5.4791,-5.4528,-5.4279,-5.421,-5.3925,-5.3682,-5.3624,-5.338,-5.3203,-5.3203,-5.3203,-5.3203,-5.3203,-5.3203,-5.3203,-5.3203,-5.3203,-5.3203,-5.3203,-5.3203,-5.313,-5.3041,-5.3151,-5.3203,-5.3203,-5.3203,-5.3203,-5.3203,-5.3203,-5.3203,-5.3203,-5.3203,-5.3203,-5.3203,-5.3203,-5.3203,-5.3146,-5.2627,-5.2066,-5.1551,-5.1017,-5.0481,-5.0011,-5.0011,-5.0011,-5.0011,-5.945,-5.9064,-5.8698,-5.8698,-5.8698,-5.8698,-5.8698,-5.8698,-5.8698,-5.8698,-5.8698,-5.8698,-5.8698,-5.8698,-5.8698,-5.8698,-5.8865,-5.9045,-5.9197,-5.9379,-5.9656,-6.0061,-6.0076,-6.0237,-6.0559,-6.0722,-6.0781,-6.0781,-6.0781,-6.0781,-6.0781,-6.0781,-6.0781,-6.0781,-6.0781,-6.0781,-6.0781,-6.0781,-6.0781,-6.0781,-6.0781,-6.0781,-6.0781,-6.0781,-6.0781,-6.0781,-6.0781,-6.0781,-6.0781,-6.0781,-6.0781,-6.0781,-6.0781,-6.0781,-6.0781,-6.0781,-6.0781,-6.0781,-6.0781,-6.0781,-6.0704,-6.0204,-5.9758,-5.9184,-5.8277,-5.7388,-5.6625,-5.609,-5.5542,-5.5127,-5.5127,-5.5014,-5.4814,-5.4607,-5.4279,-5.3944,-5.3739,-5.342,-5.3203,-5.3203,-5.3203,-5.3203,-5.3203,-5.3203,-5.3203,-5.3203,-5.3203,-5.3203,-5.3203,-5.3203,-5.3203,-5.3203,-5.3203,-5.3203,-5.3203,-5.3203,-5.3203,-5.3203,-5.3203,-5.3203,-5.3203,-5.3203,-5.3203,-5.3203,-5.3203,-5.3203,-5.3203,-5.2952,-5.2338,-5.1576,-5.1322,-5.0721,-5.0011,-5.0011,-5.0011,-5.0011,-5.9605,-5.9215,-5.8764,-5.8719,-5.8698,-5.8698,-5.8698,-5.8698,-5.8698,-5.8698,-5.8698,-5.8698,-5.8698,-5.8698,-5.8698,-5.8698,-5.8927,-5.914,-5.9343,-5.9343,-5.9639,-6.0279,-6.0362,-6.0533,-6.0781,-6.0781,-6.0781,-6.0781,-6.0781,-6.0781,-6.0781,-6.0781,-6.0781,-6.0781,-6.0781,-6.0781,-6.0781,-6.0781,-6.0781,-6.0781,-6.0781,-6.0781,-6.0781,-6.0781,-6.0781,-6.0781,-6.0781,-6.0781,-6.0781,-6.0781,-6.0781,-6.0781,-6.0781,-6.0781,-6.0781,-6.0781,-6.0781,-6.0781,-6.0781,-6.0666,-6.0319,-5.9665,-5.9169,-5.8519,-5.7178,-5.6635,-5.6243,-5.5555,-5.539,-5.5403,-5.5403,-5.5403,-5.5286,-5.499,-5.4639,-5.4279,-5.3907,-5.3524,-5.3293,-5.3225,-5.3203,-5.3203,-5.3203,-5.3203,-5.3203,-5.3203,-5.3203,-5.3203,-5.3203,-5.3203,-5.3203,-5.3203,-5.3203,-5.3203,-5.3203,-5.3203,-5.3203,-5.3203,-5.3203,-5.3203,-5.3203,-5.3203,-5.3203,-5.3203,-5.3203,-5.3203,-5.3203,-5.3203,-5.2545,-5.1601,-5.1601,-5.0937,-5.0011,-5.0011,-5.0011,-5.0011,-5.9325,-5.9215,-5.9083,-5.876,-5.8698,-5.8698,-5.8698,-5.8698,-5.8698,-5.8698,-5.8698,-5.8698,-5.8698,-5.8698,-5.8698,-5.8698,-5.8719,-5.9043,-5.9727,-5.9777,-5.9937,-6.0279,-6.0585,-6.0769,-6.0781,-6.0781,-6.0781,-6.0781,-6.0781,-6.0781,-6.0781,-6.0781,-6.0781,-6.0781,-6.0781,-6.0781,-6.0781,-6.0781,-6.0781,-6.0781,-6.0781,-6.0781,-6.0781,-6.0781,-6.0781,-6.0781,-6.0781,-6.0781,-6.0781,-6.0781,-6.0781,-6.0781,-6.0781,-6.0781,-6.0781,-6.0781,-6.0781,-6.0781,-6.0781,-6.0204,-5.9588,-5.9511,-5.8319,-5.7104,-5.6863,-5.6175,-5.5552,-5.5428,-5.5403,-5.5403,-5.5403,-5.5403,-5.539,-5.5377,-5.5004,-5.4654,-5.4296,-5.3907,-5.3563,-5.323,-5.3203,-5.3203,-5.3203,-5.3203,-5.3203,-5.3203,-5.3203,-5.3203,-5.3203,-5.3203,-5.3203,-5.3203,-5.3203,-5.3203,-5.3203,-5.3203,-5.3203,-5.3203,-5.3203,-5.3203,-5.3203,-5.3203,-5.3203,-5.3203,-5.3203,-5.3203,-5.3203,-5.3203,-5.2545,-5.1601,-5.1601,-5.0937,-5.0011,-5.0011,-5.0011,-5.0011,-5.9554,-5.9178,-5.8845,-5.8719,-5.8698,-5.8698,-5.8698,-5.8698,-5.8698,-5.8698,-5.8698,-5.8698,-5.8698,-5.8698,-5.8698,-5.8698,-5.8698,-5.8842,-5.9083,-5.9558,-6.0061,-6.0585,-6.0734,-6.0781,-6.0781,-6.0781,-6.0781,-6.0781,-6.0781,-6.0781,-6.0781,-6.0781,-6.0781,-6.0781,-6.0781,-6.0781,-6.0781,-6.0781,-6.0781,-6.0781,-6.0781,-6.0781,-6.0781,-6.0781,-6.0781,-6.0781,-6.0781,-6.0781,-6.0781,-6.0781,-6.0781,-6.0781,-6.0781,-6.0781,-6.0781,-6.0781,-6.0781,-6.0666,-6.0127,-5.9742,-5.9396,-5.8896,-5.7835,-5.679,-5.6122,-5.5717,-5.5439,-5.5416,-5.5403,-5.5403,-5.5403,-5.5403,-5.5403,-5.5403,-5.5071,-5.4685,-5.4347,-5.3962,-5.3583,-5.323,-5.3203,-5.3203,-5.3203,-5.3203,-5.3203,-5.3203,-5.3203,-5.3203,-5.3203,-5.3203,-5.3203,-5.3203,-5.3203,-5.3203,-5.3203,-5.3203,-5.3203,-5.3203,-5.3203,-5.3203,-5.3203,-5.3203,-5.3203,-5.3203,-5.3203,-5.3203,-5.3203,-5.3203,-5.2545,-5.1601,-5.1601,-5.0937,-5.0011,-5.0011,-5.0011,-5.0011,-5.9571,-5.9215,-5.8825,-5.8719,-5.8698,-5.8698,-5.8698,-5.8698,-5.8698,-5.8698,-5.8698,-5.8698,-5.8698,-5.8698,-5.8698,-5.8698,-5.8698,-5.8739,-5.8845,-5.9537,-6.0208,-6.0769,-6.0781,-6.0781,-6.0781,-6.0781,-6.0781,-6.0781,-6.0781,-6.0781,-6.0781,-6.0781,-6.0781,-6.0781,-6.0781,-6.0781,-6.0781,-6.0781,-6.0781,-6.0781,-6.0781,-6.0781,-6.0781,-6.0781,-6.0781,-6.0781,-6.0781,-6.0781,-6.0781,-6.0781,-6.0781,-6.0781,-6.0781,-6.0781,-6.0781,-6.0781,-6.0781,-6.0589,-5.9742,-5.9319,-5.8934,-5.8088,-5.722,-5.6368,-5.5685,-5.5461,-5.5439,-5.5403,-5.5416,-5.5403,-5.5403,-5.5403,-5.5403,-5.5403,-5.5154,-5.4874,-5.4511,-5.4141,-5.3739,-5.34,-5.3251,-5.3203,-5.3203,-5.3203,-5.3203,-5.3203,-5.3203,-5.3203,-5.3203,-5.3203,-5.3203,-5.3203,-5.3203,-5.3203,-5.3203,-5.3203,-5.3203,-5.3203,-5.3203,-5.3203,-5.3203,-5.3203,-5.3203,-5.3203,-5.3203,-5.3203,-5.3203,-5.3203,-5.2545,-5.1601,-5.1601,-5.0937,-5.0011,-5.0011,-5.0011,-5.0011,-5.9289,-5.9215,-5.9084,-5.876,-5.8698,-5.8698,-5.8698,-5.8698,-5.8698,-5.8698,-5.8698,-5.8698,-5.8698,-5.8698,-5.8698,-5.8698,-5.8698,-5.8845,-5.9178,-5.9899,-6.0468,-6.0769,-6.0781,-6.0781,-6.0781,-6.0781,-6.0781,-6.0781,-6.0781,-6.0781,-6.0781,-6.0781,-6.0781,-6.0781,-6.0781,-6.0781,-6.0781,-6.0781,-6.0781,-6.0781,-6.0781,-6.0781,-6.0781,-6.0781,-6.0781,-6.0781,-6.0781,-6.0781,-6.0781,-6.0781,-6.0781,-6.0781,-6.0781,-6.0781,-6.0781,-6.0781,-6.0781,-6.0589,-5.9742,-5.8896,-5.8088,-5.7214,-5.6329,-5.5692,-5.5626,-5.557,-5.5461,-5.5401,-5.5403,-5.5403,-5.5403,-5.5403,-5.5403,-5.5403,-5.5403,-5.526,-5.4836,-5.4511,-5.4158,-5.3758,-5.34,-5.3203,-5.3203,-5.3203,-5.3203,-5.3203,-5.3203,-5.3203,-5.3203,-5.3203,-5.3203,-5.3203,-5.3203,-5.3203,-5.3203,-5.3203,-5.3203,-5.3203,-5.3203,-5.3203,-5.3203,-5.3203,-5.3203,-5.3203,-5.3203,-5.3203,-5.3203,-5.3203,-5.2545,-5.1601,-5.1601,-5.0964,-5.0011,-5.0011,-5.0011,-5.0011,-5.9234,-5.9006,-5.8805,-5.8719,-5.8698,-5.8698,-5.8698,-5.8698,-5.8698,-5.8698,-5.8698,-5.8698,-5.8698,-5.8698,-5.8698,-5.8698,-5.8698,-5.8965,-5.9571,-5.982,-6.0208,-6.0769,-6.0781,-6.0781,-6.0781,-6.0781,-6.0781,-6.0781,-6.0781,-6.0781,-6.0781,-6.0781,-6.0781,-6.0781,-6.0781,-6.0781,-6.0781,-6.0781,-6.0781,-6.0781,-6.0781,-6.0781,-6.0781,-6.0781,-6.0781,-6.0781,-6.0781,-6.0781,-6.0781,-6.0781,-6.0781,-6.0781,-6.0781,-6.0781,-6.0781,-6.0781,-6.0781,-6.0473,-5.905,-5.8473,-5.8088,-5.7214,-5.6329,-5.5692,-5.5626,-5.5566,-5.5558,-5.5413,-5.5402,-5.5415,-5.5403,-5.5403,-5.5403,-5.5403,-5.5403,-5.526,-5.4836,-5.4511,-5.4158,-5.3758,-5.34,-5.3203,-5.3203,-5.3203,-5.3203,-5.3203,-5.3203,-5.3203,-5.3203,-5.3203,-5.3203,-5.3203,-5.3203,-5.3203,-5.3203,-5.3203,-5.3203,-5.3203,-5.3203,-5.3203,-5.3203,-5.3203,-5.3203,-5.3203,-5.3203,-5.3203,-5.3203,-5.3203,-5.2545,-5.1601,-5.1601,-5.1166,-5.0509,-5.012,-5.0235,-5.0509,-5.9006,-5.8825,-5.8698,-5.8698,-5.8698,-5.8698,-5.8698,-5.8698,-5.8698,-5.8698,-5.8698,-5.8698,-5.8698,-5.8698,-5.8698,-5.8698,-5.8805,-5.9159,-5.9777,-5.9937,-6.0237,-6.0769,-6.0781,-6.0781,-6.0781,-6.0781,-6.0781,-6.0781,-6.0781,-6.0781,-6.0781,-6.0781,-6.0781,-6.0781,-6.0781,-6.0781,-6.0781,-6.0781,-6.0781,-6.0781,-6.0781,-6.0781,-6.0781,-6.0781,-6.0781,-6.0781,-6.0781,-6.0781,-6.0781,-6.0781,-6.0781,-6.0781,-6.0781,-6.0781,-6.0781,-6.0781,-6.0781,-6.0435,-5.8781,-5.8319,-5.8011,-5.678,-5.6088,-5.5692,-5.566,-5.5638,-5.5593,-5.5449,-5.5401,-5.5402,-5.5416,-5.5403,-5.5403,-5.5403,-5.5403,-5.5338,-5.5085,-5.4591,-5.421,-5.398,-5.3521,-5.3203,-5.3203,-5.3203,-5.3203,-5.3203,-5.3203,-5.3203,-5.3203,-5.3203,-5.3203,-5.3203,-5.3203,-5.3203,-5.3203,-5.3203,-5.3203,-5.3203,-5.3203,-5.3203,-5.3203,-5.3203,-5.3203,-5.3203,-5.3203,-5.3203,-5.3203,-5.3203,-5.2694,-5.1873,-5.1676,-5.1398,-5.1044,-5.0291,-5.0348,-5.0792,-5.8698,-5.8698,-5.8698,-5.8698,-5.8698,-5.8698,-5.8698,-5.8698,-5.8698,-5.8698,-5.8698,-5.8698,-5.8698,-5.8698,-5.8698,-5.8698,-5.9006,-5.9379,-5.9755,-6.0121,-6.0468,-6.0769,-6.0781,-6.0781,-6.0781,-6.0781,-6.0781,-6.0781,-6.0781,-6.0781,-6.0781,-6.0781,-6.0781,-6.0781,-6.0781,-6.0781,-6.0781,-6.0781,-6.0781,-6.0781,-6.0781,-6.0781,-6.0781,-6.0781,-6.0781,-6.0781,-6.0781,-6.0781,-6.0781,-6.0781,-6.0781,-6.0781,-6.0781,-6.0781,-6.0781,-6.0781,-6.0781,-6.0435,-5.8781,-5.8319,-5.7896,-5.6126,-5.5703,-5.5703,-5.5703,-5.566,-5.5604,-5.5535,-5.5437,-5.5402,-5.5416,-5.5403,-5.5403,-5.5403,-5.5403,-5.5403,-5.5403,-5.4769,-5.4296,-5.4296,-5.3641,-5.3203,-5.3203,-5.3203,-5.3203,-5.3203,-5.3203,-5.3203,-5.3203,-5.3203,-5.3203,-5.3203,-5.3203,-5.3203,-5.3203,-5.3203,-5.3203,-5.3203,-5.3203,-5.3203,-5.3203,-5.3203,-5.3203,-5.3203,-5.3203,-5.3203,-5.3203,-5.3203,-5.2872,-5.2361,-5.1848,-5.1651,-5.1525,-5.0453,-5.0397,-5.0881,-5.8698,-5.8698,-5.8698,-5.8698,-5.8698,-5.8698,-5.8698,-5.8698,-5.8698,-5.8698,-5.8698,-5.8698,-5.8698,-5.8698,-5.8698,-5.8698,-5.9006,-5.9379,-5.9755,-6.0121,-6.0468,-6.0769,-6.0781,-6.0781,-6.0781,-6.0781,-6.0781,-6.0781,-6.0781,-6.0781,-6.0781,-6.0781,-6.0781,-6.0781,-6.0781,-6.0781,-6.0781,-6.0781,-6.0781,-6.0781,-6.0781,-6.0781,-6.0781,-6.0781,-6.0781,-6.0781,-6.0781,-6.0781,-6.0781,-6.0781,-6.0781,-6.0781,-6.0781,-6.0781,-6.0781,-6.0781,-6.0781,-6.0435,-5.8781,-5.8319,-5.7896,-5.6126,-5.5703,-5.5703,-5.5703,-5.5692,-5.566,-5.5508,-5.5473,-5.5463,-5.5416,-5.5403,-5.5403,-5.5403,-5.5403,-5.5403,-5.5403,-5.4769,-5.4296,-5.4296,-5.3641,-5.3203,-5.3203,-5.3203,-5.3203,-5.3203,-5.3203,-5.3203,-5.3203,-5.3203,-5.3203,-5.3203,-5.3203,-5.3203,-5.3203,-5.3203,-5.3203,-5.3203,-5.3203,-5.3203,-5.3203,-5.3203,-5.3203,-5.3203,-5.3203,-5.3203,-5.3203,-5.3203,-5.2872,-5.2384,-5.2268,-5.2244,-5.2126,-5.1044,-5.0964,-5.1483,-5.8698,-5.8698,-5.8698,-5.8698,-5.8698,-5.8698,-5.8698,-5.8698,-5.8698,-5.8698,-5.8698,-5.8698,-5.8698,-5.8698,-5.8698,-5.8698,-5.9197,-5.9571,-5.9793,-6.0265,-6.061,-6.0781,-6.0781,-6.0781,-6.0781,-6.0781,-6.0781,-6.0781,-6.0781,-6.0781,-6.0781,-6.0781,-6.0781,-6.0781,-6.0781,-6.0781,-6.0781,-6.0781,-6.0781,-6.0781,-6.0781,-6.0781,-6.0781,-6.0781,-6.0781,-6.0781,-6.0781,-6.0781,-6.0781,-6.0781,-6.0781,-6.0781,-6.0781,-6.0781,-6.0781,-6.0781,-6.0781,-6.0435,-5.8781,-5.8319,-5.7896,-5.6126,-5.5703,-5.5703,-5.5703,-5.5682,-5.5638,-5.5508,-5.5461,-5.5439,-5.5416,-5.5403,-5.5403,-5.5403,-5.5403,-5.5403,-5.5403,-5.4769,-5.4296,-5.4296,-5.3641,-5.3203,-5.3203,-5.3203,-5.3203,-5.3203,-5.3203,-5.3203,-5.3203,-5.3203,-5.3203,-5.3203,-5.3203,-5.3203,-5.3203,-5.3203,-5.3203,-5.3203,-5.3203,-5.3203,-5.3203,-5.3203,-5.3203,-5.3203,-5.3203,-5.3203,-5.3203,-5.3203,-5.3039,-5.2761,-5.2477,-5.2581,-5.2627,-5.127,-5.1259,-5.1983,-5.8801,-5.8739,-5.8698,-5.8698,-5.876,-5.8781,-5.8698,-5.876,-5.8781,-5.8698,-5.8698,-5.8698,-5.8698,-5.876,-5.8781,-5.8698,-5.9434,-5.9874,-5.9809,-6.0455,-6.0781,-6.0781,-6.0781,-6.0781,-6.0781,-6.0781,-6.0781,-6.0781,-6.0781,-6.0781,-6.0781,-6.0781,-6.0781,-6.0781,-6.0781,-6.0781,-6.0781,-6.0781,-6.0781,-6.0781,-6.0781,-6.0781,-6.0781,-6.0781,-6.0781,-6.0781,-6.0781,-6.0781,-6.0781,-6.0781,-6.0781,-6.0781,-6.0781,-6.0781,-6.0781,-6.0781,-6.0781,-6.0435,-5.8781,-5.8319,-5.7896,-5.6126,-5.5703,-5.5703,-5.5703,-5.566,-5.5566,-5.5547,-5.5437,-5.5402,-5.539,-5.5403,-5.5403,-5.5403,-5.5403,-5.5403,-5.5403,-5.4769,-5.4296,-5.4296,-5.3641,-5.3203,-5.3203,-5.3203,-5.3203,-5.3203,-5.3203,-5.3203,-5.3203,-5.3203,-5.3203,-5.3203,-5.3203,-5.3203,-5.3203,-5.3203,-5.3203,-5.3203,-5.3203,-5.3203,-5.3203,-5.3203,-5.3203,-5.3203,-5.3203,-5.3203,-5.3203,-5.3203,-5.3203,-5.3182,-5.2717,-5.2806,-5.3017,-5.1617,-5.1584,-5.2291,-5.9122,-5.8905,-5.8698,-5.8698,-5.8927,-5.9045,-5.8739,-5.8927,-5.9045,-5.8739,-5.8698,-5.8698,-5.8698,-5.8947,-5.9025,-5.8719,-5.9639,-6.0121,-5.9826,-6.0455,-6.0781,-6.0781,-6.0781,-6.0781,-6.0781,-6.0781,-6.0781,-6.0781,-6.0781,-6.0781,-6.0781,-6.0781,-6.0781,-6.0781,-6.0781,-6.0781,-6.0781,-6.0781,-6.0781,-6.0781,-6.0781,-6.0781,-6.0781,-6.0781,-6.0781,-6.0781,-6.0781,-6.0781,-6.0781,-6.0781,-6.0781,-6.0781,-6.0781,-6.0781,-6.0781,-6.0781,-6.0781,-6.0435,-5.8781,-5.8319,-5.7896,-5.6126,-5.5703,-5.5703,-5.5703,-5.566,-5.5615,-5.5604,-5.5473,-5.5376,-5.5415,-5.5403,-5.5403,-5.5403,-5.5403,-5.5403,-5.5403,-5.4769,-5.4296,-5.4296,-5.3641,-5.3203,-5.3203,-5.3203,-5.3203,-5.3203,-5.3203,-5.3203,-5.3203,-5.3203,-5.3203,-5.3203,-5.3203,-5.3203,-5.3203,-5.3203,-5.3203,-5.3203,-5.3203,-5.3203,-5.3203,-5.3203,-5.3203,-5.3203,-5.3203,-5.3203,-5.3203,-5.3203,-5.3203,-5.3203,-5.3103,-5.3124,-5.3133,-5.2626,-5.234,-5.2291,-5.9537,-5.9434,-5.9326,-5.9326,-5.9432,-5.9485,-5.9344,-5.9432,-5.9467,-5.9344,-5.9326,-5.9234,-5.9006,-5.9103,-5.9234,-5.9308,-5.9915,-6.0237,-6.0106,-6.0533,-6.0781,-6.0781,-6.0781,-6.0781,-6.0781,-6.0781,-6.0781,-6.0781,-6.0781,-6.0781,-6.0781,-6.0781,-6.0781,-6.0781,-6.0781,-6.0781,-6.0781,-6.0781,-6.0781,-6.0781,-6.0781,-6.0781,-6.0781,-6.0781,-6.0781,-6.0781,-6.0781,-6.0781,-6.0781,-6.0781,-6.0781,-6.0781,-6.0781,-6.0781,-6.0781,-6.0781,-6.0781,-6.0435,-5.8781,-5.8319,-5.7896,-5.6126,-5.5703,-5.5703,-5.5703,-5.566,-5.5615,-5.5615,-5.5473,-5.5401,-5.5437,-5.5428,-5.5416,-5.5415,-5.539,-5.5403,-5.5403,-5.4769,-5.4141,-5.3738,-5.3416,-5.3203,-5.3203,-5.3203,-5.3203,-5.3203,-5.3203,-5.3203,-5.3203,-5.3203,-5.3203,-5.3203,-5.3203,-5.3203,-5.3203,-5.3203,-5.3203,-5.3203,-5.3203,-5.3203,-5.3203,-5.3203,-5.3203,-5.3203,-5.3203,-5.3203,-5.3203,-5.3203,-5.3203,-5.3203,-5.3203,-5.3273,-5.3399,-5.3329,-5.3321,-5.3356]},{"header":{"parameterUnit":"m.s-1","parameterCategory":1,"la1":30.6,"la2":28.766,"lo1":-90.7593,"lo2":-88.6598,"dx":0.0162,"dy":0.0183,"nx":116,"ny":114,"refTime":"2022-12-01T06:00:00:Z","depth":0,"parameterNumber":3,"parameterNumberName":"V-component_of_WINDS"},"data":[0.0,0.0,0.0,0.0,0.0,0.0,0.0,0.0,0.0,0.0,0.0,0.0,0.0,0.0,0.0,0.0,0.0,0.0,0.0,0.0,0.0,0.0,0.0,0.0,0.0,0.0,0.0,0.0,0.0,0.0,0.0,0.0,0.0,0.0,0.0,0.0,0.0,0.0,0.0,0.0,0.0,0.0,0.0,0.0,0.0,0.0,0.0,0.0,0.0,0.0,0.0,0.0,0.0,0.0,0.0,0.0,0.0,0.0,0.0,0.0,0.0,0.0,0.0,0.0,0.0,0.0,0.0,0.0,0.0,0.0,0.0,0.0,0.0,0.0,0.0,0.0,0.0,0.0,0.0,0.0,0.0,0.0,0.0,0.0,0.0,0.0,0.0,0.0,0.0,0.0,0.0,0.0,0.0,0.0,0.0,0.0,0.0,0.0,0.0,0.0,0.0,0.0,0.0,0.0,0.0,0.0,0.0,0.0,0.0,0.0,0.0,0.0,0.0,0.0,0.0,0.0,0.0,0.0,0.0,0.0,0.0,0.0,0.0,0.0,0.0,0.0,0.0,0.0,0.0,0.0,0.0,0.0,0.0,0.0,0.0,0.0,0.0,0.0,0.0,0.0,0.0,0.0,0.0,0.0,0.0,0.0,0.0,0.0,0.0,0.0,0.0,0.0,0.0,0.0,0.0,0.0,0.0,0.0,0.0,0.0,0.0,0.0,0.0,0.0,0.0,0.0,0.0,0.0,0.0,0.0,0.0,0.0,0.0,0.0,0.0,0.0,0.0,0.0,0.0,0.0,0.0,0.0,0.0,0.0,0.0,0.0,0.0,0.0,0.0,0.0,0.0,0.0,0.0,0.0,0.0,0.0,0.0,0.0,0.0,0.0,0.0,0.0,0.0,0.0,0.0,0.0,0.0,0.0,0.0,0.0,0.0,0.0,0.0,0.0,0.0,0.0,0.0,0.0,0.0,0.0,0.0,0.0,0.0,0.0,0.0,0.0,0.0,0.0,0.0,0.0,0.0,0.0,0.0,0.0,0.0,0.0,0.0,0.0,0.0,0.0,0.0,0.0,0.0,0.0,0.0,0.0,0.0,0.0,0.0,0.0,0.0,0.0,0.0,0.0,0.0,0.0,0.0,0.0,0.0,0.0,0.0,0.0,0.0,0.0,0.0,0.0,0.0,0.0,0.0,0.0,0.0,0.0,0.0,0.0,0.0,0.0,0.0,0.0,0.0,0.0,0.0,0.0,0.0,0.0,0.0,0.0,0.0,0.0,0.0,0.0,0.0,0.0,0.0,0.0,0.0,0.0,0.0,0.0,0.0,0.0,0.0,0.0,0.0,0.0,0.0,0.0,0.0,0.0,0.0,0.0,0.0,0.0,0.0,0.0,0.0,0.0,0.0,0.0,0.0,0.0,0.0,0.0,0.0,0.0,0.0,0.0,0.0,0.0,0.0,0.0,0.0,0.0,0.0,0.0,0.0,0.0,0.0,0.0,0.0,0.0,0.0,0.0,0.0,0.0,0.0,0.0,0.0,0.0,0.0,0.0,0.0,0.0,0.0,0.0,0.0,0.0,0.0,0.0,0.0,0.0,0.0,0.0,0.0,0.0,0.0,0.0,0.0,0.0,0.0,0.0,0.0,0.0,0.0,0.0,0.0,0.0,0.0,0.0,0.0,0.0,0.0,0.0,0.0,0.0,0.0,0.0,0.0,0.0,0.0,0.0,0.0,0.0,0.0,0.0,0.0,0.0,0.0,0.0,0.0,0.0,0.0,0.0,0.0,0.0,0.0,0.0,0.0,0.0,0.0,0.0,0.0,0.0,0.0,0.0,0.0,0.0,0.0,0.0,0.0,0.0,0.0,0.0,0.0,0.0,0.0,0.0,0.0,0.0,0.0,0.0,0.0,0.0,0.0,0.0,0.0,0.0,0.0,0.0,0.0,0.0,0.0,0.0,0.0,0.0,0.0,0.0,0.0,0.0,0.0,0.0,0.0,0.0,0.0,0.0,0.0,0.0,0.0,0.0,0.0,0.0,0.0,0.0,0.0,0.0,0.0,0.0,0.0,0.0,0.0,0.0,0.0,0.0,0.0,0.0,0.0,0.0,0.0,0.0,0.0,0.0,0.0,0.0,0.0,0.0,0.0,0.0,0.0,0.0,0.0,0.0,0.0,0.0,0.0,0.0,0.0,0.0,0.0,0.0,0.0,0.0,0.0,0.0,0.0,0.0,0.0,0.0,0.0,0.0,0.0,0.0,0.0,0.0,0.0,0.0,0.0,0.0,0.0,0.0,0.0,0.0,0.0,0.0,0.0,0.0,0.0,0.0,0.0,0.0,0.0,0.0,0.0,0.0,0.0,0.0,0.0,0.0,0.0,0.0,0.0,0.0,0.0,0.0,0.0,0.0,0.0,0.0,0.0,0.0,0.0,0.0,0.0,0.0,0.0,0.0,0.0,0.0,0.0,0.0,0.0,0.0,0.0,0.0,0.0,0.0,0.0,0.0,0.0,0.0,0.0,0.0,0.0,0.0,0.0,0.0,0.0,0.0,0.0,0.0,0.0,0.0,0.0,0.0,0.0,0.0,0.0,0.0,0.0,0.0,0.0,0.0,0.0,0.0,0.0,0.0,0.0,0.0,0.0,0.0,0.0,0.0,0.0,0.0,0.0,0.0,0.0,0.0,0.0,0.0,0.0,0.0,0.0,0.0,0.0,0.0,0.0,0.0,0.0,0.0,0.0,0.0,0.0,0.0,0.0,0.0,0.0,0.0,0.0,0.0,0.0,0.0,0.0,0.0,0.0,0.0,0.0,0.0,0.0,0.0,0.0,0.0,0.0,0.0,0.0,0.0,0.0,0.0,0.0,0.0,0.0,0.0,0.0,0.0,0.0,0.0,0.0,0.0,0.0,0.0,0.0,0.0,0.0,0.0,0.0,0.0,0.0,0.0,0.0,0.0,0.0,0.0,0.0,0.0,0.0,0.0,0.0,0.0,0.0,0.0,0.0,0.0,0.0,0.0,0.0,0.0,0.0,0.0,0.0,0.0,0.0,0.0,0.0,0.0,0.0,0.0,0.0,0.0,0.0,0.0,0.0,0.0,0.0,0.0,0.0,0.0,0.0,0.0,0.0,0.0,0.0,0.0,0.0,0.0,0.0,0.0,0.0,0.0,0.0,0.0,0.0,0.0,0.0,0.0,0.0,0.0,0.0,0.0,0.0,0.0,0.0,0.0,0.0,0.0,0.0,0.0,0.0,0.0,0.0,0.0,0.0,0.0,0.0,0.0,0.0,0.0,0.0,0.0,0.0,0.0,0.0,0.0,0.0,0.0,0.0,0.0,0.0,0.0,0.0,0.0,0.0,0.0,0.0,0.0,0.0,0.0,0.0,0.0,0.0,0.0,0.0,0.0,0.0,0.0,0.0,0.0,0.0,0.0,0.0,0.0,0.0,0.0,0.0,0.0,0.0,0.0,0.0,0.0,0.0,0.0,0.0,0.0,0.0,0.0,0.0,0.0,0.0,0.0,0.0,0.0,0.0,0.0,0.0,0.0,0.0,0.0,0.0,0.0,0.0,0.0,0.0,0.0,0.0,0.0,0.0,0.0,0.0,0.0,0.0,0.0,0.0,0.0,0.0,0.0,0.0,0.0,0.0,0.0,0.0,0.0,0.0,0.0,0.0,0.0,0.0,0.0,0.0,0.0,0.0,0.0,0.0,0.0,0.0,0.0,0.0,0.0,0.0,0.0,0.0,0.0,0.0,0.0,0.0,0.0,0.0,0.0,0.0,0.0,0.0,0.0,0.0,0.0,0.0,0.0,0.0,0.0,0.0,0.0,0.0,0.0,0.0,0.0,0.0,0.0,0.0,0.0,0.0,0.0,0.0,0.0,0.0,0.0,0.0,0.0,0.0,0.0,0.0,0.0,0.0,0.0,0.0,0.0,0.0,0.0,0.0,0.0,0.0,0.0,0.0,0.0,0.0,0.0,0.0,0.0,0.0,0.0,0.0,0.0,0.0,0.0,0.0,0.0,0.0,0.0,0.0,0.0,0.0,0.0,0.0,0.0,0.0,0.0,0.0,0.0,0.0,0.0,0.0,0.0,0.0,0.0,0.0,0.0,0.0,0.0,0.0,0.0,0.0,0.0,0.0,0.0,0.0,0.0,0.0,0.0,0.0,0.0,0.0,0.0,0.0,0.0,0.0,0.0,0.0,0.0,0.0,0.0,0.0,0.0,0.0,0.0,0.0,0.0,0.0,0.0,0.0,0.0,0.0,0.0,0.0,0.0,0.0,0.0,0.0,0.0,0.0,0.0,0.0,0.0,0.0,0.0,0.0,0.0,0.0,0.0,0.0,0.0,0.0,0.0,0.0,0.0,0.0,0.0,0.0,0.0,0.0,0.0,0.0,0.0,0.0,0.0,0.0,0.0,0.0,0.0,0.0,0.0,0.0,0.0,0.0,0.0,0.0,0.0,0.0,0.0,0.0,0.0,0.0,0.0,0.0,0.0,0.0,0.0,0.0,0.0,0.0,0.0,0.0,0.0,0.0,0.0,0.0,0.0,0.0,0.0,0.0,0.0,0.0,0.0,0.0,0.0,0.0,0.0,0.0,0.0,0.0,0.0,0.0,0.0,0.0,0.0,0.0,0.0,0.0,0.0,0.0,0.0,0.0,0.0,0.0,0.0,0.0,0.0,0.0,0.0,0.0,0.0,0.0,0.0,0.0,0.0,0.0,0.0,0.0,0.0,0.0,0.0,0.0,0.0,0.0,0.0,0.0,0.0,0.0,0.0,0.0,0.0,0.0,0.0,0.0,0.0,0.0,0.0,0.0,0.0,0.0,0.0,0.0,0.0,0.0,0.0,0.0,0.0,0.0,0.0,0.0,0.0,0.0,0.0,0.0,0.0,0.0,0.0,0.0,0.0,0.0,0.0,0.0,0.0,0.0,0.0,0.0,0.0,0.0,0.0,0.0,0.0,0.0,0.0,0.0,0.0,0.0,0.0,0.0,0.0,0.0,0.0,0.0,0.0,0.0,0.0,0.0,0.0,0.0,0.0,0.0,0.0,0.0,0.0,0.0,0.0,0.0,0.0,0.0,0.0,0.0,0.0,0.0,0.0,0.0,0.0,0.0,0.0,0.0,0.0,0.0,0.0,0.0,0.0,0.0,0.0,0.0,0.0,0.0,0.0,0.0,0.0,0.0,0.0,0.0,0.0,0.0,0.0,0.0,0.0,0.0,0.0,0.0,0.0,0.0,0.0,0.0,0.0,0.0,0.0,0.0,0.0,0.0,0.0,0.0,0.0,0.0,0.0,0.0,0.0,0.0,0.0,0.0,0.0,0.0,0.0,0.0,0.0,0.0,0.0,0.0,0.0,0.0,0.0,0.0,0.0,0.0,0.0,0.0,0.0,0.0,0.0,0.0,0.0,0.0,0.0,0.0,0.0,0.0,0.0,0.0,0.0,0.0,0.0,0.0,0.0,0.0,0.0,0.0,0.0,0.0,0.0,0.0,0.0,0.0,0.0,0.0,0.0,0.0,0.0,0.0,0.0,0.0,0.0,0.0,0.0,0.0,0.0,0.0,0.0,0.0,0.0,0.0,0.0,0.0,0.0,0.0,0.0,0.0,0.0,0.0,0.0,0.0,0.0,0.0,0.0,0.0,0.0,0.0,0.0,0.0,0.0,0.0,0.0,0.0,0.0,0.0,0.0,0.0,0.0,0.0,0.0,0.0,0.0,0.0,0.0,0.0,0.0,0.0,0.0,0.0,0.0,0.0,0.0,0.0,0.0,0.0,0.0,0.0,0.0,0.0,0.0,0.0,0.0,0.0,0.0,0.0,0.0,0.0,0.0,0.0,0.0,0.0,0.0,0.0,0.0,0.0,0.0,0.0,0.0,0.0,0.0,0.0,0.0,0.0,0.0,0.0,0.0,0.0,0.0,0.0,0.0,0.0,0.0,0.0,0.0,0.0,0.0,0.0,0.0,0.0,0.0,0.0,0.0,0.0,0.0,0.0,0.0,0.0,0.0,0.0,0.0,0.0,0.0,0.0,0.0,0.0,0.0,0.0,0.0,0.0,0.0,0.0,0.0,0.0,0.0,0.0,0.0,-2.235,-2.328,0.0,0.0,0.0,0.0,0.0,0.0,0.0,0.0,0.0,0.0,0.0,0.0,0.0,0.0,0.0,0.0,0.0,0.0,0.0,0.0,0.0,0.0,0.0,-2.3144,-2.3095,-2.336,-2.3144,0.0,0.0,0.0,0.0,0.0,0.0,0.0,0.0,0.0,-1.8874,-1.8766,-1.8925,-1.9105,-1.9279,-1.9333,-1.907,-1.8563,0.0,0.0,0.0,0.0,0.0,0.0,0.0,0.0,0.0,0.0,0.0,0.0,0.0,0.0,0.0,0.0,0.0,0.0,0.0,0.0,0.0,0.0,0.0,0.0,0.0,0.0,0.0,0.0,0.0,0.0,0.0,0.0,0.0,0.0,0.0,0.0,0.0,0.0,0.0,0.0,0.0,0.0,0.0,0.0,0.0,0.0,0.0,0.0,0.0,0.0,0.0,0.0,0.0,0.0,0.0,0.0,0.0,0.0,0.0,0.0,0.0,0.0,0.0,0.0,0.0,0.0,0.0,0.0,0.0,0.0,-2.2073,-2.3377,0.0,0.0,0.0,0.0,0.0,0.0,0.0,0.0,0.0,0.0,0.0,0.0,0.0,0.0,0.0,0.0,0.0,0.0,0.0,0.0,0.0,-2.3842,-2.3914,-2.3866,-2.3842,-2.3914,-2.3866,-2.3461,-2.2639,-2.2605,0.0,0.0,0.0,0.0,0.0,-1.9397,-1.9364,-1.9216,-1.9295,-1.9468,-1.9749,-2.0251,-1.9887,-1.875,-1.8845,0.0,0.0,0.0,0.0,0.0,0.0,0.0,0.0,0.0,0.0,0.0,0.0,0.0,0.0,0.0,0.0,0.0,0.0,0.0,0.0,0.0,0.0,0.0,0.0,0.0,0.0,0.0,0.0,0.0,0.0,0.0,0.0,0.0,0.0,0.0,0.0,0.0,0.0,0.0,0.0,0.0,0.0,0.0,0.0,0.0,0.0,0.0,0.0,0.0,0.0,0.0,0.0,0.0,0.0,0.0,0.0,0.0,0.0,0.0,0.0,0.0,0.0,0.0,-1.8461,-1.8069,-1.8265,-1.8071,-1.8611,-1.9814,-2.1841,-2.3208,-2.3967,-2.443,0.0,0.0,0.0,0.0,0.0,0.0,0.0,0.0,0.0,0.0,0.0,0.0,0.0,0.0,0.0,0.0,0.0,0.0,0.0,-2.3962,-2.4362,-2.4025,-2.3986,-2.4386,-2.4025,-2.3461,-2.2639,-2.2605,0.0,0.0,0.0,0.0,-1.9314,-1.9811,-2.0082,-2.0043,-2.037,-2.0495,-2.0356,-2.0466,-2.0411,-2.0232,-1.9883,-1.9614,-1.942,0.0,0.0,0.0,0.0,0.0,0.0,0.0,0.0,0.0,0.0,0.0,0.0,0.0,0.0,0.0,0.0,0.0,0.0,0.0,0.0,0.0,0.0,0.0,0.0,0.0,0.0,0.0,0.0,0.0,0.0,0.0,0.0,0.0,0.0,0.0,0.0,0.0,0.0,0.0,0.0,0.0,-1.9618,-1.9529,0.0,0.0,0.0,0.0,0.0,0.0,0.0,0.0,0.0,0.0,0.0,0.0,0.0,-1.9092,-1.8755,-1.8733,-1.8422,-1.7884,-1.774,-1.7687,-1.7701,-1.7916,-1.8614,-1.972,-2.0253,0.0,-2.1743,-2.1794,0.0,0.0,0.0,0.0,0.0,0.0,0.0,0.0,0.0,0.0,0.0,0.0,0.0,0.0,0.0,0.0,0.0,0.0,0.0,0.0,0.0,-2.4771,-2.4526,-2.4284,-2.4342,-2.383,-2.2555,-2.274,0.0,0.0,0.0,-2.1055,-2.0781,-2.0873,-2.069,-2.0203,-2.0476,-2.0605,-2.0479,-2.0741,-2.0851,-2.0833,-2.0668,-2.0416,-2.0112,-1.9806,0.0,0.0,0.0,0.0,0.0,0.0,0.0,0.0,0.0,0.0,0.0,0.0,0.0,0.0,0.0,0.0,0.0,0.0,0.0,0.0,0.0,0.0,0.0,0.0,0.0,0.0,0.0,0.0,0.0,0.0,0.0,0.0,0.0,0.0,0.0,0.0,0.0,0.0,0.0,-2.0545,-2.0554,-2.068,-2.0412,-2.0548,0.0,0.0,0.0,0.0,0.0,0.0,0.0,0.0,0.0,-1.8414,-1.8237,-1.8183,-1.8212,-1.8212,-1.8171,-1.809,-1.809,-1.809,-1.8103,-1.8237,-1.8564,-1.9041,-1.9126,-1.941,-1.9823,-2.105,-2.1938,-2.2571,0.0,0.0,0.0,0.0,-2.4461,-2.4639,0.0,0.0,0.0,0.0,0.0,0.0,0.0,0.0,0.0,0.0,0.0,0.0,-2.5492,-2.5516,-2.5314,-2.4888,-2.4941,-2.4384,-2.285,-2.287,-2.2534,-2.1603,-2.1584,-2.1584,-2.1584,-2.1469,-2.1154,-2.0583,-2.0728,-2.079,-2.079,-2.1126,-2.1273,-2.1273,-2.1273,-2.0979,-2.0521,-2.0521,-2.0173,-1.9604,0.0,0.0,0.0,0.0,0.0,0.0,0.0,0.0,0.0,0.0,0.0,0.0,0.0,0.0,0.0,0.0,0.0,0.0,0.0,0.0,0.0,0.0,0.0,0.0,0.0,0.0,0.0,0.0,0.0,0.0,0.0,0.0,0.0,0.0,0.0,0.0,0.0,-2.0827,-2.0859,-2.0897,-2.0232,-2.016,0.0,0.0,0.0,0.0,0.0,0.0,-1.8305,-1.8251,-1.8212,-1.8156,-1.7929,-1.7956,-1.8209,-1.8209,-1.8343,-1.849,-1.849,-1.849,-1.849,-1.8571,-1.8597,-1.8611,-1.8677,-1.8718,-1.8845,-2.0273,-2.1106,-2.1444,-2.1729,-2.2077,-2.2503,-2.3755,-2.4309,-2.4559,0.0,0.0,0.0,0.0,0.0,0.0,0.0,0.0,0.0,0.0,0.0,-2.5492,-2.5997,-2.6069,-2.6225,-2.6716,-2.6007,-2.5034,-2.3815,-2.291,-2.1924,-2.0722,-2.0664,-2.0664,-2.0664,-2.1017,-2.1334,-2.1595,-2.1614,-2.1632,-2.1632,-2.165,-2.1668,-2.1668,-2.1668,-2.1229,-2.0521,-2.0521,-2.0503,-2.0429,-2.0003,0.0,0.0,0.0,0.0,0.0,0.0,0.0,0.0,0.0,0.0,0.0,0.0,0.0,0.0,0.0,0.0,0.0,0.0,0.0,0.0,0.0,0.0,0.0,0.0,0.0,0.0,0.0,0.0,0.0,0.0,0.0,0.0,0.0,0.0,0.0,0.0,0.0,0.0,-1.8306,-1.7857,0.0,0.0,0.0,0.0,-1.8534,-1.8252,-1.7916,-1.7675,-1.7661,-1.7929,-1.845,-1.845,-1.8584,-1.8878,-1.8821,-1.8744,-1.849,-1.849,-1.849,-1.8504,-1.8771,-1.8905,-1.8918,-1.9199,-1.9319,-1.9336,-1.8872,-1.9428,-2.0693,-2.1793,-2.307,-2.4297,-2.5341,-2.6031,-2.6372,0.0,0.0,0.0,-2.53,-2.53,-2.53,-2.53,-2.53,-2.542,-2.5781,-2.5805,-2.6021,-2.6574,-2.6609,-2.6327,-2.5677,-2.5118,-2.4281,-2.2988,-2.2615,-2.2263,-2.1816,-2.207,-2.2058,-2.1763,-2.1768,-2.1634,-2.1328,-2.1328,-2.1328,-2.1328,-2.1328,-2.1328,-2.1346,-2.1577,-2.1376,-2.0906,-2.0906,-2.0906,-2.0869,-2.0466,-2.0228,0.0,0.0,0.0,0.0,0.0,0.0,0.0,0.0,0.0,0.0,0.0,0.0,0.0,0.0,0.0,0.0,0.0,0.0,0.0,0.0,0.0,0.0,0.0,0.0,0.0,0.0,0.0,0.0,0.0,0.0,0.0,0.0,0.0,0.0,0.0,0.0,0.0,-1.9169,-1.8039,0.0,-1.8413,-1.8035,-1.7794,-1.7902,-1.8171,-1.829,-1.817,-1.8343,-1.8544,-1.8758,-1.8584,-1.8637,-1.8918,-1.8918,-1.8971,-1.9052,-1.9052,-1.9052,-1.9052,-1.9158,-1.9212,-1.9212,-1.9319,-1.943,-1.9359,-1.9145,-1.9215,-1.9501,-1.9747,-2.0629,-2.1872,-2.3084,-2.4158,-2.5099,0.0,-2.53,0.0,-2.53,-2.53,-2.53,-2.53,-2.5468,-2.5709,-2.6045,-2.6262,-2.6526,-2.6849,-2.6647,-2.6165,-2.524,-2.4552,-2.383,-2.2936,-2.2767,-2.2734,-2.2734,-2.2765,-2.2659,-2.2309,-2.2176,-2.1954,-2.1731,-2.1731,-2.1731,-2.1731,-2.1731,-2.1731,-2.175,-2.198,-2.187,-2.1511,-2.1383,-2.131,-2.1291,-2.0991,-2.0808,-2.0686,0.0,0.0,0.0,0.0,0.0,0.0,0.0,0.0,0.0,0.0,0.0,0.0,0.0,0.0,0.0,0.0,0.0,0.0,0.0,0.0,0.0,0.0,0.0,0.0,0.0,0.0,0.0,0.0,0.0,0.0,0.0,0.0,0.0,0.0,0.0,-1.9235,-1.9199,-1.8168,-1.7714,-1.8279,-1.805,-1.7889,-1.7889,-1.8357,-1.8597,-1.849,-1.8677,-1.8824,-1.8918,-1.8731,-1.8771,-1.9078,-1.9172,-1.9319,-1.9519,-1.9613,-1.9653,-1.9653,-1.9653,-1.9653,-1.9653,-1.9653,-1.9599,-1.9506,-1.9506,-1.9345,-1.9109,-1.9302,-2.0156,-2.1359,-2.2657,-2.3937,-2.5253,-2.53,-2.53,-2.53,-2.53,-2.53,-2.5324,-2.5324,-2.5757,-2.6117,-2.6142,-2.6598,-2.6898,-2.6922,-2.6191,-2.5747,-2.5708,-2.4532,-2.3784,-2.3805,-2.3365,-2.3164,-2.3203,-2.2597,-2.2212,-2.2124,-2.2143,-2.2399,-2.2913,-2.2913,-2.2913,-2.2913,-2.2913,-2.2913,-2.2913,-2.2913,-2.2675,-2.2272,-2.1888,-2.1723,-2.1723,-2.1687,-2.1475,-2.1126,0.0,0.0,0.0,0.0,0.0,0.0,0.0,0.0,0.0,0.0,0.0,0.0,0.0,0.0,0.0,0.0,0.0,0.0,0.0,0.0,0.0,0.0,0.0,0.0,0.0,0.0,0.0,0.0,0.0,0.0,0.0,0.0,0.0,-1.9907,-1.9576,-1.9034,-1.8135,-1.797,-1.7995,-1.8009,-1.8317,-1.849,-1.849,-1.8758,-1.8798,-1.8517,-1.8517,-1.8651,-1.8945,-1.8945,-1.9092,-1.9399,-1.9679,-1.9813,-1.9813,-2.0094,-2.0167,-2.0167,-2.0167,-2.0167,-2.0167,-2.0167,-2.0067,-1.9813,-1.9813,-1.9653,-1.956,-2.073,-2.1957,-2.3143,-2.4334,-2.5716,-2.7098,-2.53,-2.53,-2.53,-2.53,-2.53,-2.5444,-2.5829,-2.5997,-2.6382,-2.7176,-2.7042,-2.7042,-2.7426,-2.6924,-2.6306,-2.567,-2.4768,-2.4064,-2.3763,-2.3322,-2.3285,-2.377,-2.3282,-2.2981,-2.3,-2.2769,-2.2722,-2.2913,-2.2913,-2.2913,-2.2913,-2.2913,-2.2913,-2.2913,-2.2913,-2.284,-2.273,-2.262,-2.2565,-2.2492,-2.164,-2.1357,-2.1522,0.0,0.0,0.0,0.0,0.0,0.0,0.0,0.0,0.0,0.0,0.0,0.0,0.0,0.0,0.0,0.0,0.0,0.0,0.0,0.0,0.0,0.0,0.0,0.0,0.0,0.0,0.0,0.0,0.0,0.0,0.0,0.0,-1.8086,-1.8189,-1.8112,-1.8085,-1.7996,-1.7983,-1.8116,-1.8343,-1.8437,-1.849,-1.849,-1.8758,-1.8891,-1.8811,-1.9011,-1.9265,-1.9546,-1.9559,-1.9706,-1.9987,-2.0067,-2.0107,-2.0107,-2.0127,-2.0167,-2.0167,-2.0167,-2.0167,-2.0167,-2.0167,-2.0187,-2.0107,-2.0107,-2.0067,-2.0066,-2.0902,-2.1957,-2.3143,-2.4334,-2.5716,-2.7043,-2.53,-2.53,-2.53,-2.53,-2.53,-2.5492,-2.6021,-2.6286,-2.6767,-2.757,-2.7426,-2.7258,-2.7354,-2.68,-2.6015,-2.5066,-2.465,-2.4304,-2.4028,-2.4002,-2.3986,-2.3966,-2.372,-2.3484,-2.3389,-2.3246,-2.3242,-2.3455,-2.3455,-2.3455,-2.3455,-2.3455,-2.3455,-2.3455,-2.3455,-2.3363,-2.3151,-2.3151,-2.3059,-2.284,-2.2126,-2.187,-2.1925,-2.176,-2.1394,-2.0991,-2.0991,-2.068,-2.0301,-2.026,0.0,0.0,0.0,0.0,0.0,0.0,0.0,0.0,0.0,0.0,0.0,0.0,0.0,0.0,0.0,0.0,0.0,0.0,0.0,0.0,0.0,0.0,0.0,0.0,-1.8251,-1.7686,-1.7686,-1.7889,-1.7983,-1.7982,-1.8195,-1.8424,-1.8477,-1.8597,-1.8677,-1.8677,-1.9052,-1.9292,-1.9292,-1.9573,-1.9813,-1.9973,-1.9987,-2.0067,-2.0167,-2.0361,-2.0414,-2.0414,-2.0535,-2.0601,-2.0601,-2.0601,-2.0601,-2.0601,-2.0601,-2.0535,-2.0414,-2.0414,-2.0347,-2.0322,0.0,0.0,0.0,0.0,-2.6317,-2.7043,-2.5324,-2.53,-2.53,-2.53,-2.5348,-2.5564,-2.6117,-2.6671,-2.7162,-2.7618,-2.7681,-2.7402,-2.6849,-2.6145,-2.5283,-2.4346,-2.4451,-2.4527,-2.4434,-2.4938,-2.4819,-2.4007,-2.3959,-2.3814,-2.3553,-2.3553,-2.3785,-2.4202,-2.4202,-2.4202,-2.4202,-2.4202,-2.4202,-2.4202,-2.4202,-2.395,-2.3553,-2.3553,-2.337,-2.3041,-2.2986,-2.273,-2.2309,-2.1906,-2.1723,-2.1687,-2.1632,-2.1595,-2.1504,-2.1163,0.0,0.0,0.0,0.0,0.0,0.0,0.0,0.0,0.0,0.0,0.0,0.0,0.0,0.0,0.0,0.0,0.0,0.0,0.0,0.0,0.0,0.0,0.0,0.0,-1.7808,-1.8009,-1.8035,-1.8357,-1.8424,-1.8075,-1.8528,-1.8824,-1.8557,-1.8838,-1.9025,-1.9025,-1.9533,-1.9853,-1.9853,0.0,0.0,0.0,0.0,-2.0294,-2.0273,-2.0588,-2.0722,-2.0722,-2.0989,-2.1109,-2.1109,-2.1109,-2.1109,-2.1109,-2.1109,-2.0962,-2.0722,-2.0722,-2.0684,-2.0686,-2.19,-2.3121,-2.4428,-2.6498,-2.7234,-2.7138,-2.5396,-2.53,-2.53,-2.53,-2.5661,-2.6142,-2.6657,-2.7186,-2.757,-2.7705,-2.7306,-2.6849,-2.631,-2.5797,-2.5284,-2.4784,-2.485,-2.4816,-2.4667,-2.4657,-2.4541,-2.4368,-2.4221,-2.4141,-2.4091,-2.4091,-2.4128,-2.4202,-2.4202,-2.4202,-2.4202,-2.4202,-2.4202,-2.4202,-2.4202,-2.4165,-2.4091,-2.4091,-2.4036,-2.3944,-2.3565,-2.3151,-2.2748,-2.2327,-2.1961,-2.165,-2.1302,-2.1016,-2.0741,-2.0625,-2.0576,-2.0545,-2.0471,-2.0439,0.0,0.0,0.0,0.0,0.0,0.0,0.0,0.0,0.0,0.0,0.0,0.0,0.0,0.0,0.0,0.0,0.0,0.0,0.0,-1.7943,-1.7969,-1.8075,-1.837,-1.8651,-1.8731,-1.8437,-1.8718,-1.8905,-1.8838,-1.9319,-1.9626,-1.9626,-1.9947,-2.0147,-2.0147,-2.014,-2.0347,-2.0588,-2.0588,-2.0708,-2.0935,-2.1002,-2.1029,-2.1029,0.0,0.0,-2.1109,-2.1109,-2.1109,-2.1109,-2.1109,-2.1082,-2.1029,-2.1029,-2.1603,-2.2595,-2.3395,-2.4418,-2.5642,-2.7143,-2.7826,-2.7996,-2.6238,-2.5685,-2.5396,-2.5661,-2.5925,-2.6382,-2.7162,-2.7522,-2.769,-2.769,-2.7234,-2.6801,-2.655,-2.6529,-2.6296,-2.565,-2.5454,-2.5204,-2.4794,-2.473,-2.4578,-2.4332,-2.4251,-2.4202,-2.4202,-2.4202,-2.4202,-2.4202,-2.4202,-2.4202,-2.4202,-2.4202,-2.4202,-2.4202,-2.4202,-2.4202,-2.4202,-2.4202,-2.4202,-2.4183,-2.3932,-2.373,-2.3492,-2.2821,-2.2474,-2.2272,-2.2071,-2.1723,-2.1357,-2.1156,-2.0979,-2.0778,-2.0534,-2.0521,-2.0558,0.0,0.0,0.0,0.0,0.0,0.0,0.0,0.0,0.0,0.0,0.0,0.0,0.0,0.0,-1.763,0.0,0.0,-1.8223,-1.8022,-1.8235,-1.8531,-1.8691,-1.8838,-1.8865,-1.8731,-1.9092,-1.9359,-1.9359,-1.976,-2.0013,-2.0013,-2.0294,-2.0454,-2.0454,-2.0588,-2.0735,-2.0882,-2.0895,-2.0962,-2.1109,-2.1109,-2.1109,-2.1109,-2.1109,-2.1109,-2.1109,-2.1109,-2.1109,-2.1109,-2.1109,-2.1109,-2.1109,-2.1109,-2.1475,-2.2187,-2.3139,-2.4583,-2.6148,-2.6865,-2.7452,-2.7992,-2.7138,-2.6273,-2.5757,-2.619,-2.6334,-2.6719,-2.7546,-2.7762,-2.781,-2.769,-2.7234,-2.6849,-2.6753,-2.7224,-2.725,-2.6541,-2.6113,-2.5625,-2.4941,-2.4824,-2.4646,-2.4202,-2.4202,-2.4202,-2.4202,-2.4202,-2.4202,-2.4202,-2.4202,-2.4202,-2.4202,-2.4202,-2.4202,-2.4202,-2.4202,-2.4202,-2.4202,-2.4202,-2.4202,-2.4202,-2.4202,-2.4202,-2.4128,-2.3437,-2.3096,-2.3004,-2.2931,-2.2693,-2.2346,-2.2034,-2.1705,-2.142,-2.1046,-2.0998,-2.101,-2.1321,-2.1563,0.0,0.0,0.0,0.0,0.0,0.0,0.0,0.0,0.0,-1.7422,-1.825,-1.7821,-1.7475,-1.7902,-1.829,-1.841,-1.8115,-1.8571,-1.8918,-1.8918,-1.9025,-1.9092,-1.9092,-1.9506,-1.9826,-1.988,-2.0147,-2.0321,-2.0321,-2.0588,-2.0762,-2.0762,-2.0989,-2.1109,-2.1109,-2.1109,-2.1109,-2.1109,-2.1109,-2.1109,-2.1109,-2.1109,-2.1109,-2.1109,-2.1109,-2.1109,-2.1109,-2.1109,-2.1109,-2.1109,-2.1109,-2.1109,-2.1235,-2.2278,-2.3948,-2.5811,-2.6364,-2.7018,-2.7755,-2.7594,-2.7114,-2.6729,-2.6801,-2.7186,-2.7546,-2.7666,-2.8074,-2.8258,-2.7738,-2.7234,-2.6705,-2.6238,-2.6714,-2.7071,-2.7087,-2.6832,-2.6167,-2.4971,-2.4677,-2.443,-2.4202,-2.4202,-2.4202,-2.4202,-2.4202,-2.4202,-2.4202,-2.4202,-2.4202,-2.4202,-2.4202,-2.4202,-2.4202,-2.4202,-2.4202,-2.4202,-2.4202,-2.4202,-2.4202,-2.4202,-2.4202,-2.4183,-2.411,-2.3804,-2.3389,-2.3041,-2.2876,-2.2821,-2.2785,-2.2748,-2.2693,-2.2657,-2.2638,-2.2638,-2.2693,-2.2693,-2.2571,-2.1725,-2.0281,-1.915,-1.9878,-1.8847,-1.7987,0.0,0.0,-1.7648,-1.7969,-1.7996,-1.7916,-1.7982,-1.829,-1.8477,-1.845,-1.8718,-1.8918,-1.8918,-1.9372,-1.9706,-1.9706,-1.976,-1.9907,-2.016,-2.0454,-2.0628,-2.0628,-2.0895,-2.1069,-2.1069,-2.1096,-2.1109,-2.1109,-2.1109,-2.1109,-2.1109,-2.1109,-2.1109,-2.1109,-2.1109,-2.1109,-2.1109,-2.1109,-2.1109,-2.1109,-2.1109,-2.1109,-2.1109,-2.1109,-2.1109,-2.1109,-2.1299,-2.2187,-2.3762,-2.6089,-2.7219,-2.7723,-2.8186,-2.8017,-2.7849,-2.7849,-2.7777,-2.7825,-2.8138,-2.8378,-2.833,-2.7762,-2.7498,-2.7138,-2.6609,-2.7102,-2.7469,-2.7607,-2.727,-2.6484,-2.5235,-2.4892,-2.4627,-2.4399,-2.4251,-2.4202,-2.4202,-2.4202,-2.4202,-2.4202,-2.4202,-2.4202,-2.4202,-2.4202,-2.4202,-2.4202,-2.4202,-2.4202,-2.4202,-2.4202,-2.4202,-2.4202,-2.4202,-2.4202,-2.4202,-2.4202,-2.4091,-2.3877,-2.3712,-2.3492,0.0,-2.3242,-2.3096,-2.2913,-2.2913,-2.2913,-2.295,-2.3187,-2.2793,-2.2007,-2.0534,-1.9734,0.0,0.0,-1.8379,-1.7983,-1.8588,-1.8115,-1.7675,-1.7929,-1.7982,-1.809,-1.8263,-1.8544,-1.8744,0.0,-1.8985,-1.9239,-1.9412,-1.9653,-1.9933,-2.0267,-2.0307,-2.0361,-2.0481,-2.0762,-2.0922,-2.0922,-2.1042,-2.1109,-2.1109,-2.1109,-2.1109,-2.1109,-2.1109,-2.1109,-2.1109,-2.1109,-2.1109,-2.1109,-2.1109,-2.1109,-2.1109,-2.1109,-2.1109,-2.1109,-2.1109,-2.1109,-2.1109,-2.1109,-2.1109,-2.1109,-2.1109,-2.1411,-2.2278,-2.4871,-2.652,-2.7727,-2.8546,-2.8522,-2.8522,-2.8522,-2.8186,-2.8065,-2.845,-2.8522,-2.8378,-2.7993,-2.7762,-2.7546,-2.7162,-2.7763,-2.8179,-2.8099,-2.7825,-2.7057,-2.5703,-2.5167,-2.4745,-2.443,-2.4301,-2.4202,-2.4202,-2.4202,-2.4202,-2.4202,-2.4202,-2.4202,-2.4202,-2.4202,-2.4202,-2.4202,-2.4202,-2.4202,-2.4202,-2.4202,-2.4202,-2.4202,-2.4202,-2.4202,-2.4202,-2.4202,-2.4202,-2.4202,-2.4202,-2.3969,-2.3712,-2.3712,-2.3529,-2.3242,-2.3242,-2.3033,-2.2883,-2.326,-2.2609,-2.1426,-1.9874,0.0,0.0,-1.8293,-1.7995,-1.7995,-1.7995,-1.7876,-1.7796,-1.8049,-1.8035,-1.8143,-1.8531,-1.8784,-1.8945,-1.9025,-1.9292,-1.9559,-1.9773,-1.9933,-2.0201,-2.0628,-2.0748,-2.0802,-2.0802,-2.0989,-2.1109,-2.1109,-2.1109,-2.1109,-2.1109,-2.1109,-2.1109,-2.1109,-2.1109,-2.1109,-2.1109,-2.1109,-2.1109,-2.1109,-2.1109,-2.1109,-2.1109,-2.1109,-2.1109,-2.1109,-2.1109,-2.1109,-2.1109,-2.1109,-2.1109,-2.1109,-2.1109,-2.1109,-2.1348,-2.3636,-2.5529,-2.7168,-2.8619,-2.8522,-2.8522,-2.8522,-2.8498,-2.8498,-2.8522,-2.8522,-2.8498,-2.8498,-2.8041,-2.7666,-2.7666,-2.8603,-2.9071,-2.8589,-2.8633,-2.8028,-2.6484,-2.5441,-2.4695,-2.4251,-2.4202,-2.4202,-2.4202,-2.4202,-2.4202,-2.4202,-2.4202,-2.4202,-2.4202,-2.4202,-2.4202,-2.4202,-2.4202,-2.4202,-2.4202,-2.4202,-2.4202,-2.4202,-2.4202,-2.4202,-2.4202,-2.4202,-2.4202,-2.4202,-2.4202,-2.4202,-2.4183,-2.4183,-2.4183,-2.4165,-2.4165,-2.3402,-2.2569,-2.2895,-2.222,-2.1118,-2.0293,0.0,-1.9017,-1.8185,-1.7995,-1.7995,-1.7995,-1.7982,-1.8062,-1.8424,-1.825,-1.8169,-1.8798,-1.8918,-1.9025,-1.9305,-1.9599,-1.9786,-1.98,-2.0294,-2.0655,-2.0668,-2.0922,-2.1096,0.0,-2.1109,-2.1109,-2.1109,-2.1109,-2.1109,-2.1109,-2.1109,-2.1109,-2.1109,-2.1109,-2.1109,-2.1109,-2.1109,-2.1109,-2.1109,-2.1109,-2.1109,-2.1109,-2.1109,-2.1109,-2.1109,-2.1109,-2.1109,-2.1109,-2.1109,-2.1109,-2.1109,-2.1109,-2.1109,-2.1299,-2.264,-2.4178,-2.5818,-2.9148,-2.9027,-2.8931,-2.857,-2.8522,-2.8522,-2.8522,-2.8522,-2.8522,-2.8522,-2.8002,0.0,0.0,0.0,0.0,0.0,-2.7326,-2.6735,-2.6443,-2.5479,-2.4843,-2.4695,-2.435,-2.4202,-2.4202,-2.4202,-2.4202,-2.4202,-2.4202,-2.4202,-2.4202,-2.4202,-2.4202,-2.4202,-2.4202,-2.4202,-2.4202,-2.4202,-2.4202,-2.4202,-2.4202,-2.4202,-2.4202,-2.4202,-2.4202,-2.4202,0.0,-2.4202,-2.4202,-2.4202,-2.4202,-2.4202,-2.4202,-2.4136,-2.3916,-2.3255,-2.2773,-2.2048,-2.0054,-1.9497,-1.9261,-1.8279,-1.7995,-1.8049,-1.829,-1.8129,-1.8075,-1.8424,-1.8571,-1.8635,-1.8891,-1.9092,-1.9252,-1.9359,-1.9613,-1.9867,-2.0054,-2.0428,-2.0748,-2.0935,-2.1056,0.0,0.0,0.0,0.0,-2.1109,-2.1109,-2.1109,-2.1109,-2.1109,-2.1109,-2.1109,-2.1109,-2.1109,-2.1109,-2.1109,-2.1109,-2.1109,-2.1109,-2.1109,-2.1109,-2.1109,-2.1109,-2.1109,-2.1109,-2.1109,-2.1109,-2.1109,-2.1109,-2.1109,-2.1109,-2.1109,-2.1172,-2.1601,-2.2702,-2.4301,-2.9677,-2.9581,-2.9412,-2.8883,-2.8787,0.0,0.0,0.0,0.0,0.0,0.0,0.0,0.0,0.0,0.0,0.0,0.0,-2.6998,-2.6584,-2.596,-2.5362,-2.4941,-2.4597,-2.4399,-2.4301,-2.4301,-2.4251,-2.4202,-2.4202,-2.4202,-2.4202,-2.4202,-2.4202,-2.4202,-2.4202,-2.4202,-2.4202,-2.4202,-2.4367,-2.4606,-2.4312,-2.4385,-2.4606,-2.4312,-2.4202,0.0,-2.4301,-2.4251,-2.4202,-2.4202,-2.4202,-2.4202,-2.4202,-2.4176,-2.3907,-2.2507,-2.2022,-2.1474,-1.9502,-1.8929,-1.8783,-1.8171,-1.7995,-1.8049,-1.829,-1.8263,-1.829,-1.8584,-1.8798,-1.8958,-1.9065,-1.9239,-1.9457,-1.9506,-1.976,-2.0054,-2.0347,-2.0641,-2.0895,-2.1082,-2.1109,-2.1109,0.0,0.0,0.0,-2.1109,-2.1109,-2.1109,-2.1109,-2.1109,-2.1109,-2.1109,-2.1109,-2.1109,-2.1109,-2.1109,-2.1109,-2.1109,-2.1109,-2.1109,-2.1109,-2.1109,-2.1109,-2.1109,-2.1109,-2.1109,-2.1109,-2.1109,-2.1109,-2.1109,-2.1109,-2.1109,-2.1109,-2.1109,-2.1664,-2.2827,-3.023,-3.0134,-2.9965,0.0,0.0,0.0,0.0,0.0,0.0,0.0,0.0,0.0,0.0,0.0,0.0,0.0,0.0,0.0,-2.6853,-2.6723,-2.6167,-2.499,-2.4892,-2.4775,-2.4529,-2.448,-2.4399,-2.4202,-2.4202,-2.4202,-2.4202,-2.4202,-2.4202,-2.4202,-2.4202,-2.4202,-2.4202,-2.4202,-2.4643,-2.5286,-2.4514,-2.4661,-2.5267,-2.4496,-2.4202,-2.4202,-2.4449,-2.4332,-2.4202,-2.4202,-2.422,-2.4238,-2.4257,0.0,0.0,0.0,0.0,-1.9677,-1.8796,-1.8131,-1.7702,-1.7969,-1.7995,-1.7995,-1.8035,-1.8303,-1.8597,-1.8891,-1.8945,-1.9025,0.0,0.0,-1.9452,-1.9733,-2.004,-2.0334,-2.0615,-2.0922,-2.1109,0.0,0.0,0.0,0.0,0.0,0.0,-2.1109,0.0,-2.1109,-2.1109,-2.1109,-2.1109,-2.1109,-2.1109,-2.1109,-2.1109,-2.1109,-2.1109,-2.1109,-2.1109,-2.1109,-2.1109,-2.1109,-2.1109,-2.1109,-2.1109,-2.1109,-2.1109,-2.1109,-2.1109,-2.1109,-2.1109,-2.1109,-2.1109,-2.1109,-2.1109,-2.1538,0.0,0.0,0.0,0.0,0.0,0.0,0.0,0.0,0.0,0.0,0.0,0.0,0.0,0.0,0.0,0.0,0.0,0.0,-2.6475,-2.5988,-2.5528,-2.5235,-2.499,-2.4775,-2.4529,-2.448,-2.4399,-2.4202,-2.4202,-2.4202,-2.4202,-2.4202,-2.4202,-2.4202,-2.4202,-2.4202,-2.4202,-2.4202,-2.433,-2.4496,-2.4293,-2.433,-2.4496,-2.4275,-2.4202,-2.4202,-2.4251,-2.4251,-2.4202,-2.4381,0.0,0.0,0.0,0.0,-2.4541,0.0,0.0,-2.1771,-1.9626,-1.8888,-1.8636,-1.8117,-1.7995,-1.8102,-1.8542,-1.8758,-1.8891,-1.9199,-1.9252,-1.9279,0.0,0.0,0.0,-1.9466,-1.9907,0.0,-2.0334,-2.0788,0.0,-2.1109,0.0,-2.1109,-2.1109,-2.1109,0.0,0.0,-2.1109,-2.1109,-2.1109,-2.1109,-2.1109,-2.1109,-2.1109,-2.1109,-2.1109,-2.1109,-2.1109,-2.1109,-2.1109,-2.1109,-2.1109,-2.1109,-2.1109,-2.1109,-2.1109,-2.1109,-2.1109,-2.1109,-2.1109,-2.1109,-2.1109,-2.1109,-2.1109,-2.1109,-2.1109,-2.1425,0.0,0.0,0.0,0.0,0.0,0.0,0.0,0.0,0.0,0.0,0.0,0.0,0.0,0.0,0.0,0.0,0.0,0.0,0.0,-2.6124,-2.5945,-2.5479,-2.5333,-2.5137,-2.4892,-2.4726,-2.4529,-2.435,-2.435,-2.4301,-2.4202,-2.4301,-2.4301,-2.4202,-2.4202,-2.4202,-2.4202,-2.4202,-2.4404,0.0,0.0,-2.4422,-2.4698,-2.433,-2.4202,-2.4202,-2.4301,-2.435,-2.4369,0.0,0.0,-2.4849,-2.5252,-2.5304,-2.4936,-2.3965,0.0,-2.2315,-1.9843,-1.933,-1.9175,-1.8266,-1.8182,-1.8462,-1.8851,-1.9025,-1.9158,-1.9332,-1.943,0.0,0.0,0.0,0.0,0.0,0.0,0.0,-2.0414,-2.0815,-2.1109,0.0,-2.1109,0.0,-2.1109,-2.1109,-2.1109,0.0,-2.1109,-2.1109,-2.1109,-2.1109,-2.1109,-2.1109,-2.1109,-2.1109,-2.1109,-2.1109,-2.1109,-2.1109,-2.1109,-2.1109,-2.1109,-2.1109,-2.1109,-2.1109,-2.1109,-2.1109,-2.1109,-2.1109,-2.1109,-2.1109,-2.1109,-2.1109,-2.1109,-2.1109,-2.1109,-2.1235,0.0,0.0,0.0,0.0,0.0,0.0,0.0,0.0,0.0,-3.0302,-3.0182,-3.0086,-3.0086,-2.9133,0.0,0.0,0.0,0.0,0.0,0.0,-2.66,-2.5742,-2.5693,-2.5577,-2.5284,-2.5088,-2.4843,-2.4529,-2.4529,-2.443,-2.4251,-2.443,-2.4381,-2.4202,-2.4202,-2.4202,-2.4202,-2.4202,-2.4606,-2.5194,-2.4496,-2.4624,-2.5176,0.0,-2.4202,-2.4202,-2.4399,-2.443,-2.4505,-2.473,-2.4812,-2.4922,-2.5323,-2.5142,-2.4699,-2.3844,-2.3066,-2.2064,-2.0004,-1.9642,-1.9628,-1.8765,-1.8919,-1.9273,-1.9242,-1.9374,-1.9537,-1.9363,0.0,-1.9265,-1.9305,-1.9305,-1.9399,-1.9693,0.0,-2.0281,-2.0575,-2.0869,-2.1069,-2.1109,-2.1109,-2.1109,-2.1109,-2.1109,-2.1109,-2.1109,-2.1109,-2.1109,-2.1109,-2.1109,-2.1109,-2.1109,-2.1109,-2.1109,-2.1109,-2.1109,-2.1109,-2.1109,-2.1109,-2.1109,-2.1109,-2.1109,-2.1109,-2.1109,-2.1109,-2.1109,-2.1109,-2.1109,-2.1109,-2.1109,-2.1109,-2.1109,-2.1109,-2.1109,-2.1109,-2.1109,0.0,0.0,0.0,0.0,0.0,0.0,0.0,0.0,0.0,0.0,-3.0639,-3.0086,0.0,0.0,0.0,0.0,0.0,0.0,0.0,0.0,0.0,-2.5693,-2.5693,-2.5577,-2.5284,-2.5235,-2.5088,-2.4824,-2.4824,-2.4677,-2.443,-2.448,-2.4381,-2.4202,-2.4202,-2.4202,-2.4202,-2.4202,-2.4275,-2.4404,-2.4257,-2.4293,-2.4404,-2.4257,0.0,0.0,-2.4251,-2.4251,-2.4306,-2.4698,-2.4996,-2.5341,-2.5396,-2.5378,-2.5009,-2.3618,-2.286,-2.2215,-2.0928,-2.0668,-2.0804,-2.1139,-2.1318,-2.1292,-2.0913,-2.0642,0.0,0.0,-1.8811,-1.8718,-1.8958,-1.8998,-1.9092,-1.9399,0.0,0.0,0.0,0.0,-2.0842,0.0,0.0,0.0,0.0,0.0,0.0,0.0,-2.1109,-2.1109,-2.1109,-2.1109,-2.1109,-2.1109,-2.1109,-2.1109,-2.1109,-2.1109,-2.1109,-2.1109,-2.1109,-2.1109,-2.1109,-2.1109,-2.1109,-2.1109,-2.1109,0.0,-2.1109,-2.1109,-2.1109,-2.1109,-2.1109,-2.1109,-2.1109,-2.1109,-2.1109,-2.1109,0.0,0.0,0.0,0.0,0.0,0.0,0.0,-3.1717,-3.1717,-3.1717,-3.0798,-3.0141,-3.0141,-2.8609,-2.7547,0.0,0.0,0.0,0.0,0.0,0.0,-2.5391,-2.5176,-2.4944,-2.4802,-2.4707,-2.4564,-2.4422,0.0,-2.4231,-2.3866,-2.4039,-2.3895,-2.3529,-2.3529,-2.3529,-2.3529,-2.3529,-2.3657,-2.384,-2.3987,-2.4116,-2.4202,0.0,0.0,0.0,-2.435,-2.443,-2.4587,-2.5164,-2.5371,-2.5414,-2.5414,-2.5414,-2.5237,-2.4253,-2.3708,-2.3138,-2.2013,-2.1841,-2.1917,-2.1666,-2.1729,-2.1627,-2.0811,0.0,0.0,0.0,-1.8584,-1.8531,-1.8677,-1.8824,0.0,-1.9118,0.0,0.0,0.0,0.0,0.0,0.0,0.0,0.0,0.0,0.0,0.0,-2.1109,-2.1109,-2.1109,-2.1109,-2.1109,-2.1109,-2.1109,-2.1109,-2.1109,-2.1109,-2.1109,-2.1109,-2.1109,-2.1109,-2.1109,-2.1109,-2.1109,-2.1109,-2.1109,-2.1109,-2.1109,-2.1109,-2.1109,-2.1109,-2.1109,-2.1109,-2.1109,-2.1109,-2.1109,-2.1109,-2.1109,0.0,0.0,0.0,0.0,0.0,0.0,0.0,-3.1383,-3.1294,-3.1092,-3.017,-2.9555,-2.9555,-2.8168,-2.7179,0.0,0.0,0.0,0.0,0.0,0.0,0.0,0.0,0.0,0.0,0.0,0.0,-2.4266,-2.4124,0.0,0.0,0.0,0.0,0.0,-2.2821,-2.2767,-2.2767,-2.2675,-2.2931,0.0,0.0,-2.3906,0.0,0.0,0.0,0.0,0.0,-2.4609,-2.4932,-2.5493,-2.557,-2.5414,-2.5414,-2.5359,-2.5161,-2.4808,-2.4459,-2.4003,-2.3138,-2.3062,-2.3049,-2.2272,-2.2083,-2.1777,-2.0708,-2.0244,0.0,0.0,-1.8343,-1.8317,-1.8384,-1.8584,-1.8771,0.0,-1.9305,-1.9733,0.0,0.0,0.0,0.0,0.0,0.0,0.0,0.0,0.0,-2.1109,-2.1109,-2.1109,-2.1109,-2.1109,-2.1109,-2.1109,-2.1109,-2.1109,-2.1109,-2.1109,-2.1109,-2.1109,-2.1109,-2.1109,-2.1109,-2.1109,-2.1109,-2.1109,-2.1109,-2.1109,-2.1109,-2.1109,-2.1109,-2.1109,-2.1109,-2.1109,-2.1109,-2.1109,-2.1109,-2.1109,0.0,0.0,0.0,0.0,0.0,0.0,0.0,-3.0351,-3.0034,-2.9096,-2.8121,-2.7463,-2.7463,-2.7321,-2.7179,0.0,0.0,0.0,0.0,0.0,0.0,0.0,0.0,0.0,0.0,0.0,0.0,-2.5169,-2.4593,0.0,0.0,0.0,0.0,0.0,0.0,-2.2346,-2.2309,-2.1961,0.0,0.0,0.0,0.0,0.0,0.0,0.0,0.0,0.0,-2.4609,-2.5099,0.0,0.0,-2.5414,-2.5414,-2.5124,-2.4808,-2.4385,0.0,0.0,-2.4053,-2.4071,-2.4149,-2.4412,-2.3736,-2.2735,-2.1937,0.0,0.0,-1.8293,-1.7862,-1.7756,-1.7982,-1.8049,-1.8249,-1.8838,-1.8971,-1.9199,-1.976,0.0,0.0,0.0,0.0,0.0,0.0,0.0,0.0,-2.1109,-2.1109,-2.1109,-2.1109,-2.1109,-2.1109,-2.1109,-2.1109,-2.1109,-2.1109,-2.1109,-2.1109,-2.1109,-2.1109,-2.1109,-2.1109,-2.1109,-2.1109,-2.1109,-2.1109,-2.1109,0.0,-2.1109,-2.1109,-2.1109,-2.1109,-2.1109,-2.1109,-2.1109,-2.1109,-2.1109,0.0,0.0,0.0,0.0,0.0,0.0,-3.026,-3.0215,-2.9852,-2.8819,-2.784,-2.7179,-2.7179,-2.6648,-2.6284,-2.6284,0.0,0.0,0.0,0.0,0.0,0.0,0.0,0.0,0.0,0.0,-2.4345,-2.4345,-2.4098,0.0,0.0,0.0,0.0,0.0,0.0,-2.2657,-2.2638,-2.2492,0.0,0.0,0.0,0.0,0.0,0.0,0.0,0.0,0.0,0.0,-2.5554,0.0,0.0,0.0,-2.5414,-2.4973,0.0,0.0,-2.4202,-2.4053,-2.3338,-2.3188,-2.3073,-2.2554,-2.2128,-2.1493,-2.0527,0.0,-1.9103,-1.7968,-1.7662,-1.7622,-1.7742,-1.7862,-1.8129,-1.8597,-1.8811,-1.9132,-1.972,-2.0054,0.0,0.0,0.0,0.0,0.0,0.0,0.0,-2.1109,-2.1109,-2.1109,-2.1109,-2.1109,-2.1109,-2.1109,-2.1109,-2.1109,-2.1109,-2.1109,-2.1109,-2.1109,-2.1109,-2.1109,-2.1109,-2.1109,-2.1109,-2.1109,-2.1109,-2.1109,0.0,-2.1109,-2.1109,-2.1109,-2.1109,-2.1109,-2.1109,-2.1109,-2.1109,-2.1109,0.0,0.0,0.0,0.0,0.0,-2.9894,-2.9704,-2.9615,-2.9132,-2.8147,-2.7282,-2.6744,-2.6744,-2.6091,-2.5693,-2.5596,-2.5645,0.0,0.0,0.0,0.0,0.0,0.0,0.0,0.0,0.0,-2.3928,-2.3928,-2.372,-2.3551,0.0,0.0,-2.3101,-2.2895,0.0,0.0,0.0,0.0,0.0,0.0,0.0,0.0,0.0,0.0,0.0,0.0,0.0,0.0,0.0,0.0,0.0,0.0,-2.5466,-2.4914,-2.4202,-2.4202,-2.4202,-2.4003,-2.3238,-2.2987,-2.2719,-2.1658,-2.1148,-2.0621,0.0,0.0,-1.8513,-1.774,-1.7582,-1.7582,-1.7582,-1.7756,-1.8036,-1.8424,-1.8664,-1.8998,-1.9586,-2.0,-2.0307,0.0,0.0,0.0,0.0,0.0,-2.1109,-2.1109,-2.1109,-2.1109,-2.1109,-2.1109,-2.1109,-2.1109,-2.1109,-2.1109,-2.1109,-2.1109,-2.1109,-2.1109,-2.1109,-2.1109,-2.1109,-2.1109,-2.1109,-2.1109,-2.1109,-2.1109,0.0,-2.1109,-2.1109,-2.1109,-2.1109,-2.1109,-2.1109,-2.1109,-2.1109,-2.1109,0.0,0.0,0.0,0.0,0.0,0.0,-2.8603,-2.8193,-2.7582,-2.6566,-2.5996,-2.5742,-2.5742,-2.5693,-2.5577,-2.5333,-2.5547,0.0,0.0,0.0,0.0,0.0,0.0,0.0,0.0,0.0,-2.448,-2.448,-2.3828,-2.3499,-2.348,-2.3096,-2.2913,-2.2895,0.0,0.0,0.0,0.0,0.0,0.0,0.0,0.0,0.0,0.0,0.0,0.0,0.0,0.0,0.0,0.0,0.0,0.0,0.0,-2.5066,-2.4202,-2.4202,-2.4202,-2.4202,-2.4202,-2.4202,-2.3904,-2.2787,-2.1709,-2.0621,0.0,0.0,-1.7635,-1.7582,-1.7582,-1.7582,-1.7582,-1.7582,-1.7782,-1.8397,-1.849,-1.8704,-1.935,-1.9867,0.0,0.0,0.0,0.0,0.0,0.0,-2.1109,-2.1109,-2.1109,0.0,-2.1109,-2.1109,-2.1109,-2.1109,-2.1109,-2.1109,-2.1109,-2.1109,-2.1109,-2.1109,-2.1109,-2.1109,-2.1109,-2.1109,-2.1109,-2.1109,-2.1109,-2.1109,0.0,-2.1109,-2.1109,-2.1109,-2.1109,-2.1109,-2.1109,-2.1109,-2.1109,-2.1109,0.0,0.0,0.0,0.0,0.0,0.0,0.0,-2.8363,-2.7932,-2.6968,-2.6699,-2.6404,-2.5963,-2.5924,-2.566,-2.5058,-2.5284,0.0,0.0,0.0,0.0,0.0,0.0,0.0,0.0,-2.4399,-2.4301,-2.4301,-2.4073,-2.395,-2.395,-2.384,-2.3767,-2.3767,-2.3639,-2.3614,0.0,0.0,0.0,0.0,0.0,0.0,0.0,0.0,0.0,0.0,0.0,0.0,0.0,0.0,0.0,0.0,0.0,0.0,0.0,-2.3158,-2.3038,-2.2719,-2.1183,-2.0759,-2.0503,-1.9435,-1.893,-1.8565,-1.8199,-1.7832,-1.7582,-1.7582,-1.7582,-1.7582,-1.7582,-1.7582,-1.7782,-1.8397,-1.849,-1.8691,-1.9336,0.0,0.0,0.0,0.0,0.0,0.0,0.0,-2.1109,-2.1109,-2.1109,-2.1109,-2.1109,-2.1109,-2.1109,-2.1109,-2.1109,-2.1109,-2.1109,-2.1109,-2.1109,-2.1109,-2.1109,-2.1109,-2.1109,-2.1109,-2.1109,-2.1109,-2.1109,-2.1109,-2.1109,-2.1109,-2.1109,-2.1109,-2.1109,-2.1109,-2.1109,-2.1109,-2.1109,-2.1109,0.0,0.0,0.0,0.0,0.0,0.0,0.0,-2.8299,-2.7883,-2.698,-2.6722,-2.635,-2.5676,-2.5588,-2.5374,-2.4813,-2.4892,0.0,0.0,0.0,0.0,0.0,0.0,0.0,-2.4399,-2.4251,-2.4202,-2.4202,-2.4202,-2.4128,-2.3914,-2.3914,-2.3914,-2.3914,-2.3914,-2.4005,0.0,0.0,0.0,0.0,0.0,0.0,-2.4301,0.0,0.0,0.0,0.0,0.0,0.0,0.0,0.0,0.0,0.0,0.0,0.0,0.0,-2.1706,-2.103,-2.0107,-1.9849,-1.9591,-1.8461,-1.8199,-1.8094,-1.7687,-1.7582,-1.7582,-1.7582,-1.7582,-1.7582,-1.7582,-1.7675,-1.7916,-1.841,-1.8584,-1.8851,-1.9452,0.0,0.0,-2.0535,0.0,0.0,0.0,-2.1109,-2.1109,-2.1109,-2.1109,-2.1109,-2.1109,-2.1109,-2.1109,-2.1109,-2.1109,-2.1109,-2.1109,-2.1109,-2.1109,-2.1109,-2.1109,-2.1109,-2.1109,-2.1109,-2.1109,-2.1109,-2.1109,-2.1109,0.0,-2.1109,-2.1109,-2.1109,-2.1109,-2.1109,-2.1109,-2.1109,-2.1109,-2.1109,0.0,0.0,0.0,0.0,0.0,0.0,0.0,-2.7969,-2.7506,-2.675,-2.6365,-2.5791,-2.5036,-2.493,-2.4813,-2.448,0.0,0.0,0.0,0.0,0.0,0.0,0.0,0.0,-2.4238,-2.4257,-2.4257,-2.4293,-2.4293,-2.4042,-2.3627,-2.3627,-2.3627,-2.3627,-2.359,-2.3822,0.0,0.0,0.0,0.0,-2.4624,-2.4651,0.0,0.0,0.0,0.0,0.0,0.0,0.0,0.0,0.0,0.0,0.0,0.0,0.0,0.0,0.0,0.0,0.0,-2.0672,-2.0416,-1.9332,-1.9072,-1.8812,-1.7845,-1.7582,0.0,-1.7582,-1.7582,-1.7582,-1.7582,-1.7836,-1.8089,-1.8437,-1.8731,-1.9132,0.0,-2.0067,0.0,0.0,-2.1109,0.0,-2.1109,-2.1109,-2.1109,-2.1109,-2.1109,-2.1109,-2.1109,-2.1109,-2.1109,-2.1109,-2.1109,-2.1109,-2.1109,-2.1109,-2.1109,-2.1109,-2.1109,-2.1109,-2.1109,-2.1109,-2.1109,0.0,-2.1109,-2.1109,-2.1109,-2.1109,-2.1109,-2.1109,-2.1109,-2.1109,-2.1109,-2.1109,-2.1109,-2.1109,0.0,0.0,0.0,0.0,0.0,0.0,0.0,0.0,0.0,0.0,-2.7162,-2.6609,-2.554,-2.5264,-2.4883,0.0,0.0,0.0,0.0,0.0,0.0,0.0,0.0,0.0,-2.4629,-2.4629,-2.4826,-2.5139,-2.5139,-2.5032,-2.4941,-2.4941,-2.4941,-2.4922,-2.4629,-2.4354,0.0,0.0,0.0,0.0,-2.4312,-2.4293,0.0,0.0,0.0,0.0,-2.443,-2.4405,0.0,0.0,0.0,0.0,0.0,0.0,0.0,0.0,-1.904,-1.8318,-1.8356,0.0,-1.8304,-1.8042,-1.8003,-1.7884,0.0,-1.7582,-1.7582,-1.7582,-1.7582,-1.7582,-1.7582,-1.7836,-1.8089,-1.8437,-1.8731,-1.9132,-1.972,0.0,0.0,-2.1069,-2.1109,-2.1109,-2.1109,-2.1109,-2.1109,-2.1109,-2.1109,-2.1109,-2.1109,-2.1109,-2.1109,-2.1109,-2.1109,-2.1109,-2.1109,-2.1109,-2.1109,-2.1109,-2.1109,-2.1109,-2.1109,-2.1109,-2.1109,-2.1109,-2.1109,-2.1109,-2.1109,-2.1109,-2.1109,-2.1109,-2.1109,-2.1109,-2.1109,-2.1109,-2.1109,-2.1109,0.0,0.0,0.0,0.0,0.0,0.0,0.0,0.0,0.0,0.0,0.0,-2.6359,-2.5389,-2.5164,0.0,0.0,0.0,0.0,0.0,0.0,0.0,0.0,0.0,-2.4606,-2.4776,-2.4776,-2.4886,-2.5106,-2.4955,-2.4721,-2.4537,-2.4537,-2.4629,-2.4863,-2.4794,-2.4666,0.0,0.0,0.0,-2.422,-2.4404,0.0,0.0,0.0,0.0,0.0,-2.435,-2.4301,0.0,-2.459,-2.4633,-2.4469,0.0,0.0,0.0,0.0,-1.9098,-1.7793,-1.7635,-1.7582,-1.7582,-1.7582,-1.7582,-1.7582,-1.7582,-1.7582,-1.7582,-1.7582,-1.7702,-1.7796,-1.7796,-1.8156,-1.8448,-1.8664,-1.9052,0.0,0.0,0.0,-2.0935,-2.1096,-2.1109,-2.1109,0.0,-2.1109,-2.1109,-2.1109,-2.1109,-2.1109,-2.1109,-2.1109,-2.1109,-2.1109,-2.1109,-2.1109,-2.1109,-2.1109,-2.1109,-2.1109,-2.1109,-2.1109,-2.1109,-2.1109,-2.1109,-2.1109,-2.1109,-2.1109,-2.1109,-2.1109,-2.1109,-2.1109,-2.1109,-2.1109,-2.1109,-2.1109,-2.1109,-2.1109,0.0,0.0,0.0,0.0,0.0,0.0,0.0,0.0,0.0,0.0,0.0,0.0,0.0,0.0,0.0,0.0,0.0,0.0,0.0,0.0,0.0,0.0,-2.4643,-2.4812,-2.4867,-2.4867,-2.4867,-2.4867,-2.4569,-2.4152,-2.3773,-2.3773,-2.4005,-2.4404,-2.4698,-2.4776,-2.4776,0.0,-2.4532,-2.4238,-2.4587,0.0,0.0,0.0,0.0,0.0,0.0,0.0,0.0,-2.4251,-2.4165,-2.4134,-2.4354,0.0,0.0,0.0,0.0,0.0,-1.7582,-1.7582,-1.7582,-1.7582,-1.7582,-1.7582,-1.7582,-1.7582,-1.7595,-1.7649,-1.7862,-1.8009,-1.8049,-1.8502,-1.8945,-1.8985,0.0,0.0,-2.0601,-2.0922,-2.1109,-2.1109,-2.1109,0.0,-2.1109,-2.1109,-2.1109,-2.1109,-2.1109,-2.1109,-2.1109,-2.1109,-2.1109,-2.1109,-2.1109,-2.1109,-2.1109,-2.1109,-2.1109,-2.1109,-2.1109,-2.1109,-2.1109,-2.1109,-2.1109,-2.1109,-2.1109,0.0,-2.1109,-2.1109,-2.1109,-2.1109,-2.1109,-2.1109,-2.1109,-2.1109,-2.1109,-2.1109,0.0,0.0,0.0,0.0,0.0,0.0,0.0,0.0,0.0,0.0,0.0,0.0,0.0,0.0,0.0,0.0,0.0,0.0,0.0,0.0,0.0,-2.4666,-2.4739,-2.4941,-2.5271,-2.5341,-2.5341,-2.5341,-2.5267,-2.5212,-2.5087,-2.5087,-2.5124,-2.5231,-2.4904,-2.4776,-2.4757,-2.4459,-2.4257,-2.4202,-2.4275,0.0,0.0,0.0,0.0,0.0,0.0,0.0,0.0,-2.4399,-2.4061,-2.3517,-2.3003,0.0,0.0,0.0,0.0,0.0,-1.7582,-1.7582,-1.7582,-1.7582,-1.7582,-1.7582,-1.7582,-1.7582,-1.7662,-1.7862,-1.7955,-1.8075,-1.837,-1.8691,-1.8998,-1.9265,0.0,-2.0575,0.0,0.0,-2.1109,-2.1109,0.0,-2.1109,-2.1109,-2.1109,-2.1109,-2.1109,-2.1109,-2.1109,-2.1109,-2.1109,-2.1109,-2.1109,-2.1109,-2.1109,-2.1109,-2.1109,-2.1109,-2.1109,-2.1109,-2.1109,-2.1109,-2.1109,-2.1109,-2.1109,0.0,-2.1109,-2.1109,-2.1109,-2.1109,-2.1109,-2.1109,-2.1109,-2.1109,-2.1109,-2.1109,-2.1109,0.0,0.0,0.0,0.0,0.0,0.0,0.0,0.0,0.0,0.0,0.0,0.0,0.0,0.0,0.0,0.0,0.0,0.0,0.0,0.0,-2.4496,-2.512,-2.4904,-2.4977,-2.5414,-2.5212,-2.5051,-2.5051,-2.4882,-2.4771,-2.4771,-2.4992,-2.5161,-2.5414,-2.4959,-2.4904,-2.5051,-2.4477,-2.4202,-2.4202,0.0,0.0,0.0,0.0,0.0,0.0,0.0,0.0,0.0,0.0,-2.3975,-2.3505,-2.3412,0.0,0.0,0.0,0.0,0.0,-1.7582,-1.7582,-1.7582,-1.7582,-1.7582,-1.7622,-1.7796,-1.7836,-1.7916,-1.8223,-1.841,-1.8611,-1.8905,-1.9199,-1.9546,-2.0,0.0,-2.0735,-2.0895,-2.1029,-2.1109,0.0,0.0,-2.1109,-2.1109,-2.1109,-2.1109,-2.1109,-2.1109,-2.1109,-2.1109,-2.1109,-2.1109,-2.1109,-2.1109,-2.1109,-2.1109,-2.1109,-2.1109,-2.1109,-2.1109,-2.1109,-2.1109,-2.1109,-2.1109,-2.1109,0.0,-2.1109,-2.1109,-2.1109,-2.1109,-2.1109,-2.1109,-2.1109,-2.1109,-2.1109,-2.1109,-2.1109,0.0,0.0,0.0,0.0,0.0,0.0,0.0,0.0,0.0,0.0,0.0,0.0,0.0,0.0,0.0,0.0,0.0,0.0,0.0,0.0,-2.4679,-2.5396,-2.4996,-2.4977,-2.5414,-2.4977,-2.4739,-2.4629,-2.4367,-2.4202,-2.4202,-2.4532,-2.4904,-2.5414,-2.4959,-2.4996,-2.5378,-2.4661,-2.4293,-2.4202,0.0,0.0,0.0,0.0,0.0,0.0,0.0,0.0,0.0,0.0,0.0,0.0,0.0,0.0,0.0,-2.0444,-1.9124,-1.7582,-1.7582,-1.7582,-1.7595,-1.7675,-1.7689,-1.7756,-1.7929,-1.8035,-1.8237,-1.8531,-1.8824,-1.9118,-1.9412,-1.976,0.0,-2.0601,-2.0735,-2.0855,-2.1082,-2.1109,-2.1109,-2.1109,-2.1109,-2.1109,-2.1109,-2.1109,-2.1109,-2.1109,-2.1109,-2.1109,-2.1109,-2.1109,-2.1109,-2.1109,-2.1109,-2.1109,-2.1109,-2.1109,-2.1109,-2.1109,-2.1109,-2.1109,-2.1109,-2.1109,-2.1109,-2.1109,-2.1109,-2.1109,-2.1109,-2.1109,-2.1109,-2.1109,-2.1109,-2.1109,-2.1109,-2.1109,-2.1109,-2.1109,0.0,0.0,0.0,0.0,0.0,0.0,0.0,0.0,0.0,0.0,0.0,0.0,0.0,0.0,0.0,0.0,0.0,0.0,0.0,0.0,-2.4922,-2.5414,-2.4996,-2.4977,-2.5414,-2.4977,-2.4643,-2.4257,-2.422,-2.4202,-2.4202,-2.4238,-2.4661,-2.5414,-2.4959,-2.4996,-2.5396,-2.4922,-2.4569,-2.4202,-2.4202,0.0,0.0,0.0,0.0,0.0,0.0,0.0,0.0,0.0,0.0,0.0,0.0,0.0,-1.9709,-1.9397,-1.8513,-1.7582,-1.7582,-1.7582,-1.7649,-1.7889,-1.7955,-1.7955,-1.8023,-1.825,-1.8544,-1.8838,-1.9132,-1.9426,-1.972,-2.0227,-2.0628,-2.0668,-2.0909,-2.1082,-2.1109,0.0,-2.1109,-2.1109,-2.1109,-2.1109,-2.1109,-2.1109,-2.1109,-2.1109,-2.1109,-2.1109,-2.1109,-2.1109,-2.1109,-2.1109,-2.1109,-2.1109,-2.1109,-2.1109,-2.1109,-2.1109,-2.1109,-2.1109,-2.1109,-2.1109,-2.1109,-2.1109,-2.1109,-2.1109,-2.1109,-2.1109,-2.1109,-2.1109,-2.1109,-2.1109,-2.1109,-2.1109,-2.1109,-2.1109,0.0,0.0,0.0,0.0,0.0,0.0,0.0,0.0,0.0,0.0,0.0,0.0,0.0,0.0,0.0,0.0,0.0,0.0,0.0,-2.4409,-2.4849,-2.4996,-2.4867,-2.4977,-2.5414,-2.4771,-2.4367,-2.4202,-2.4202,-2.4202,-2.4202,-2.4202,-2.4643,-2.5414,-2.4959,-2.4867,-2.4996,-2.4849,-2.439,-2.3804,-2.411,-2.4202,0.0,0.0,0.0,0.0,0.0,0.0,0.0,0.0,-2.2769,-2.232,-2.2464,-2.0911,-1.9059,-1.9148,-1.8461,-1.7582,-1.7582,-1.7729,-1.7849,-1.7969,-1.8464,-1.8811,-1.8624,-1.8811,-1.9118,-1.9412,-1.9706,-2.0,-2.0294,-2.0668,-2.0949,-2.0949,-2.1042,-2.1109,-2.1109,-2.1109,-2.1109,-2.1109,-2.1109,-2.1109,-2.1109,-2.1109,-2.1109,-2.1109,-2.1109,-2.1109,-2.1109,-2.1109,-2.1109,-2.1109,-2.1109,-2.1109,-2.1109,-2.1109,-2.1109,-2.1109,-2.1109,-2.1109,-2.1109,-2.1109,-2.1109,-2.1109,-2.1109,-2.1109,-2.1109,-2.1109,-2.1109,-2.1109,-2.1109,-2.1109,-2.1109,-2.1109,-2.1109,-2.1109,0.0,0.0,0.0,0.0,0.0,0.0,0.0,0.0,0.0,0.0,0.0,0.0,0.0,0.0,0.0,0.0,0.0,0.0,-2.3517,-2.4427,-2.4904,-2.4794,-2.4904,-2.5139,-2.5362,-2.4624,-2.4202,-2.4202,-2.4202,-2.4202,-2.4202,-2.4202,-2.4643,-2.5414,-2.5087,-2.4904,-2.4794,-2.4922,-2.4208,-2.3032,-2.3476,-2.3438,0.0,0.0,0.0,0.0,0.0,0.0,0.0,0.0,-2.1712,-2.1412,-2.1425,-2.0132,-1.8615,-1.8674,-1.8199,-1.7582,-1.7582,-1.7876,-1.8155,-1.8249,-1.8851,-1.9359,-1.9345,-1.9492,-1.9666,-1.9773,-2.0107,-2.0454,-2.0762,-2.0975,0.0,0.0,-2.1109,-2.1109,-2.1109,-2.1109,-2.1109,-2.1109,-2.1109,-2.1109,-2.1109,-2.1109,-2.1109,-2.1109,-2.1109,-2.1109,-2.1109,-2.1109,-2.1109,-2.1109,-2.1109,-2.1109,-2.1109,-2.1109,-2.1109,-2.1109,-2.1109,-2.1109,-2.1109,-2.1109,-2.1109,-2.1109,-2.1109,-2.1109,-2.1109,-2.1109,-2.1109,-2.1109,-2.1109,-2.1109,-2.1109,-2.1109,-2.1109,-2.1109,0.0,0.0,0.0,0.0,0.0,0.0,0.0,0.0,0.0,0.0,0.0,0.0,0.0,0.0,0.0,0.0,0.0,0.0,-2.3517,-2.4684,-2.5197,-2.4794,-2.5212,-2.5381,-2.5414,-2.4624,-2.4202,-2.4202,-2.4202,-2.4202,-2.4202,-2.4202,-2.4643,-2.5362,-2.5414,-2.5142,-2.4794,-2.5197,-2.402,-2.1921,-2.2314,-2.1861,-2.0877,0.0,0.0,0.0,0.0,0.0,0.0,0.0,-2.0639,-2.015,-1.9435,-1.8906,-1.8476,-1.7803,-1.7582,-1.7582,-1.7582,-1.8023,-1.8557,-1.8851,-1.9158,-1.9533,-2.0107,-2.0167,-2.0147,-1.9867,-2.0281,-2.0762,-2.1056,-2.1109,0.0,-2.1109,-2.1109,-2.1109,-2.1109,-2.1109,-2.1109,-2.1109,-2.1109,-2.1109,-2.1109,-2.1109,-2.1109,-2.1109,-2.1109,-2.1109,-2.1109,-2.1109,-2.1109,-2.1109,-2.1109,-2.1109,-2.1109,-2.1109,-2.1109,-2.1109,-2.1109,-2.1109,-2.1109,-2.1109,-2.1109,-2.1109,-2.1109,-2.1109,-2.1109,-2.1109,-2.1109,-2.1109,-2.1109,-2.1109,-2.1109,-2.1109,-2.1109,-2.1109,0.0,0.0,0.0,0.0,0.0,0.0,0.0,0.0,0.0,0.0,0.0,0.0,0.0,0.0,0.0,0.0,0.0,0.0,-2.3133,-2.4537,-2.512,-2.4422,-2.5323,-2.5708,-2.5433,-2.4624,-2.4202,-2.4202,-2.4202,-2.4202,-2.4202,-2.4202,-2.4496,-2.4992,-2.4698,-2.3931,-2.2909,-2.3213,-2.2247,-2.0459,-2.1143,-2.12,-2.0826,0.0,0.0,0.0,0.0,0.0,0.0,0.0,0.0,0.0,-1.925,-1.8599,-1.788,-1.766,-1.7582,-1.7622,-1.7849,-1.8196,-1.8611,-1.9105,-1.9613,-2.0013,-2.0127,-2.0167,-2.0321,-2.0655,-2.0855,-2.1002,-2.1096,-2.1109,0.0,-2.1109,-2.1109,-2.1109,-2.1109,-2.1109,-2.1109,-2.1109,-2.1109,-2.1109,-2.1109,-2.1109,-2.1109,-2.1109,-2.1109,-2.1109,-2.1109,-2.1109,-2.1109,-2.1109,-2.1109,-2.1109,-2.1109,-2.1109,-2.1109,-2.1109,-2.1109,-2.1109,-2.1109,-2.1109,-2.1109,-2.1109,-2.1109,-2.1109,-2.1109,-2.1109,-2.1109,-2.1109,-2.1109,-2.1109,-2.1109,-2.1109,-2.1109,-2.1082,0.0,0.0,0.0,0.0,0.0,0.0,0.0,0.0,0.0,0.0,-2.5766,-2.5359,0.0,0.0,0.0,-2.4202,-2.4202,-2.3877,-2.3187,-2.4262,-2.479,-2.4459,-2.5157,-2.5454,-2.5414,-2.479,-2.4459,-2.4459,-2.4293,-2.4202,-2.4202,-2.4202,-2.433,-2.4519,-2.3913,-2.2987,-2.1844,-2.1879,-2.0814,-1.9256,-1.9933,-1.9952,-1.9487,0.0,0.0,0.0,0.0,0.0,0.0,0.0,0.0,0.0,-1.8565,-1.8094,-1.7582,-1.7582,-1.7582,-1.7622,-1.7809,-1.825,-1.8771,-1.931,-1.98,-2.0207,-2.0374,-2.0414,-2.0535,-2.1015,-2.1109,-2.1109,-2.1109,-2.1109,0.0,-2.1109,-2.1109,-2.1109,-2.1109,-2.1109,-2.1109,-2.1109,-2.1109,-2.1109,-2.1109,-2.1109,-2.1109,-2.1109,-2.1109,-2.1109,-2.1109,-2.1109,-2.1109,-2.1109,-2.1109,-2.1109,-2.1109,-2.1109,-2.1109,-2.1109,-2.1109,-2.1109,-2.1109,-2.1109,-2.1109,-2.1109,-2.1109,-2.1109,-2.1109,-2.1109,-2.1109,-2.1109,-2.1109,-2.1109,-2.1109,-2.1109,-2.1042,-2.0909,0.0,0.0,0.0,0.0,0.0,0.0,0.0,0.0,0.0,-2.6058,-2.5635,-2.5231,0.0,0.0,0.0,-2.4202,-2.4202,-2.3987,-2.3517,-2.3969,-2.4404,-2.4702,-2.4721,-2.4937,-2.5304,-2.4904,-2.4702,-2.4666,-2.4367,-2.4202,-2.4202,-2.4102,-2.4035,-2.393,-2.2883,-2.1972,-2.1131,-2.0864,-1.9683,-1.8137,-1.8745,-1.8433,-1.7582,-1.7582,0.0,0.0,0.0,0.0,0.0,0.0,0.0,0.0,-1.7582,-1.7582,-1.7582,-1.7622,-1.7609,-1.7595,-1.7689,-1.8277,-1.8971,-1.9345,-1.988,-2.0388,-2.0655,-2.0722,-2.0788,-2.1056,-2.1109,-2.1109,-2.1109,-2.1109,-2.1109,-2.1109,-2.1109,-2.1109,-2.1109,-2.1109,-2.1109,-2.1109,-2.1109,-2.1109,-2.1109,-2.1109,-2.1109,-2.1109,-2.1109,-2.1109,-2.1109,-2.1109,-2.1109,-2.1109,-2.1109,-2.1109,-2.1109,-2.1109,-2.1109,-2.1109,-2.1109,-2.1109,-2.1109,-2.1109,-2.1109,-2.1109,-2.1109,-2.1109,-2.1109,-2.1109,-2.1109,-2.1109,-2.1109,-2.1109,-2.1109,-2.1082,-2.0909,-2.0668,0.0,0.0,0.0,0.0,0.0,0.0,0.0,0.0,-2.6113,-2.6021,-2.5396,-2.4886,-2.4794,-2.4459,0.0,-2.4202,-2.4202,-2.3987,-2.3517,-2.4225,-2.4587,-2.4349,-2.433,-2.4385,-2.4459,-2.4385,-2.4134,-2.3755,-2.4042,-2.4202,-2.4202,-2.3288,-2.2763,-2.2498,-2.1047,-1.9764,-1.8667,-1.8529,-1.7929,-1.7041,-1.7446,-1.7642,-1.7582,-1.7582,-1.7582,0.0,0.0,0.0,0.0,0.0,0.0,0.0,-1.7582,-1.7582,-1.7622,-1.7876,-1.7769,-1.7729,-1.845,-1.8611,-1.8824,-1.98,-2.0481,-2.0935,-2.1002,-2.1015,-2.1029,-2.1096,-2.1109,-2.1109,-2.1109,-2.1109,-2.1109,-2.1109,-2.1109,-2.1109,-2.1109,-2.1109,-2.1109,-2.1109,-2.1109,-2.1109,-2.1109,-2.1109,-2.1109,-2.1109,-2.1109,-2.1109,-2.1109,-2.1109,-2.1109,-2.1109,-2.1109,-2.1109,-2.1109,-2.1109,-2.1109,-2.1109,-2.1109,-2.1109,-2.1109,-2.1109,-2.1109,-2.1109,-2.1109,-2.1109,-2.1109,-2.1109,-2.1109,-2.1109,-2.1109,-2.1109,-2.1082,-2.0855,-2.0735,-2.0615,0.0,0.0,0.0,0.0,0.0,0.0,0.0,0.0,-2.5874,-2.5506,-2.5032,-2.4702,-2.4551,-2.433,0.0,0.0,-2.4202,-2.411,-2.384,-2.406,-2.417,-2.4202,-2.4587,-2.4427,-2.3773,-2.3577,-2.3044,-2.21,-2.2166,-2.2621,-2.3388,-2.2629,-2.1841,-2.0964,-1.9524,-1.852,-1.7823,-1.7434,-1.7145,-1.6927,-1.7139,-1.738,-1.7569,-1.7474,-1.7514,-1.7582,-1.7582,0.0,0.0,0.0,0.0,0.0,0.0,0.0,-1.7649,-1.7902,-1.7822,-1.7716,-1.8343,-1.8504,-1.8771,-1.9947,-2.0668,-2.1109,-2.1109,-2.1109,-2.1109,-2.1109,-2.1109,-2.1109,-2.1109,-2.1109,-2.1109,-2.1109,-2.1109,-2.1109,-2.1109,-2.1109,-2.1109,-2.1109,-2.1109,-2.1109,-2.1109,-2.1109,-2.1109,-2.1109,-2.1109,-2.1109,-2.1109,-2.1109,-2.1109,-2.1109,-2.1109,-2.1109,-2.1109,-2.1109,-2.1109,-2.1109,-2.1109,-2.1109,-2.1109,-2.1109,-2.1109,-2.1109,-2.1109,-2.1109,-2.1109,-2.1109,-2.1109,-2.1109,-2.1109,-2.1029,-2.0882,-2.0735,-2.0494,-2.0214,0.0,0.0,0.0,0.0,0.0,0.0,0.0,0.0,0.0,-2.4776,-2.4716,-2.4587,-2.4238,-2.4202,-2.4202,0.0,0.0,0.0,-2.3904,-2.3381,-2.3247,-2.3619,-2.4212,-2.3996,-2.2826,-2.2468,-2.1678,-2.0456,-2.0231,-2.0687,-2.1762,-2.1543,-2.0753,-1.9427,-1.8201,-1.7616,-1.75,-1.6873,-1.6834,-1.7206,-1.7206,-1.738,-1.7555,-1.7367,-1.742,-1.7582,-1.7582,-1.7582,-1.7582,-1.7582,0.0,0.0,0.0,0.0,-1.7649,-1.7902,-1.7862,-1.7729,-1.7982,-1.8384,-1.8891,-1.9973,-2.0641,-2.1042,-2.1096,-2.1109,-2.1109,-2.1109,-2.1109,-2.1109,-2.1109,-2.1109,-2.1109,0.0,0.0,0.0,0.0,0.0,0.0,0.0,0.0,-2.1109,-2.1109,-2.1109,-2.1109,-2.1109,-2.1109,-2.1109,-2.1109,-2.1109,-2.1109,-2.1109,-2.1109,-2.1109,-2.1109,-2.1109,-2.1109,-2.1109,-2.1109,-2.1109,-2.1109,-2.1109,-2.1109,-2.1109,-2.1109,-2.1109,-2.1109,-2.1109,-2.1109,-2.1109,-2.1109,-2.0935,-2.0668,-2.0615,-2.0254,-1.9786,0.0,0.0,0.0,0.0,0.0,0.0,0.0,0.0,0.0,0.0,-2.4293,-2.4257,-2.4202,-2.4202,-2.4202,-2.4202,-2.3288,-2.2736,-2.2736,0.0,0.0,-2.1336,-2.1125,-2.0879,-2.068,-2.0698,-2.044,-1.9941,-2.0294,-1.998,-1.8954,-1.8909,-1.86,-1.8093,-1.7002,-1.6516,-1.6468,-1.641,-1.6697,-1.7206,-1.7206,-1.738,-1.7582,-1.7542,-1.7555,-1.7582,-1.7582,-1.7582,-1.7582,-1.7582,-1.7582,0.0,0.0,0.0,-1.7649,-1.7902,-1.7969,-1.7995,-1.8343,-1.8838,-1.9412,-2.0067,-2.0481,-2.0802,-2.1056,-2.1109,-2.1109,0.0,-2.1109,-2.1109,0.0,0.0,0.0,0.0,0.0,0.0,0.0,0.0,0.0,0.0,0.0,0.0,0.0,0.0,-2.1109,-2.1109,-2.1109,-2.1109,-2.1109,-2.1109,-2.1109,-2.1109,-2.1109,-2.1109,-2.1109,-2.1109,-2.1109,-2.1109,-2.1109,-2.1109,-2.1109,-2.1109,-2.1109,-2.1109,-2.1109,-2.1109,-2.1109,-2.1109,-2.1109,-2.1109,-2.1109,-2.0935,-2.0641,-2.0388,-2.008,-1.976,0.0,0.0,0.0,0.0,0.0,0.0,0.0,0.0,0.0,0.0,0.0,-2.4202,-2.4202,-2.3637,-2.3238,-2.3238,-2.2266,-2.1607,-2.1607,-2.1148,-2.0877,-2.0877,-2.0734,-2.0241,-1.9502,-1.9502,-1.9035,-1.8065,-1.8134,-1.7851,-1.7232,-1.7016,-1.6946,-1.6974,-1.6292,-1.6206,-1.6513,-1.6513,-1.686,-1.7434,-1.7259,-1.738,-1.7569,-1.7447,-1.7487,-1.7582,-1.7582,-1.7582,-1.7582,-1.7582,-1.7582,-1.7582,-1.7582,0.0,0.0,0.0,-1.7862,-1.7889,-1.8357,-1.8918,-1.9466,-1.988,-2.0334,-2.0708,-2.0842,-2.0989,-2.1109,-2.1109,0.0,0.0,0.0,0.0,0.0,0.0,0.0,0.0,0.0,0.0,0.0,0.0,0.0,0.0,0.0,0.0,0.0,0.0,-2.1109,-2.1109,-2.1109,-2.1109,-2.1109,-2.1109,-2.1109,-2.1109,-2.1109,-2.1109,-2.1109,-2.1109,-2.1109,-2.1109,-2.1109,-2.1109,-2.1109,-2.1109,-2.1109,-2.1109,-2.1109,-2.1109,-2.1109,-2.1096,-2.0922,-2.0695,-2.0388,-2.0094,-1.9813,-1.9546,0.0,0.0,0.0,0.0,0.0,0.0,0.0,0.0,0.0,0.0,0.0,-2.4102,-2.3805,0.0,0.0,0.0,-2.1081,-2.0364,-2.0055,-2.0055,-2.0055,-2.0055,-2.0055,-1.9589,-1.8534,-1.8448,-1.7885,-1.682,-1.6526,-1.6388,-1.6273,-1.6046,-1.6019,-1.6152,-1.5925,-1.6152,-1.67,-1.67,-1.7048,-1.7569,-1.7393,-1.7434,-1.7569,-1.7435,-1.7515,-1.7716,-1.7782,-1.7809,-1.7796,-1.7729,-1.7702,-1.7689,-1.7609,-1.7582,0.0,0.0,0.0,-1.7729,-1.841,-1.8865,-1.9252,-1.9693,-2.0134,-2.0494,0.0,0.0,-2.1015,0.0,0.0,0.0,0.0,0.0,0.0,0.0,0.0,0.0,0.0,0.0,0.0,0.0,0.0,0.0,0.0,0.0,0.0,0.0,-2.1109,-2.1109,-2.1109,-2.1109,-2.1109,-2.1109,-2.1109,-2.1109,-2.1109,-2.1109,-2.1109,-2.1109,-2.1109,-2.1109,-2.1109,-2.1109,-2.1109,-2.1109,-2.1109,-2.1109,-2.1109,-2.1109,-2.1069,-2.0975,-2.0762,-2.0454,-2.0094,-1.988,-1.9613,-1.943,0.0,0.0,0.0,0.0,0.0,0.0,0.0,0.0,0.0,0.0,0.0,-2.3786,-2.2736,-2.2535,-2.2064,-2.1081,-1.9952,-1.8864,-1.7845,-1.7793,-1.7793,-1.7793,-1.7793,0.0,-1.766,-1.7392,-1.7244,-1.7179,-1.6834,-1.654,-1.6321,-1.6259,-1.6112,-1.5845,-1.5784,-1.6152,-1.67,-1.67,-1.7048,-1.7582,-1.7569,-1.7569,-1.7609,-1.7889,-1.7955,-1.8009,-1.8343,-1.8437,-1.8397,-1.8062,-1.7969,-1.7916,-1.7675,-1.7582,-1.7582,0.0,0.0,0.0,-1.8664,-1.8718,-1.8744,-1.9586,-1.9826,-1.9987,0.0,0.0,0.0,0.0,0.0,0.0,0.0,0.0,0.0,0.0,0.0,0.0,0.0,0.0,0.0,0.0,0.0,0.0,0.0,0.0,0.0,0.0,-2.1109,-2.1109,-2.1109,-2.1109,-2.1109,-2.1109,-2.1109,-2.1109,-2.1109,-2.1109,-2.1109,-2.1109,-2.1109,-2.1109,-2.1109,-2.1109,-2.1109,-2.1109,-2.1109,-2.1109,-2.1109,-2.1109,-2.0949,-2.0695,-2.0681,-2.0321,-1.9826,-1.9813,-1.9613,-1.943,0.0,0.0,0.0,0.0,0.0,0.0,0.0,0.0,0.0,0.0,0.0,0.0,0.0,-2.1234,-2.0169,-1.9598,-1.8339,-1.7415,-1.7072,-1.6847,-1.679,-1.679,-1.6553,-1.646,-1.646,-1.654,-1.6643,-1.6643,-1.6473,-1.638,-1.6321,-1.6072,-1.5939,-1.5784,-1.5784,-1.6152,-1.67,-1.67,-1.7048,-1.7582,-1.7582,-1.7702,-1.7889,-1.7955,-1.8115,-1.8343,-1.845,-1.849,-1.8477,0.0,0.0,0.0,-1.7916,-1.7742,-1.7582,-1.7582,-1.7729,-1.7902,-1.8222,-1.8502,-1.8838,-1.9158,-1.9519,-1.9853,-2.0067,0.0,0.0,0.0,0.0,0.0,0.0,0.0,0.0,0.0,0.0,0.0,0.0,0.0,0.0,0.0,0.0,0.0,0.0,0.0,0.0,0.0,0.0,-2.1109,-2.1109,-2.1109,-2.1109,-2.1109,-2.1109,-2.1109,-2.1109,-2.1109,-2.1109,-2.1109,-2.1109,-2.1109,-2.1109,-2.1109,-2.1109,-2.1109,-2.1109,-2.1109,-2.1096,-2.0909,-2.0775,-2.0641,-2.0254,-1.9987,-1.9773,-1.9586,-1.9452,-1.943,0.0,0.0,0.0,0.0,0.0,0.0,0.0,0.0,-2.3475,-2.2565,0.0,0.0,0.0,0.0,-1.8941,-1.8331,-1.7314,-1.67,-1.67,-1.6433,-1.6321,-1.6321,-1.5992,-1.5784,-1.5784,-1.6126,-1.6321,-1.6321,-1.6366,-1.6366,-1.6321,-1.6072,-1.5925,-1.5784,-1.5784,-1.6152,-1.67,-1.67,-1.7048,-1.7595,-1.7702,-1.7862,-1.8009,-1.8209,-1.8464,-1.8651,0.0,0.0,0.0,0.0,0.0,0.0,-1.8049,-1.7836,-1.7582,-1.7582,-1.7729,-1.7916,-1.7969,-1.8275,-1.8677,-1.8878,-1.9212,-1.9559,-1.976,0.0,0.0,0.0,0.0,0.0,0.0,0.0,0.0,0.0,0.0,0.0,0.0,0.0,0.0,0.0,0.0,0.0,0.0,0.0,0.0,0.0,0.0,0.0,-2.1109,-2.1109,-2.1109,-2.1109,-2.1109,-2.1109,-2.1109,-2.1109,-2.1109,-2.1109,-2.1109,-2.1109,-2.1109,-2.1109,-2.1109,-2.1109,-2.1109,-2.1109,-2.1082,-2.0802,-2.0615,-2.0481,-1.9987,-1.9733,-1.9626,-1.9497,-1.943,-1.943,0.0,0.0,0.0,0.0,0.0,0.0,0.0,0.0,-2.1528,-2.0445,0.0,0.0,0.0,0.0,0.0,-1.7309,-1.686,-1.6673,-1.6673,-1.6406,-1.6295,-1.6281,-1.5952,-1.5744,-1.5731,-1.6072,-1.6268,-1.6268,-1.6513,-1.6513,-1.6281,-1.6281,-1.6086,-1.5771,-1.5771,-1.6152,-1.67,-1.67,-1.7048,-1.7609,-1.7862,-1.7995,-1.8075,-1.8648,0.0,0.0,-1.9265,-1.943,0.0,-1.9038,0.0,0.0,-1.8182,-1.7836,-1.7582,-1.7582,-1.7582,-1.7649,0.0,0.0,0.0,-1.8758,0.0,0.0,-1.9639,0.0,0.0,0.0,0.0,0.0,0.0,0.0,0.0,0.0,0.0,0.0,0.0,0.0,0.0,0.0,0.0,0.0,0.0,0.0,0.0,0.0,-2.1109,-2.1109,-2.1109,-2.1109,-2.1109,-2.1109,-2.1109,-2.1109,-2.1109,-2.1109,-2.1109,-2.1109,-2.1109,-2.1109,-2.1109,-2.1109,-2.1109,-2.1109,-2.1096,-2.1096,-2.1069,-2.0788,-2.0494,-2.0187,-1.9907,-1.9613,-1.943,-1.943,-1.943,-1.943,0.0,0.0,0.0,0.0,0.0,-2.2704,-2.1894,-2.1846,-2.1624,0.0,0.0,0.0,-1.9228,-1.8105,-1.7268,-1.6884,-1.6366,-1.6072,-1.6072,-1.5805,-1.5538,-1.5383,-1.5044,-1.4776,-1.4576,-1.4856,-1.5003,-1.5003,-1.5297,-1.545,-1.537,-1.537,-1.5391,-1.5511,-1.5511,-1.5965,-1.67,-1.67,0.0,-1.7609,-1.7862,-1.8183,0.0,0.0,0.0,0.0,0.0,-1.943,-1.9417,0.0,-1.9105,-1.8768,0.0,-1.7836,-1.7582,-1.7582,-1.7582,-1.7595,-1.7689,0.0,0.0,0.0,0.0,0.0,0.0,0.0,0.0,0.0,0.0,0.0,0.0,0.0,0.0,0.0,0.0,0.0,0.0,0.0,0.0,0.0,0.0,0.0,0.0,0.0,0.0,0.0,-2.1109,-2.1109,-2.1109,-2.1109,-2.1109,-2.1109,-2.1109,-2.1109,-2.1109,-2.1109,-2.1109,-2.1109,-2.1109,-2.1109,-2.1109,-2.1109,-2.1109,-2.1096,-2.0882,-2.0802,-2.0775,-2.0481,-2.0187,-1.9893,-1.9599,-1.9497,-1.943,-1.943,-1.943,-1.943,0.0,0.0,-2.224,-2.224,-2.1858,-2.1294,-2.057,-2.0466,-2.0229,0.0,0.0,0.0,-1.8513,-1.7565,-1.6847,-1.6714,-1.6286,-1.5965,-1.5784,-1.5565,-1.5324,-1.515,-1.475,-1.4442,-1.4269,-1.4429,-1.4522,-1.4522,-1.4816,-1.5008,-1.5008,-1.5008,-1.5124,-1.5391,-1.5391,-1.5885,-1.67,-1.67,0.0,0.0,-1.8103,0.0,0.0,-1.8998,-1.9212,0.0,0.0,0.0,-1.9533,-1.947,-1.9172,0.0,0.0,-1.8023,-1.7756,-1.7622,-1.7582,-1.7582,-1.7582,-1.7716,-1.7876,-1.7955,0.0,0.0,0.0,-1.8971,0.0,0.0,0.0,0.0,0.0,0.0,0.0,0.0,0.0,0.0,0.0,0.0,0.0,0.0,0.0,0.0,0.0,-2.1109,-2.1109,-2.1109,-2.1109,-2.1109,-2.1109,-2.1109,-2.1109,-2.1109,-2.1109,-2.1109,-2.1109,-2.1109,-2.1109,-2.1109,-2.1109,-2.1109,-2.1109,-2.1109,-2.1042,-2.0922,-2.0748,-2.0535,-2.0294,-2.012,-1.9947,-1.9773,-1.9479,-1.943,-1.943,-1.943,-1.943,-1.943,0.0,0.0,-2.0901,-2.0901,-2.0,-1.9078,-1.8531,-1.8437,-1.8237,0.0,-1.7582,-1.7582,-1.7582,-1.738,-1.7099,-1.678,-1.6486,-1.6192,-1.5899,-1.5631,-1.5471,-1.5404,-1.4897,-1.4589,-1.4522,-1.4522,-1.4509,-1.4469,-1.4736,-1.4914,-1.4914,-1.4941,-1.507,-1.5351,-1.5378,-1.5885,-1.67,-1.67,0.0,-1.8062,-1.8384,-1.8664,0.0,0.0,-1.9444,-1.9412,-1.9412,-1.9599,-1.98,-1.9506,-1.9199,0.0,0.0,0.0,-1.7982,-1.7729,-1.7635,-1.7622,-1.7595,-1.7582,-1.7649,-1.7929,-1.7942,0.0,-1.837,-1.8637,0.0,0.0,0.0,0.0,0.0,0.0,0.0,0.0,0.0,0.0,0.0,0.0,0.0,0.0,0.0,0.0,-2.0989,-2.1015,-2.1015,-2.1015,-2.1042,-2.1069,-2.1069,-2.1096,-2.1109,-2.1109,-2.1109,-2.1109,-2.1109,-2.1109,-2.1109,-2.1109,-2.1109,-2.1109,-2.1109,-2.1109,-2.0949,-2.0681,-2.0641,-2.0307,-1.98,-1.976,-1.976,-1.9733,-1.9466,-1.943,-1.943,-1.943,-1.943,-1.943,-1.9584,-1.9209,-1.9041,-1.9041,-1.8832,-1.8544,-1.8129,-1.8075,-1.7996,-1.7622,-1.7582,-1.7582,-1.7582,-1.738,-1.7179,-1.7125,-1.6794,-1.65,-1.6206,-1.6139,-1.5885,-1.5418,-1.5284,-1.5003,-1.4536,-1.4522,-1.4402,-1.4175,-1.4229,-1.4255,-1.4269,-1.4496,-1.4763,-1.5102,-1.5297,-1.5885,-1.67,-1.67,0.0,-1.841,-1.8464,0.0,-1.8958,-1.9252,-1.9506,-1.972,-1.972,-1.9907,-2.0107,-1.9813,-1.9359,-1.8918,0.0,0.0,0.0,-1.805,-1.7943,-1.7876,-1.7649,-1.7582,-1.7595,-1.7662,-1.7675,0.0,-1.8009,-1.8129,0.0,0.0,0.0,0.0,0.0,0.0,0.0,0.0,0.0,0.0,0.0,0.0,0.0,0.0,0.0,0.0,-2.0401,-2.0401,-2.0401,-2.0401,-2.0628,-2.0762,-2.0762,-2.0989,-2.1109,-2.1109,-2.1109,-2.1109,-2.1109,-2.1109,-2.1109,-2.1109,-2.1109,-2.1109,-2.1109,-2.1109,-2.0949,-2.0655,-2.0428,-2.012,-1.9786,-1.9546,-1.9511,-1.9452,-1.9444,-1.943,-1.943,-1.943,-1.943,-1.943,-1.8574,-1.849,-1.849,-1.849,-1.849,-1.8397,-1.8035,-1.7995,-1.7876,-1.7622,-1.7582,-1.7582,-1.7582,-1.7501,-1.7367,-1.7219,-1.7058,-1.6807,-1.6513,-1.6353,-1.6187,-1.5845,-1.5551,-1.519,-1.475,-1.4603,-1.4376,-1.4082,-1.4082,-1.4082,-1.4095,-1.4389,-1.475,-1.519,-1.5484,-1.6099,-1.6927,-1.6927,-1.7528,-1.849,-1.849,0.0,-1.9172,-1.9466,-1.9679,-1.9813,-1.996,-2.0107,-2.0153,-2.0067,-1.972,0.0,0.0,-1.8824,-1.8624,0.0,-1.7982,-1.7969,-1.7662,-1.7582,-1.7582,-1.7582,-1.7582,0.0,0.0,0.0,0.0,0.0,0.0,0.0,0.0,0.0,0.0,0.0,0.0,0.0,0.0,0.0,0.0,0.0,0.0,0.0,-2.0214,-2.0167,-2.0167,-2.0167,-2.0374,-2.0454,-2.0454,-2.0588,-2.0735,-2.0895,-2.0895,-2.0962,-2.1109,-2.1109,-2.1109,-2.1109,-2.1109,-2.1109,-2.1109,-2.0962,-2.0735,-2.0441,-2.0147,-1.9853,-1.9573,-1.9484,-1.943,-1.943,-1.943,-1.943,-1.943,-1.943,-1.943,-1.943,-1.8263,-1.8317,-1.8317,-1.8317,-1.8317,-1.8237,-1.7942,-1.7902,-1.7862,-1.7609,-1.7582,-1.7582,-1.7582,-1.7582,-1.7488,-1.73,-1.7286,-1.7152,-1.6807,-1.6567,-1.6469,-1.6366,-1.5845,-1.5431,-1.5182,-1.4843,-1.4549,-1.4255,-1.4202,-1.4202,-1.4269,-1.4496,-1.4883,-1.5404,-1.5765,-1.6339,-1.7125,0.0,0.0,-1.849,0.0,-1.8931,-1.9479,-1.9706,-1.9867,-2.0013,-2.0294,-2.0361,-2.0321,-2.0321,-2.012,-1.9786,-1.9265,-1.9092,0.0,0.0,0.0,0.0,0.0,-1.7622,-1.7582,-1.7582,0.0,-1.7582,0.0,0.0,0.0,0.0,0.0,0.0,0.0,0.0,0.0,0.0,0.0,0.0,0.0,0.0,0.0,0.0,0.0,0.0,0.0,-2.0027,-2.0067,-2.0067,-2.012,-2.0147,-2.0147,-2.014,-2.0347,-2.0588,-2.0588,-2.0708,-2.0935,-2.1002,-2.1029,-2.1029,-2.1029,-2.1029,-2.1015,-2.0722,-2.0428,-2.0134,-1.9907,-1.9639,-1.943,-1.943,-1.943,-1.943,-1.943,-1.943,-1.943,-1.943,-1.9533,-1.9764,-1.7675,-1.7689,-1.7689,-1.7689,-1.7689,-1.7675,-1.7635,-1.7635,-1.7622,-1.7582,-1.7582,-1.7582,-1.7582,-1.7582,-1.7569,-1.7542,-1.7528,-1.746,-1.7166,-1.7125,-1.6978,-1.666,-1.6353,-1.6032,-1.5738,-1.5444,-1.515,-1.4914,-1.4603,-1.4603,-1.4914,-1.4941,-1.5129,-1.5418,-1.5979,-1.642,-1.6794,0.0,-1.7903,0.0,-1.8771,-1.9225,0.0,-1.9786,-2.012,-2.0615,-2.0909,-2.0842,-2.0628,0.0,-2.0428,-2.0134,0.0,-1.9706,-1.9586,-1.8998,0.0,0.0,0.0,0.0,0.0,0.0,-1.7582,0.0,0.0,0.0,-1.73,-1.73,0.0,0.0,0.0,0.0,0.0,0.0,0.0,0.0,0.0,0.0,0.0,0.0,0.0,0.0,0.0,0.0,-1.9466,-1.9466,-1.9706,-1.9853,-1.9853,-2.0094,-2.0254,-2.0281,-2.0281,-2.0294,-2.0273,-2.0588,-2.0722,-2.0722,-2.0722,-2.0722,-2.0722,-2.0414,-2.012,-1.984,-1.9813,-1.9639,-1.943,-1.943,-1.943,-1.943,-1.943,-1.943,-1.943,-1.943,-2.0111,-2.1002,-1.7582,-1.7582,-1.7582,-1.7582,-1.7582,-1.7582,-1.7582,-1.7729,-1.7836,-1.7849,-1.7996,-1.8103,-1.8103,-1.8103,-1.8036,-1.7862,0.0,-1.7729,0.0,0.0,-1.7152,-1.7018,-1.6576,-1.6126,-1.5784,-1.5551,-1.5257,-1.5008,-1.4843,-1.4843,-1.5008,-1.5182,-1.5378,-1.5671,-1.6259,-1.6687,-1.7058,0.0,-1.8103,0.0,0.0,0.0,0.0,-2.0054,-2.0414,-2.0949,-2.1069,-2.1029,-2.0895,0.0,-2.0601,0.0,0.0,0.0,0.0,0.0,0.0,0.0,0.0,0.0,0.0,0.0,0.0,0.0,-1.7582,0.0,-1.7407,0.0,0.0,0.0,0.0,0.0,0.0,0.0,0.0,0.0,0.0,0.0,0.0,0.0,0.0,0.0,0.0,0.0,0.0,0.0,0.0,-1.9546,-1.9546,-1.9666,-1.9813,-1.9973,-1.9987,-2.0067,-2.0167,-2.0361,-2.0414,-2.0414,-2.0414,-2.0414,-2.0414,-2.012,-1.992,-1.9786,-1.9626,-1.9479,-1.943,-1.943,-1.943,-1.943,-1.943,-1.943,-1.943,-1.943,-1.9707,-2.027,-1.7582,-1.7582,-1.7582,-1.7582,-1.7582,-1.7582,-1.7582,-1.7836,-1.7969,-1.7995,-1.8303,-1.849,-1.849,-1.849,0.0,0.0,-1.8115,-1.8036,0.0,0.0,-1.7407,-1.7326,-1.6831,-1.638,-1.6024,-1.5778,-1.5498,-1.5204,-1.5169,-1.5169,-1.5204,-1.5337,-1.5551,-1.5811,-1.6446,-1.682,-1.7125,0.0,-1.829,-1.8517,-1.8891,-1.9519,-2.0193,-2.0353,-2.0735,-2.1109,-2.1109,-2.1109,-2.1082,-2.0869,-2.0802,0.0,-2.0201,0.0,0.0,0.0,0.0,0.0,-1.8355,0.0,0.0,0.0,0.0,0.0,0.0,0.0,0.0,0.0,0.0,0.0,0.0,0.0,0.0,0.0,0.0,0.0,0.0,0.0,0.0,0.0,0.0,0.0,0.0,0.0,0.0,0.0,0.0,0.0,-1.9417,-1.943,-1.9466,-1.9679,-1.9679,-1.9786,-2.0,-2.0067,-2.0107,-2.0107,-2.0107,-2.0107,-2.0107,-1.9813,-1.9679,-1.9666,-1.9452,-1.943,-1.943,-1.943,-1.943,-1.943,-1.943,-1.943,-1.943,-1.943,-1.9822,-2.05,-1.7582,-1.7582,-1.7582,-1.7582,-1.7582,-1.7582,-1.7582,-1.7849,-1.7995,-1.7995,-1.8303,0.0,0.0,0.0,0.0,0.0,0.0,-1.8343,-1.7995,0.0,-1.7876,-1.7582,-1.734,-1.7032,0.0,-1.6393,-1.6099,-1.5758,-1.5524,-1.5524,-1.5744,-1.5524,-1.5551,-1.5811,-1.6446,-1.6714,-1.6794,-1.7983,-1.8477,-1.8544,-1.9176,-1.9706,-2.0233,0.0,-2.1096,-2.1109,-2.1109,0.0,0.0,-2.1096,-2.1096,0.0,0.0,0.0,0.0,0.0,0.0,0.0,0.0,0.0,0.0,-1.7982,0.0,0.0,0.0,0.0,-1.7125,0.0,0.0,0.0,0.0,0.0,-1.6286,-1.6286,0.0,0.0,0.0,0.0,0.0,0.0,0.0,0.0,0.0,0.0,0.0,0.0,0.0,0.0,-1.9359,-1.943,-1.943,-1.9386,-1.9386,-1.9444,-1.9457,-1.9679,-1.9813,-1.9813,-1.9813,-1.9813,-1.98,-1.9519,-1.9386,-1.9386,-1.943,-1.943,-1.943,-1.943,-1.943,-1.943,-1.943,-1.943,-1.943,-1.943,-2.0888,-2.2862,-1.7582,-1.7582,-1.7582,-1.7582,-1.7582,-1.7649,-1.7862,-1.8143,0.0,0.0,0.0,0.0,0.0,-1.9078,-1.8985,0.0,0.0,-1.8651,-1.8357,-1.8343,0.0,0.0,0.0,-1.7208,0.0,-1.642,-1.6126,-1.5784,-1.5725,-1.5725,-1.5784,-1.5725,-1.5691,-1.5811,-1.6446,-1.67,0.0,0.0,0.0,0.0,0.0,-2.0054,-2.0294,0.0,0.0,-2.1109,-2.1109,-2.1109,0.0,-2.1109,-2.1109,-2.1056,-2.0762,-2.0601,-2.0428,-1.9947,-1.9653,-1.9426,0.0,0.0,-1.8528,-1.8384,0.0,0.0,0.0,0.0,0.0,0.0,0.0,0.0,0.0,0.0,-1.5979,-1.5979,-1.6059,0.0,0.0,0.0,0.0,0.0,0.0,0.0,0.0,0.0,0.0,0.0,0.0,0.0,0.0,-1.9078,-1.9158,-1.9417,-1.943,-1.943,-1.943,-1.9466,-1.9519,-1.9519,-1.9519,-1.9519,-1.9506,-1.947,-1.943,-1.943,-1.943,-1.943,-1.943,-1.943,-1.943,-1.943,-1.943,-1.943,-1.9488,-2.027,-2.1117,-2.207,-1.7582,-1.7582,-1.7582,-1.7582,-1.7675,-1.7809,-1.7955,0.0,0.0,0.0,-1.9185,0.0,-1.943,0.0,-1.9292,0.0,-1.9078,-1.8958,-1.8664,-1.8651,0.0,-1.8009,-1.7849,0.0,0.0,0.0,-1.6286,-1.5992,-1.5885,-1.5784,-1.5784,-1.5784,-1.5784,-1.5811,-1.6446,-1.67,-1.678,-1.7983,-1.849,0.0,0.0,-2.0167,0.0,0.0,-2.1109,-2.1109,0.0,-2.1109,-2.1109,-2.1109,-2.1109,-2.1082,-2.0895,-2.0762,-2.0601,-2.0227,-1.996,-1.972,-1.9345,-1.9078,0.0,-1.8691,-1.8424,0.0,-1.8022,0.0,-1.7635,0.0,0.0,0.0,0.0,0.0,0.0,-1.5992,0.0,0.0,0.0,0.0,0.0,0.0,0.0,0.0,0.0,0.0,0.0,0.0,0.0,0.0,0.0,0.0,-1.9011,-1.9199,-1.9319,-1.943,-1.943,-1.943,-1.943,-1.943,-1.943,-1.943,-1.943,-1.943,-1.943,-1.943,-1.943,-1.943,-1.943,-1.943,-1.943,-1.943,-1.943,-1.943,-1.9546,-2.073,-2.1744,-2.2805,-1.7529,-1.7529,-1.7529,-1.7609,-1.7849,0.0,0.0,0.0,-1.8931,0.0,-1.9199,-1.943,-1.943,-1.943,-1.943,-1.943,-1.943,-1.9252,-1.8958,-1.8945,0.0,0.0,-1.8022,-1.7782,-1.7233,0.0,0.0,0.0,-1.5992,-1.5798,-1.5784,-1.5784,-1.5784,-1.5811,-1.6446,0.0,-1.678,-1.7983,-1.8504,-1.8637,-1.9773,-2.0167,-2.0294,-2.0882,-2.1109,-2.1109,-2.1109,-2.1109,-2.1109,-2.1109,-2.1109,-2.1109,-2.1109,-2.0922,-2.0695,-2.0681,-2.0281,-1.984,-1.9813,-1.9386,-1.8958,-1.8945,-1.8731,0.0,0.0,0.0,-1.7876,0.0,0.0,0.0,0.0,0.0,0.0,0.0,0.0,0.0,0.0,0.0,0.0,0.0,0.0,0.0,0.0,0.0,0.0,0.0,0.0,0.0,0.0,0.0,-1.8905,-1.8918,-1.9212,-1.943,-1.943,-1.943,-1.943,-1.943,-1.943,-1.943,-1.943,-1.943,-1.943,-1.943,-1.943,-1.943,-1.943,-1.943,-1.943,-1.943,-1.943,-1.9488,-1.9707,-2.0888,-2.2805,-2.511,-1.634,-1.634,-1.6681,0.0,-1.7942,-1.8062,0.0,0.0,0.0,0.0,-1.9377,-1.943,-1.943,-1.943,-1.943,-1.943,-1.943,0.0,0.0,0.0,0.0,-1.8718,-1.849,-1.809,-1.7488,-1.7233,0.0,-1.6321,0.0,-1.6046,-1.5784,-1.5784,-1.5784,-1.5811,-1.6446,-1.67,-1.678,-1.7983,-1.8744,-1.9212,-1.9933,-2.0167,0.0,0.0,-2.1109,-2.1109,-2.1109,-2.1109,-2.1109,-2.1109,-2.1109,-2.1109,-2.1109,-2.1056,-2.0949,-2.0735,-2.0575,-2.0361,-1.992,-1.9693,-1.9519,-1.9305,-1.9038,-1.8798,0.0,0.0,0.0,0.0,0.0,0.0,0.0,0.0,0.0,0.0,0.0,0.0,0.0,0.0,0.0,0.0,0.0,0.0,0.0,0.0,0.0,0.0,0.0,0.0,0.0,0.0,0.0,-1.8918,-1.9212,-1.943,-1.943,-1.943,-1.943,-1.943,-1.943,-1.943,-1.943,-1.943,-1.943,-1.943,-1.943,-1.943,-1.943,-1.943,-1.943,-1.943,-1.943,-2.05,-2.2127,-2.241,-2.4206,-2.6554,-1.5125,-1.5194,0.0,-1.7009,0.0,0.0,-1.8539,-1.8931,0.0,-1.9403,-1.943,0.0,-1.943,-1.943,-1.943,-1.943,-1.943,0.0,-1.943,0.0,0.0,-1.8931,-1.8771,-1.8397,-1.7796,-1.7488,0.0,-1.646,0.0,0.0,-1.5784,-1.5784,-1.5899,-1.6046,0.0,-1.678,-1.6967,-1.8036,-1.8905,-1.9599,-2.0054,0.0,0.0,-2.0029,-1.9814,-1.9304,-1.9304,-2.0081,-2.1109,-2.1109,-2.1109,-2.1109,-2.1109,-2.1109,-2.1082,-2.0909,-2.0775,-2.0601,-2.0281,-2.0,-1.976,-1.9599,-1.9332,-1.9078,-1.8958,-1.8664,-1.8384,0.0,-1.7862,-1.7542,0.0,0.0,0.0,0.0,0.0,0.0,0.0,0.0,0.0,0.0,0.0,0.0,0.0,0.0,0.0,0.0,0.0,0.0,0.0,0.0,0.0,-1.8731,-1.9025,-1.9239,-1.943,-1.943,-1.943,-1.943,-1.943,-1.943,-1.943,-1.943,-1.943,-1.943,-1.943,-1.943,-1.943,-1.943,-1.943,-1.943,-1.9996,-2.1345,-2.3087,-2.3687,-2.5258,-2.7043,-1.3995,0.0,0.0,0.0,0.0,0.0,0.0,-1.9199,0.0,-1.9359,0.0,-1.9386,-1.9412,-1.9367,-1.9439,-1.9479,0.0,-1.9426,-1.9426,-1.9444,-1.9252,-1.8998,-1.8945,-1.8635,-1.8115,-1.7822,0.0,0.0,0.0,-1.6038,-1.57,-1.5556,-1.5638,-1.5934,0.0,0.0,0.0,-1.7978,-1.8797,-1.9516,-1.9624,-1.9161,-1.836,-1.8621,-1.8011,-1.698,-1.698,-1.8524,-2.0589,-2.0589,-2.0589,-2.0589,-2.0589,-2.0589,-2.0589,-2.0589,-2.042,-2.0273,-2.0371,-2.0051,-1.9655,-1.9754,-1.9613,-1.9345,-1.9052,-1.8958,-1.8851,-1.8597,-1.8317,-1.8035,0.0,0.0,0.0,0.0,0.0,0.0,0.0,0.0,0.0,0.0,0.0,0.0,0.0,0.0,0.0,0.0,0.0,0.0,0.0,0.0,0.0,-1.8424,-1.8758,-1.9052,-1.9305,0.0,-1.943,-1.943,-1.943,-1.943,-1.943,-1.943,-1.943,-1.943,-1.943,-1.943,-1.943,-1.943,-1.9475,-1.9764,-2.0945,-2.2184,-2.3424,-2.4855,-2.6082,-2.7098,-1.321,0.0,0.0,0.0,0.0,-1.7416,-1.8706,-1.9203,-1.9301,-1.8997,-1.9243,-1.9394,-1.9325,-1.9305,-1.9529,-2.0007,-1.9628,0.0,0.0,0.0,0.0,-1.9292,-1.9052,-1.8878,-1.8715,-1.8182,-1.7782,0.0,0.0,-1.5389,-1.5132,-1.4178,-1.3796,-1.3841,0.0,0.0,-1.6888,-1.7121,0.0,-1.7997,-1.7276,-1.697,-1.6899,-1.7204,-1.7173,-1.698,-1.698,-1.7302,-1.7753,-1.7753,-1.7753,-1.7753,-1.7753,-1.7753,-1.7753,-1.7753,-1.7655,-1.7832,-1.871,-1.8889,-1.8964,-1.9608,-1.976,-1.9653,-1.9359,-1.9105,-1.8905,-1.8865,-1.8611,-1.8343,-1.8035,0.0,0.0,0.0,0.0,0.0,0.0,0.0,0.0,0.0,0.0,0.0,0.0,0.0,0.0,0.0,0.0,0.0,0.0,0.0,0.0,0.0,-1.8637,0.0,0.0,0.0,-1.943,-1.943,-1.943,-1.943,-1.943,-1.943,-1.943,-1.943,-1.943,-1.943,-1.943,-1.943,-1.9996,-2.1002,-2.2184,-2.3424,-2.4667,-2.5898,-2.6791,-2.7368,-1.2078,0.0,0.0,0.0,0.0,0.0,0.0,-1.8894,-1.905,-1.8894,-1.9141,-1.9358,-1.9298,-1.9395,-1.9598,-1.9924,-1.9805,-1.978,-1.9813,-1.9666,-1.9533,-1.943,-1.9225,0.0,-1.8931,-1.8651,-1.8196,-1.7582,0.0,-1.5411,-1.4963,-1.3846,-1.3348,-1.3527,0.0,-1.5674,0.0,0.0,0.0,-1.6902,-1.6462,-1.6045,-1.5663,-1.5838,-1.5489,-1.4847,-1.4847,-1.4847,-1.5043,-1.6527,-1.698,-1.698,-1.698,-1.698,-1.698,-1.698,-1.698,-1.7269,-1.8498,-1.8683,-1.8901,-2.0016,-2.0027,-1.976,-1.9626,-1.9359,-1.9158,-1.9158,-1.8918,-1.8584,-1.8075,-1.7809,0.0,0.0,0.0,0.0,0.0,0.0,0.0,0.0,0.0,0.0,0.0,0.0,0.0,0.0,0.0,0.0,0.0,0.0,0.0,0.0,0.0,0.0,0.0,0.0,0.0,-1.943,-1.943,-1.943,-1.943,-1.943,-1.943,-1.943,-1.943,-1.943,-1.943,-2.0111,-2.0673,-2.1402,-2.3199,-2.4278,-2.5,-2.6445,-2.7171,-2.7422,0.0,-1.2565,0.0,0.0,-1.6096,0.0,-1.8269,-1.8635,-1.8805,-1.8764,-1.9055,-1.9262,-1.9266,-1.9459,-1.9614,-1.9753,-1.9872,-1.9924,-1.976,-1.9688,-1.9516,-1.9291,-1.9224,-1.9079,-1.8897,-1.8831,-1.8515,0.0,0.0,0.0,-1.4742,-1.336,-1.2985,-1.3582,0.0,0.0,0.0,0.0,-1.6558,-1.6196,-1.5649,-1.5042,-1.4455,-1.4455,-1.3744,-1.2774,-1.2774,-1.2774,-1.3161,-1.5359,-1.6138,-1.6138,-1.6138,-1.6138,-1.6138,-1.6138,-1.6138,-1.6462,-1.8139,-1.8435,-1.8647,-2.0309,-2.0334,-1.996,-1.9826,-1.9626,-1.9439,-1.9386,-1.9132,-1.8728,-1.8262,-1.8075,0.0,0.0,0.0,0.0,0.0,0.0,0.0,0.0,0.0,0.0,0.0,0.0,0.0,0.0,0.0,0.0,0.0,0.0,0.0,0.0,0.0,-1.8597,-1.8824,0.0,-1.943,-1.943,-1.943,-1.943,-1.943,-1.943,-1.943,-1.943,-1.943,-1.943,-1.9475,-2.073,-2.1345,-2.1801,-2.3927,-2.4944,-2.5348,-2.6718,-2.7279,-2.7314,0.0,0.0,0.0,0.0,0.0,0.0,-1.8235,-1.8643,-1.8703,-1.8451,-1.8917,-1.9183,-1.92,-1.9175,-1.9425,-2.0005,-1.9525,-1.9374,-1.9685,-1.9188,-1.8881,-1.8856,-1.8614,-1.8635,-1.89,-1.8581,-1.8582,0.0,0.0,-1.4213,-1.4011,-1.1684,-1.1443,-1.306,0.0,0.0,0.0,-1.6143,-1.5877,-1.5897,-1.3609,-1.2772,-1.303,-1.303,-1.2898,-1.2774,-1.2774,-1.2774,-1.284,-1.3095,-1.3161,-1.3161,-1.3161,-1.3161,-1.3161,-1.3161,-1.3161,-1.3809,-1.6462,-1.7152,-1.7727,-2.0099,-2.0641,-2.0454,-1.992,-1.9773,-1.9679,-1.9426,-1.9132,-1.8905,-1.8851,-1.8355,-1.7969,0.0,0.0,0.0,0.0,0.0,0.0,0.0,0.0,0.0,0.0,0.0,0.0,0.0,0.0,0.0,0.0,0.0,0.0,-1.7609,0.0,-1.8504,-1.8531,-1.9092,-1.943,-1.943,-1.943,-1.943,-1.943,-1.943,-1.943,-1.943,-1.943,-1.943,-1.9475,-2.073,-2.1843,-2.2974,-2.4278,-2.5459,-2.6482,-2.6646,-2.6845,-2.7043,0.0,0.0,0.0,0.0,0.0,0.0,0.0,-1.857,-1.8668,-1.8606,-1.8877,-1.9162,-1.9162,-1.9311,-1.9523,-1.9763,-1.9738,-1.9676,-1.9699,-1.9483,-1.9191,-1.8847,-1.872,-1.8652,-1.859,-1.8474,-1.8448,0.0,0.0,0.0,-1.4198,-1.2469,-1.2552,-1.4102,0.0,-1.43,-1.4761,-1.4577,-1.4215,-1.3734,-1.2683,-1.2515,-1.2774,-1.2774,-1.27,-1.251,-1.251,-1.251,-1.2444,-1.2246,-1.2444,-1.2774,-1.2774,-1.2774,-1.2774,-1.2774,-1.2774,-1.3227,-1.5229,-1.5749,-1.6377,-1.903,-1.9525,-1.9598,-2.0191,-2.0054,-1.9773,-1.9653,-1.9399,-1.9132,-1.8958,-1.8675,-1.8395,-1.8049,0.0,0.0,0.0,0.0,0.0,0.0,0.0,0.0,0.0,0.0,0.0,0.0,0.0,0.0,0.0,0.0,0.0,-1.7569,0.0,-1.849,-1.849,-1.9078,-1.943,-1.943,-1.943,-1.943,-1.943,-1.943,-1.943,-1.943,-1.943,-1.943,-1.9533,-2.146,-2.258,-2.3199,-2.5128,-2.619,-2.6646,-2.6791,-2.6881,-2.7043,-1.5243,0.0,-1.6669,0.0,-1.7756,-1.8398,-1.8434,-1.8565,-1.871,-1.8794,-1.8984,-1.9097,-1.9097,-1.9333,-1.9456,-1.9456,-1.9647,-1.97,-1.9512,-1.9425,-1.9199,-1.8799,-1.8624,0.0,-1.8378,-1.8349,-1.8326,-1.8396,-1.6056,0.0,-1.4358,-1.2777,-1.2899,-1.4453,-1.3751,-1.3615,-1.3869,-1.3784,-1.3355,-1.2674,-1.2361,-1.2306,-1.251,-1.251,-1.2379,-1.2173,-1.2173,-1.2173,-1.2114,-1.1909,-1.2114,-1.251,-1.2642,-1.2708,-1.2774,-1.2774,-1.2774,-1.3095,-1.452,-1.4912,-1.5554,-1.8332,-1.8574,-1.8482,-1.9799,-1.9659,-1.9389,-1.9647,-1.9506,-1.9305,-1.9092,-1.8985,-1.8784,-1.8315,0.0,0.0,0.0,0.0,0.0,0.0,-1.7246,-1.7152,-1.6981,0.0,0.0,0.0,0.0,0.0,0.0,0.0,0.0,0.0,0.0,0.0,0.0,-1.9078,-1.943,-1.943,-1.943,-1.943,-1.943,-1.943,-1.943,-1.943,-1.943,-1.943,-1.9591,-2.2013,-2.2974,-2.3255,-2.5679,-2.6591,-2.6646,-2.6791,-2.6899,-2.6881,-1.6702,-1.6887,-1.7207,-1.8103,-1.8287,-1.8372,-1.8638,-1.8686,-1.8782,-1.9036,-1.9072,-1.9072,-1.9072,-1.9072,-1.9136,-1.9136,-1.9136,-1.9136,-1.9136,-1.8831,-1.8686,0.0,0.0,-1.8057,-1.8369,-1.8168,-1.8135,-1.8415,0.0,0.0,-1.4238,-1.1826,-1.1712,-1.3421,-1.3421,-1.4182,-1.5521,-1.4367,-1.3782,-1.3609,-1.2475,-1.1953,-1.1784,-1.1784,-1.1784,-1.1784,-1.1784,-1.1784,-1.1784,-1.1776,-1.1784,-1.185,-1.2173,-1.2503,-1.2774,-1.2774,-1.2774,-1.3095,-1.452,-1.4912,-1.5554,-1.8332,-1.7999,-1.7301,-1.8396,-1.8444,-1.8471,-1.9245,-1.943,-1.943,-1.9359,-1.9118,-1.8918,-1.8918,0.0,0.0,0.0,0.0,0.0,0.0,-1.738,-1.7313,-1.7542,0.0,0.0,0.0,0.0,0.0,0.0,0.0,0.0,-1.7582,-1.817,0.0,-1.849,-1.9078,-1.943,-1.943,-1.943,-1.943,-1.943,-1.943,-1.943,-1.943,-1.943,-1.943,-1.9591,-2.2013,-2.2974,-2.3255,-2.5679,-2.6591,-2.6591,-2.6591,-2.6591,-2.6591,-1.7784,-1.7845,-1.8028,-1.8467,-1.8565,-1.865,-1.8915,-1.8951,-1.8976,-1.906,-1.9072,-1.9072,-1.9072,-1.9072,-1.9072,0.0,-1.9072,-1.9072,0.0,-1.9,-1.8867,-1.8686,-1.8517,-1.8313,-1.8069,-1.7984,-1.7529,-1.6738,0.0,0.0,0.0,-1.1552,-1.1795,-1.357,-1.2696,-1.2621,-1.31,-1.2733,-1.2761,-1.2922,-1.254,-1.2279,-1.2107,-1.2107,-1.1843,-1.138,-1.138,-1.138,-1.138,-1.1115,-1.138,-1.1776,-1.1578,-1.1776,-1.218,-1.2371,-1.2444,-1.2568,-1.3021,-1.3284,-1.3875,-1.5489,-1.5684,-1.5923,-1.7204,-1.7878,-1.8459,-1.9496,-1.9506,-1.943,-1.943,-1.9292,-1.9158,-1.8958,-1.8851,0.0,-1.8384,0.0,0.0,0.0,-1.7822,-1.7716,0.0,-1.7408,0.0,0.0,0.0,0.0,0.0,0.0,0.0,0.0,-1.8277,0.0,-1.8784,-1.9172,-1.943,-1.943,-1.943,-1.943,-1.943,-1.943,-1.943,-1.943,-1.943,-1.943,-1.9546,-2.1117,-2.224,-2.3143,-2.4723,-2.5861,-2.6591,-2.6591,-2.6591,-2.6591,-1.8589,-1.8589,-1.8638,-1.8807,-1.8831,-1.8891,-1.9048,-1.9072,-1.9072,-1.9072,-1.9072,-1.9072,-1.9072,-1.9072,0.0,-1.9072,-1.9072,-1.9072,-1.9072,-1.9072,-1.9,-1.8843,-1.8734,-1.8268,-1.7433,-1.7329,0.0,-1.5199,-1.3822,-1.3006,-1.2697,-1.1382,-1.1511,-1.2775,-1.1894,-1.1624,-1.1789,-1.1799,-1.198,-1.2177,-1.2248,-1.2146,-1.1909,-1.1909,-1.1512,-1.0982,-1.0982,-1.0982,-1.0982,-1.0784,-1.0982,-1.1314,-1.1115,-1.1181,-1.1446,-1.1975,-1.2114,-1.2114,-1.2114,-1.2246,-1.2766,-1.4063,-1.4193,-1.4306,-1.5713,-1.6297,-1.687,-1.8034,-1.8488,-1.8706,-1.8706,-1.9068,-1.9305,-1.9118,-1.9092,-1.8985,-1.8691,0.0,-1.8544,0.0,0.0,0.0,0.0,-1.7929,-1.7929,0.0,0.0,0.0,0.0,0.0,0.0,-1.7969,-1.8437,0.0,-1.8918,-1.9225,-1.943,-1.943,-1.943,-1.943,-1.943,-1.943,-1.943,-1.943,-1.943,-1.943,-1.9533,-2.1174,-2.2297,-2.3143,-2.4834,-2.5971,-2.6591,-2.6591,-2.6591,-2.6591,-1.8944,-1.9008,-1.9072,-1.9072,-1.9072,-1.9072,-1.9072,-1.9072,-1.9072,-1.9072,-1.9072,-1.9072,-1.9072,-1.9072,-1.9072,-1.9072,0.0,0.0,-1.9072,-1.9072,-1.9072,-1.9072,-1.8843,-1.8057,-1.6624,-1.6357,-1.5443,-1.3793,-1.2656,-1.2268,-1.2561,-1.1361,-1.1005,-1.1255,-1.111,-1.1185,-1.1526,-1.1524,-1.1531,-1.156,-1.1717,-1.1578,-1.1181,-1.1181,-1.0982,-1.0717,-1.0717,-1.0717,-1.0717,-1.0717,-1.0717,-1.0717,-1.0717,-1.0717,-1.085,-1.1578,-1.1784,-1.1784,-1.1784,-1.1776,-1.2173,-1.3792,-1.3218,-1.266,-1.4088,-1.406,-1.4098,-1.5491,-1.6686,-1.7513,-1.7513,-1.8532,-1.943,-1.943,-1.943,-1.9265,-1.8998,-1.8958,-1.8838,0.0,0.0,0.0,0.0,-1.849,-1.849,0.0,0.0,0.0,0.0,0.0,-1.8049,-1.8049,-1.8582,-1.8931,-1.8958,-1.9225,-1.943,-1.943,-1.943,-1.943,-1.943,-1.943,-1.943,-1.943,-1.943,-1.943,-1.9591,-2.19,-2.2918,-2.3199,-2.5569,-2.6537,-2.6591,-2.6591,-2.6591,-2.6646,0.0,0.0,-1.9072,-1.9072,-1.9072,-1.9072,-1.9072,-1.9072,-1.9072,-1.9072,-1.9072,-1.9072,-1.9072,-1.9072,-1.9072,-1.9072,-1.9072,-1.9072,-1.9072,-1.9072,-1.9072,-1.9072,-1.9012,-1.8244,-1.6635,-1.6507,-1.523,-1.2591,-1.1368,-1.0922,-1.1228,-1.0922,-1.0922,-1.1235,-1.1147,-1.1299,-1.1483,-1.1493,-1.1598,-1.1724,-1.1762,-1.1578,-1.1181,-1.1181,-1.0982,-1.0717,-1.0717,-1.0717,-1.0717,-1.0717,-1.0717,-1.0717,-1.0717,-1.0717,-1.0784,-1.1247,-1.1314,-1.1314,-1.1314,-1.1578,-1.1843,-1.1901,-1.1975,-1.2289,-1.3674,-1.3843,-1.4073,-1.5432,-1.668,-1.7513,-1.7513,-1.8532,-1.943,-1.943,-1.943,-1.9345,-1.9265,-1.9265,-1.9158,0.0,-1.8824,-1.8731,-1.8517,-1.849,-1.849,0.0,0.0,0.0,0.0,-1.8637,-1.8718,-1.8718,-1.8851,-1.9025,-1.9265,-1.939,-1.943,-1.943,-1.943,-1.943,-1.943,-1.943,-1.943,-1.943,-1.943,-1.943,-1.9546,-2.1002,-2.2184,-2.3143,-2.4667,-2.5789,-2.6591,-2.6591,-2.6591,-2.6591,-1.7173,-1.815,-1.9072,-1.9072,-1.9072,-1.9072,-1.9072,-1.9072,-1.9072,-1.9072,-1.9072,-1.9072,-1.9072,-1.9072,-1.9072,-1.9072,-1.9072,-1.9072,-1.9072,-1.9072,-1.8816,-1.815,-1.815,-1.7119,-1.4926,-1.4862,-1.3731,-1.1453,-1.0693,-1.0404,-1.0601,-1.0601,-1.0721,-1.1038,-1.092,-1.1063,-1.1272,-1.1149,-1.13,-1.1512,-1.1512,-1.138,-1.1181,-1.1181,-1.0982,-1.0717,-1.0717,-1.0717,-1.0717,-1.0717,-1.0717,-1.0717,-1.0717,-1.0717,-1.0717,-1.0916,-1.0982,-1.0982,-1.0982,-1.1115,-1.1247,-1.1247,-1.138,-1.1754,-1.258,-1.2667,-1.2821,-1.3589,-1.4842,-1.5736,-1.5736,-1.6809,-1.7818,-1.8415,-1.8532,-1.8706,-1.9301,-1.943,-1.9305,-1.9145,-1.9132,-1.9065,-1.8905,-1.8891,-1.8891,-1.8891,-1.8891,0.0,-1.8891,-1.9038,-1.9065,-1.8931,-1.9052,-1.9199,-1.943,-1.943,-1.943,-1.943,-1.943,-1.943,-1.943,-1.943,-1.943,-1.943,-1.943,-1.943,-1.9475,-2.073,-2.19,-2.3087,-2.4334,-2.5514,-2.6591,-2.6591,-2.6591,-2.6646,-1.7044,-1.815,-1.9072,-1.9072,-1.9072,-1.9072,-1.9072,-1.9072,-1.9072,-1.9072,-1.9072,-1.9072,-1.9072,-1.9072,-1.9072,-1.9072,-1.9072,-1.9008,-1.8816,-1.8547,-1.7958,-1.6721,-1.6656,-1.5489,-1.2882,-1.2618,-1.1826,-1.0527,-1.0405,-1.0344,-1.0344,-1.0344,-1.0536,-1.0799,-1.0603,-1.0723,-1.0925,-1.0795,-1.085,-1.1115,-1.1115,-1.1115,-1.1115,-1.1115,-1.0916,-1.0717,-1.0717,-1.0717,-1.0717,-1.0717,-1.0717,-1.0717,-1.0717,-1.0717,-1.0717,-1.0717,-1.0717,-1.0717,-1.0717,-1.0717,-1.0784,-1.1049,-1.1101,-1.1176,-1.1431,-1.1318,-1.121,-1.1441,-1.2665,-1.3725,-1.3725,-1.4738,-1.5924,-1.7044,-1.7396,-1.7864,-1.8952,-1.9301,-1.943,-1.943,-1.943,-1.943,-1.943,-1.943,-1.943,-1.943,-1.943,-1.943,-1.943,-1.943,-1.9252,-1.8998,-1.9239,-1.943,-1.943,-1.943,-1.943,-1.943,-1.943,-1.943,-1.943,-1.943,-1.943,-1.943,-1.943,-1.943,-1.9475,-2.073,-2.19,-2.3087,-2.4334,-2.5514,-2.6591,-2.6591,-2.6591,-2.6646,-1.7238,-1.815,-1.9072,-1.9072,-1.9072,-1.9072,-1.9072,-1.9072,-1.9072,-1.9072,-1.9072,-1.9072,-1.9072,-1.9072,-1.9072,-1.9072,-1.9072,-1.8612,-1.7367,-1.6203,-1.5424,-1.5229,-1.5238,-1.4446,-1.2816,-1.1637,-1.0902,-1.0683,-1.0663,-1.0649,-1.0649,-1.0649,-1.0649,-1.0715,-1.0677,-1.0683,-1.0749,-1.0711,-1.0717,-1.0784,-1.0784,-1.0784,-1.0784,-1.0784,-1.0717,-1.0717,-1.0717,-1.0717,-1.0717,-1.0717,-1.0717,-1.0717,-1.0717,-1.0717,-1.0717,-1.0717,-1.0717,-1.0717,-1.0717,-1.0717,-1.0717,-1.0784,-1.0688,-1.0716,-1.1012,-1.1038,-1.113,-1.1418,-1.2665,-1.3725,-1.3725,-1.4738,-1.5628,-1.5865,-1.6809,-1.7572,-1.7747,-1.8706,-1.943,-1.943,-1.943,-1.943,-1.943,-1.943,-1.943,-1.943,-1.943,-1.943,-1.943,-1.943,-1.9403,-1.9305,-1.9345,-1.943,-1.943,-1.943,-1.943,-1.943,-1.943,-1.943,-1.943,-1.943,-1.943,-1.943,-1.943,-1.943,-1.9475,-2.073,-2.19,-2.3087,-2.4334,-2.5514,-2.6591,-2.6591,-2.6591,-2.6591,-1.6138,-1.7636,-1.9072,-1.9072,-1.9072,-1.9072,-1.9072,-1.9072,-1.9072,-1.9072,-1.9072,-1.9072,-1.9072,-1.9072,-1.9072,-1.9072,-1.8419,-1.77,-1.7044,-1.6398,-1.5359,-1.3866,-1.3801,-1.3079,-1.1703,-1.1049,-1.0717,-1.0717,-1.0717,-1.0717,-1.0717,-1.0717,-1.0717,-1.0717,-1.0717,-1.0717,-1.0717,-1.0717,-1.0717,-1.0717,-1.0717,-1.0717,-1.0717,-1.0717,-1.0717,-1.0717,-1.0717,-1.0717,-1.0717,-1.0717,-1.0717,-1.0717,-1.0717,-1.0717,-1.0717,-1.0717,-1.0717,-1.0717,-1.0717,-1.0717,-1.0704,-1.0616,-1.0671,-1.0769,-1.0735,-1.1025,-1.1263,-1.1348,-1.2059,-1.2664,-1.2664,-1.3144,-1.3794,-1.4441,-1.5628,-1.675,-1.7396,-1.859,-1.943,-1.943,-1.943,-1.943,-1.943,-1.943,-1.943,-1.943,-1.943,-1.943,-1.943,-1.943,-1.943,-1.943,-1.943,-1.943,-1.943,-1.943,-1.943,-1.943,-1.943,-1.943,-1.943,-1.943,-1.943,-1.943,-1.943,-1.943,-1.943,-1.9996,-2.1345,-2.303,-2.3592,-2.4944,-2.6591,-2.6591,-2.6591,-2.6591,-1.5554,-1.712,-1.874,-1.9008,-1.9072,-1.9072,-1.9072,-1.9072,-1.9072,-1.9072,-1.9072,-1.9072,-1.9072,-1.9072,-1.9072,-1.9072,-1.8086,-1.7238,-1.6527,-1.6527,-1.5424,-1.2882,-1.2487,-1.1835,-1.0717,-1.0717,-1.0717,-1.0717,-1.0717,-1.0717,-1.0717,-1.0717,-1.0717,-1.0717,-1.0717,-1.0717,-1.0717,-1.0717,-1.0717,-1.0717,-1.0717,-1.0717,-1.0717,-1.0717,-1.0717,-1.0717,-1.0717,-1.0717,-1.0717,-1.0717,-1.0717,-1.0717,-1.0717,-1.0717,-1.0717,-1.0717,-1.0717,-1.0717,-1.0717,-1.0697,-1.0636,-1.0521,-1.0633,-1.0714,-1.0662,-1.1009,-1.1379,-1.1429,-1.1647,-1.1776,-1.1776,-1.1776,-1.213,-1.3075,-1.4321,-1.5628,-1.6868,-1.8169,-1.9068,-1.9372,-1.943,-1.943,-1.943,-1.943,-1.943,-1.943,-1.943,-1.943,-1.943,-1.943,-1.943,-1.943,-1.943,-1.943,-1.943,-1.943,-1.943,-1.943,-1.943,-1.943,-1.943,-1.943,-1.943,-1.943,-1.943,-1.943,-1.943,-1.943,-2.0831,-2.2974,-2.2974,-2.4501,-2.6591,-2.6591,-2.6591,-2.6591,-1.6592,-1.698,-1.7571,-1.888,-1.9072,-1.9072,-1.9072,-1.9072,-1.9072,-1.9072,-1.9072,-1.9072,-1.9072,-1.9072,-1.9072,-1.9072,-1.9008,-1.784,-1.5238,-1.5043,-1.439,-1.2882,-1.1571,-1.0784,-1.0717,-1.0717,-1.0717,-1.0717,-1.0717,-1.0717,-1.0717,-1.0717,-1.0717,-1.0717,-1.0717,-1.0717,-1.0717,-1.0717,-1.0717,-1.0717,-1.0717,-1.0717,-1.0717,-1.0717,-1.0717,-1.0717,-1.0717,-1.0717,-1.0717,-1.0717,-1.0717,-1.0717,-1.0717,-1.0717,-1.0717,-1.0717,-1.0717,-1.0717,-1.0717,-1.0616,-1.0507,-1.0493,-1.0283,-1.0198,-1.086,-1.0919,-1.105,-1.1655,-1.1776,-1.1776,-1.1776,-1.1776,-1.1837,-1.1897,-1.3015,-1.4262,-1.5569,-1.6868,-1.8052,-1.9243,-1.943,-1.943,-1.943,-1.943,-1.943,-1.943,-1.943,-1.943,-1.943,-1.943,-1.943,-1.943,-1.943,-1.943,-1.943,-1.943,-1.943,-1.943,-1.943,-1.943,-1.943,-1.943,-1.943,-1.943,-1.943,-1.943,-1.943,-1.943,-2.0831,-2.2974,-2.2974,-2.4501,-2.6591,-2.6591,-2.6591,-2.6591,-1.5749,-1.7109,-1.8483,-1.9008,-1.9072,-1.9072,-1.9072,-1.9072,-1.9072,-1.9072,-1.9072,-1.9072,-1.9072,-1.9072,-1.9072,-1.9072,-1.9072,-1.8623,-1.7571,-1.5889,-1.3866,-1.1571,-1.0982,-1.0717,-1.0717,-1.0717,-1.0717,-1.0717,-1.0717,-1.0717,-1.0717,-1.0717,-1.0717,-1.0717,-1.0717,-1.0717,-1.0717,-1.0717,-1.0717,-1.0717,-1.0717,-1.0717,-1.0717,-1.0717,-1.0717,-1.0717,-1.0717,-1.0717,-1.0717,-1.0717,-1.0717,-1.0717,-1.0717,-1.0717,-1.0717,-1.0717,-1.0717,-1.0697,-1.0602,-1.0534,-1.0473,-1.0385,-1.0328,-1.0397,-1.0782,-1.102,-1.1216,-1.1716,-1.1776,-1.1776,-1.1776,-1.1776,-1.1776,-1.1776,-1.2904,-1.4143,-1.5391,-1.6691,-1.7994,-1.9243,-1.943,-1.943,-1.943,-1.943,-1.943,-1.943,-1.943,-1.943,-1.943,-1.943,-1.943,-1.943,-1.943,-1.943,-1.943,-1.943,-1.943,-1.943,-1.943,-1.943,-1.943,-1.943,-1.943,-1.943,-1.943,-1.943,-1.943,-1.943,-2.0831,-2.2974,-2.2974,-2.4501,-2.6591,-2.6591,-2.6591,-2.6591,-1.5684,-1.712,-1.8547,-1.9008,-1.9072,-1.9072,-1.9072,-1.9072,-1.9072,-1.9072,-1.9072,-1.9072,-1.9072,-1.9072,-1.9072,-1.9072,-1.9072,-1.8944,-1.8483,-1.5814,-1.321,-1.0784,-1.0717,-1.0717,-1.0717,-1.0717,-1.0717,-1.0717,-1.0717,-1.0717,-1.0717,-1.0717,-1.0717,-1.0717,-1.0717,-1.0717,-1.0717,-1.0717,-1.0717,-1.0717,-1.0717,-1.0717,-1.0717,-1.0717,-1.0717,-1.0717,-1.0717,-1.0717,-1.0717,-1.0717,-1.0717,-1.0717,-1.0717,-1.0717,-1.0717,-1.0717,-1.0717,-1.0683,-1.0534,-1.046,-1.0392,-1.0243,-1.0218,-1.032,-1.0572,-1.0906,-1.1216,-1.1587,-1.1716,-1.1776,-1.1776,-1.1776,-1.1776,-1.1776,-1.2543,-1.3555,-1.4798,-1.6101,-1.7396,-1.8648,-1.9185,-1.943,-1.943,-1.943,-1.943,-1.943,-1.943,-1.943,-1.943,-1.943,-1.943,-1.943,-1.943,-1.943,-1.943,-1.943,-1.943,-1.943,-1.943,-1.943,-1.943,-1.943,-1.943,-1.943,-1.943,-1.943,-1.943,-1.943,-2.0831,-2.2974,-2.2974,-2.4501,-2.6591,-2.6591,-2.6591,-2.6591,-1.6721,-1.698,-1.7431,-1.888,-1.9072,-1.9072,-1.9072,-1.9072,-1.9072,-1.9072,-1.9072,-1.9072,-1.9072,-1.9072,-1.9072,-1.9072,-1.9072,-1.8483,-1.7109,-1.4381,-1.2165,-1.0784,-1.0717,-1.0717,-1.0717,-1.0717,-1.0717,-1.0717,-1.0717,-1.0717,-1.0717,-1.0717,-1.0717,-1.0717,-1.0717,-1.0717,-1.0717,-1.0717,-1.0717,-1.0717,-1.0717,-1.0717,-1.0717,-1.0717,-1.0717,-1.0717,-1.0717,-1.0717,-1.0717,-1.0717,-1.0717,-1.0717,-1.0717,-1.0717,-1.0717,-1.0717,-1.0717,-1.0683,-1.0534,-1.0385,-1.0243,-1.0024,-0.9869,-0.9883,-1.0247,-1.055,-1.0906,-1.1209,-1.1587,-1.1776,-1.1776,-1.1776,-1.1776,-1.1776,-1.1776,-1.2251,-1.3545,-1.4798,-1.6042,-1.7337,-1.8648,-1.943,-1.943,-1.943,-1.943,-1.943,-1.943,-1.943,-1.943,-1.943,-1.943,-1.943,-1.943,-1.943,-1.943,-1.943,-1.943,-1.943,-1.943,-1.943,-1.943,-1.943,-1.943,-1.943,-1.943,-1.943,-1.943,-1.943,-2.0831,-2.2974,-2.2974,-2.4445,-2.6591,-2.6591,-2.6591,-2.6591,-1.6915,-1.7829,-1.8612,-1.9008,-1.9072,-1.9072,-1.9072,-1.9072,-1.9072,-1.9072,-1.9072,-1.9072,-1.9072,-1.9072,-1.9072,-1.9072,-1.9072,-1.8098,-1.5684,-1.4707,-1.321,-1.0784,-1.0717,-1.0717,-1.0717,-1.0717,-1.0717,-1.0717,-1.0717,-1.0717,-1.0717,-1.0717,-1.0717,-1.0717,-1.0717,-1.0717,-1.0717,-1.0717,-1.0717,-1.0717,-1.0717,-1.0717,-1.0717,-1.0717,-1.0717,-1.0717,-1.0717,-1.0717,-1.0717,-1.0717,-1.0717,-1.0717,-1.0717,-1.0717,-1.0717,-1.0717,-1.0717,-1.0663,-1.0412,-1.031,-1.0243,-1.0024,-0.9869,-0.9883,-1.0247,-1.0361,-1.0611,-1.1148,-1.1398,-1.1526,-1.1776,-1.1776,-1.1776,-1.1776,-1.1776,-1.2251,-1.3545,-1.4798,-1.6042,-1.7337,-1.8648,-1.943,-1.943,-1.943,-1.943,-1.943,-1.943,-1.943,-1.943,-1.943,-1.943,-1.943,-1.943,-1.943,-1.943,-1.943,-1.943,-1.943,-1.943,-1.943,-1.943,-1.943,-1.943,-1.943,-1.943,-1.943,-1.943,-1.943,-2.0831,-2.2974,-2.2974,-2.3927,-2.5459,-2.63,-2.6081,-2.5459,-1.7829,-1.8547,-1.9072,-1.9072,-1.9072,-1.9072,-1.9072,-1.9072,-1.9072,-1.9072,-1.9072,-1.9072,-1.9072,-1.9072,-1.9072,-1.9072,-1.8612,-1.7313,-1.5043,-1.439,-1.3079,-1.0784,-1.0717,-1.0717,-1.0717,-1.0717,-1.0717,-1.0717,-1.0717,-1.0717,-1.0717,-1.0717,-1.0717,-1.0717,-1.0717,-1.0717,-1.0717,-1.0717,-1.0717,-1.0717,-1.0717,-1.0717,-1.0717,-1.0717,-1.0717,-1.0717,-1.0717,-1.0717,-1.0717,-1.0717,-1.0717,-1.0717,-1.0717,-1.0717,-1.0717,-1.0717,-1.0717,-1.0656,-1.0365,-1.0283,-1.0229,-1.0012,-0.989,-0.9883,-1.0065,-1.0186,-1.0429,-1.0967,-1.1209,-1.1398,-1.1716,-1.1776,-1.1776,-1.1776,-1.1776,-1.2078,-1.2844,-1.45,-1.5865,-1.6632,-1.8298,-1.943,-1.943,-1.943,-1.943,-1.943,-1.943,-1.943,-1.943,-1.943,-1.943,-1.943,-1.943,-1.943,-1.943,-1.943,-1.943,-1.943,-1.943,-1.943,-1.943,-1.943,-1.943,-1.943,-1.943,-1.943,-1.943,-1.943,-2.0558,-2.2353,-2.2805,-2.3424,-2.4278,-2.5971,-2.5861,-2.4979,-1.9072,-1.9072,-1.9072,-1.9072,-1.9072,-1.9072,-1.9072,-1.9072,-1.9072,-1.9072,-1.9072,-1.9072,-1.9072,-1.9072,-1.9072,-1.9072,-1.7829,-1.6398,-1.4968,-1.3604,-1.2165,-1.0784,-1.0717,-1.0717,-1.0717,-1.0717,-1.0717,-1.0717,-1.0717,-1.0717,-1.0717,-1.0717,-1.0717,-1.0717,-1.0717,-1.0717,-1.0717,-1.0717,-1.0717,-1.0717,-1.0717,-1.0717,-1.0717,-1.0717,-1.0717,-1.0717,-1.0717,-1.0717,-1.0717,-1.0717,-1.0717,-1.0717,-1.0717,-1.0717,-1.0717,-1.0717,-1.0717,-1.0656,-1.0365,-1.0283,-1.0209,-0.9897,-0.9822,-0.9822,-0.9822,-1.0065,-1.0368,-1.0732,-1.1027,-1.1398,-1.1716,-1.1776,-1.1776,-1.1776,-1.1776,-1.1776,-1.1776,-1.3973,-1.5569,-1.5569,-1.7818,-1.943,-1.943,-1.943,-1.943,-1.943,-1.943,-1.943,-1.943,-1.943,-1.943,-1.943,-1.943,-1.943,-1.943,-1.943,-1.943,-1.943,-1.943,-1.943,-1.943,-1.943,-1.943,-1.943,-1.943,-1.943,-1.943,-1.943,-2.0097,-2.1288,-2.241,-2.2862,-2.3143,-2.5569,-2.5679,-2.4885,-1.9072,-1.9072,-1.9072,-1.9072,-1.9072,-1.9072,-1.9072,-1.9072,-1.9072,-1.9072,-1.9072,-1.9072,-1.9072,-1.9072,-1.9072,-1.9072,-1.7829,-1.6398,-1.4968,-1.3604,-1.2165,-1.0784,-1.0717,-1.0717,-1.0717,-1.0717,-1.0717,-1.0717,-1.0717,-1.0717,-1.0717,-1.0717,-1.0717,-1.0717,-1.0717,-1.0717,-1.0717,-1.0717,-1.0717,-1.0717,-1.0717,-1.0717,-1.0717,-1.0717,-1.0717,-1.0717,-1.0717,-1.0717,-1.0717,-1.0717,-1.0717,-1.0717,-1.0717,-1.0717,-1.0717,-1.0717,-1.0717,-1.0656,-1.0365,-1.0283,-1.0209,-0.9897,-0.9822,-0.9822,-0.9822,-0.9883,-1.0065,-1.0664,-1.0846,-1.1095,-1.1716,-1.1776,-1.1776,-1.1776,-1.1776,-1.1776,-1.1776,-1.3973,-1.5569,-1.5569,-1.7818,-1.943,-1.943,-1.943,-1.943,-1.943,-1.943,-1.943,-1.943,-1.943,-1.943,-1.943,-1.943,-1.943,-1.943,-1.943,-1.943,-1.943,-1.943,-1.943,-1.943,-1.943,-1.943,-1.943,-1.943,-1.943,-1.943,-1.943,-2.0097,-2.1231,-2.1517,-2.1574,-2.1858,-2.4278,-2.4445,-2.3802,-1.9072,-1.9072,-1.9072,-1.9072,-1.9072,-1.9072,-1.9072,-1.9072,-1.9072,-1.9072,-1.9072,-1.9072,-1.9072,-1.9072,-1.9072,-1.9072,-1.7184,-1.5684,-1.4977,-1.2947,-1.1439,-1.0717,-1.0717,-1.0717,-1.0717,-1.0717,-1.0717,-1.0717,-1.0717,-1.0717,-1.0717,-1.0717,-1.0717,-1.0717,-1.0717,-1.0717,-1.0717,-1.0717,-1.0717,-1.0717,-1.0717,-1.0717,-1.0717,-1.0717,-1.0717,-1.0717,-1.0717,-1.0717,-1.0717,-1.0717,-1.0717,-1.0717,-1.0717,-1.0717,-1.0717,-1.0717,-1.0717,-1.0656,-1.0365,-1.0283,-1.0209,-0.9897,-0.9822,-0.9822,-0.9822,-0.9943,-1.0186,-1.0664,-1.0906,-1.1216,-1.1716,-1.1776,-1.1776,-1.1776,-1.1776,-1.1776,-1.1776,-1.3973,-1.5569,-1.5569,-1.7818,-1.943,-1.943,-1.943,-1.943,-1.943,-1.943,-1.943,-1.943,-1.943,-1.943,-1.943,-1.943,-1.943,-1.943,-1.943,-1.943,-1.943,-1.943,-1.943,-1.943,-1.943,-1.943,-1.943,-1.943,-1.943,-1.943,-1.943,-1.9764,-2.0385,-2.1002,-2.0845,-2.073,-2.3704,-2.5001,-2.5565,-1.8752,-1.8944,-1.9072,-1.9072,-1.888,-1.8816,-1.9072,-1.888,-1.8816,-1.9072,-1.9072,-1.9072,-1.9072,-1.888,-1.8816,-1.9072,-1.6343,-1.4651,-1.4912,-1.2231,-1.0717,-1.0717,-1.0717,-1.0717,-1.0717,-1.0717,-1.0717,-1.0717,-1.0717,-1.0717,-1.0717,-1.0717,-1.0717,-1.0717,-1.0717,-1.0717,-1.0717,-1.0717,-1.0717,-1.0717,-1.0717,-1.0717,-1.0717,-1.0717,-1.0717,-1.0717,-1.0717,-1.0717,-1.0717,-1.0717,-1.0717,-1.0717,-1.0717,-1.0717,-1.0717,-1.0717,-1.0717,-1.0656,-1.0365,-1.0283,-1.0209,-0.9897,-0.9822,-0.9822,-0.9822,-1.0065,-1.0361,-1.0671,-1.1027,-1.1398,-1.1647,-1.1776,-1.1776,-1.1776,-1.1776,-1.1776,-1.1776,-1.3973,-1.5569,-1.5569,-1.7818,-1.943,-1.943,-1.943,-1.943,-1.943,-1.943,-1.943,-1.943,-1.943,-1.943,-1.943,-1.943,-1.943,-1.943,-1.943,-1.943,-1.943,-1.943,-1.943,-1.943,-1.943,-1.943,-1.943,-1.943,-1.943,-1.943,-1.943,-1.943,-1.9488,-2.05,-2.027,-1.9822,-2.332,-2.593,-2.7877,-1.7302,-1.8291,-1.9072,-1.9072,-1.8086,-1.77,-1.8944,-1.8086,-1.77,-1.8944,-1.9072,-1.9072,-1.9072,-1.8022,-1.7765,-1.9008,-1.5424,-1.3604,-1.4847,-1.2231,-1.0717,-1.0717,-1.0717,-1.0717,-1.0717,-1.0717,-1.0717,-1.0717,-1.0717,-1.0717,-1.0717,-1.0717,-1.0717,-1.0717,-1.0717,-1.0717,-1.0717,-1.0717,-1.0717,-1.0717,-1.0717,-1.0717,-1.0717,-1.0717,-1.0717,-1.0717,-1.0717,-1.0717,-1.0717,-1.0717,-1.0717,-1.0717,-1.0717,-1.0717,-1.0717,-1.0717,-1.0717,-1.0656,-1.0365,-1.0283,-1.0209,-0.9897,-0.9822,-0.9822,-0.9822,-1.0065,-1.0308,-1.0368,-1.0846,-1.1329,-1.1337,-1.1587,-1.1776,-1.1776,-1.1776,-1.1776,-1.1776,-1.3973,-1.5569,-1.5569,-1.7818,-1.943,-1.943,-1.943,-1.943,-1.943,-1.943,-1.943,-1.943,-1.943,-1.943,-1.943,-1.943,-1.943,-1.943,-1.943,-1.943,-1.943,-1.943,-1.943,-1.943,-1.943,-1.943,-1.943,-1.943,-1.943,-1.943,-1.943,-1.943,-1.943,-1.9591,-1.9533,-1.9734,-2.2678,-2.5457,-2.7877,-1.5814,-1.6343,-1.6732,-1.6732,-1.6203,-1.6009,-1.6667,-1.6203,-1.6073,-1.6667,-1.6732,-1.7055,-1.7829,-1.7367,-1.6915,-1.6796,-1.4315,-1.3079,-1.3669,-1.1835,-1.0717,-1.0717,-1.0717,-1.0717,-1.0717,-1.0717,-1.0717,-1.0717,-1.0717,-1.0717,-1.0717,-1.0717,-1.0717,-1.0717,-1.0717,-1.0717,-1.0717,-1.0717,-1.0717,-1.0717,-1.0717,-1.0717,-1.0717,-1.0717,-1.0717,-1.0717,-1.0717,-1.0717,-1.0717,-1.0717,-1.0717,-1.0717,-1.0717,-1.0717,-1.0717,-1.0717,-1.0717,-1.0656,-1.0365,-1.0283,-1.0209,-0.9897,-0.9822,-0.9822,-0.9822,-1.0065,-1.0308,-1.0308,-1.0846,-1.1209,-1.1027,-1.1466,-1.1716,-1.1526,-1.1647,-1.1776,-1.1776,-1.3973,-1.6101,-1.7525,-1.8719,-1.943,-1.943,-1.943,-1.943,-1.943,-1.943,-1.943,-1.943,-1.943,-1.943,-1.943,-1.943,-1.943,-1.943,-1.943,-1.943,-1.943,-1.943,-1.943,-1.943,-1.943,-1.943,-1.943,-1.943,-1.943,-1.943,-1.943,-1.943,-1.943,-1.943,-1.9918,-2.09,-2.3119,-2.5219,-2.7186]}]]